<?xml version='1.0' encoding='UTF-8'?><gpx version="1.1" creator="JPX - https://github.com/jenetics/jpx" xmlns="http://www.topografix.com/GPX/1/1"><trk><trkseg><trkpt lat="45.6809732" lon="8.7037733"><ele>272.0</ele><time>2026-04-26T12:50:58.578Z</time></trkpt><trkpt lat="45.680915" lon="8.703721"><ele>272.0</ele><time>2026-04-26T12:51:00.577Z</time></trkpt><trkpt lat="45.6808561" lon="8.7036655"><ele>272.0</ele><time>2026-04-26T12:51:02.577Z</time></trkpt><trkpt lat="45.6807888" lon="8.7036024"><ele>272.0</ele><time>2026-04-26T12:51:04.577Z</time></trkpt><trkpt lat="45.6807191" lon="8.7035179"><ele>272.0</ele><time>2026-04-26T12:51:06.579Z</time></trkpt><trkpt lat="45.6806564" lon="8.7034183"><ele>272.0</ele><time>2026-04-26T12:51:08.577Z</time></trkpt><trkpt lat="45.6805841" lon="8.703324"><ele>271.6</ele><time>2026-04-26T12:51:10.577Z</time></trkpt><trkpt lat="45.6805101" lon="8.7032207"><ele>271.2</ele><time>2026-04-26T12:51:12.578Z</time></trkpt><trkpt lat="45.6804417" lon="8.7031082"><ele>270.8</ele><time>2026-04-26T12:51:14.578Z</time></trkpt><trkpt lat="45.6803749" lon="8.7029966"><ele>270.4</ele><time>2026-04-26T12:51:16.577Z</time></trkpt><trkpt lat="45.6803153" lon="8.7028722"><ele>270.0</ele><time>2026-04-26T12:51:18.578Z</time></trkpt><trkpt lat="45.6802411" lon="8.7027643"><ele>269.8</ele><time>2026-04-26T12:51:20.577Z</time></trkpt><trkpt lat="45.6801671" lon="8.7026472"><ele>269.6</ele><time>2026-04-26T12:51:22.577Z</time></trkpt><trkpt lat="45.6800908" lon="8.7025301"><ele>269.4</ele><time>2026-04-26T12:51:24.578Z</time></trkpt><trkpt lat="45.6800165" lon="8.7024071"><ele>269.2</ele><time>2026-04-26T12:51:26.577Z</time></trkpt><trkpt lat="45.679941" lon="8.7022934"><ele>269.0</ele><time>2026-04-26T12:51:28.578Z</time></trkpt><trkpt lat="45.6798742" lon="8.7021676"><ele>269.0</ele><time>2026-04-26T12:51:30.577Z</time></trkpt><trkpt lat="45.6798009" lon="8.7020433"><ele>269.0</ele><time>2026-04-26T12:51:32.577Z</time></trkpt><trkpt lat="45.6797279" lon="8.701924"><ele>269.0</ele><time>2026-04-26T12:51:34.578Z</time></trkpt><trkpt lat="45.6796625" lon="8.7017888"><ele>269.0</ele><time>2026-04-26T12:51:36.578Z</time></trkpt><trkpt lat="45.6795864" lon="8.7016837"><ele>269.0</ele><time>2026-04-26T12:51:38.579Z</time></trkpt><trkpt lat="45.6795147" lon="8.7015563"><ele>269.0</ele><time>2026-04-26T12:51:40.578Z</time></trkpt><trkpt lat="45.679448" lon="8.7014192"><ele>269.0</ele><time>2026-04-26T12:51:42.577Z</time></trkpt><trkpt lat="45.6793732" lon="8.7012853"><ele>269.0</ele><time>2026-04-26T12:51:44.58Z</time></trkpt><trkpt lat="45.6792951" lon="8.7011567"><ele>269.0</ele><time>2026-04-26T12:51:46.578Z</time></trkpt><trkpt lat="45.679224" lon="8.7010314"><ele>268.8</ele><time>2026-04-26T12:51:48.577Z</time></trkpt><trkpt lat="45.6791559" lon="8.7009083"><ele>268.59999999999997</ele><time>2026-04-26T12:51:50.578Z</time></trkpt><trkpt lat="45.6790977" lon="8.7008156"><ele>268.4</ele><time>2026-04-26T12:51:52.577Z</time></trkpt><trkpt lat="45.6790069" lon="8.7007884"><ele>268.2</ele><time>2026-04-26T12:51:55.577Z</time></trkpt><trkpt lat="45.6789338" lon="8.70084"><ele>268.0</ele><time>2026-04-26T12:51:57.579Z</time></trkpt><trkpt lat="45.6788559" lon="8.700888"><ele>268.0</ele><time>2026-04-26T12:51:59.578Z</time></trkpt><trkpt lat="45.6787769" lon="8.7009709"><ele>268.0</ele><time>2026-04-26T12:52:01.577Z</time></trkpt><trkpt lat="45.6786882" lon="8.7010567"><ele>268.0</ele><time>2026-04-26T12:52:03.577Z</time></trkpt><trkpt lat="45.678596" lon="8.7011512"><ele>268.0</ele><time>2026-04-26T12:52:05.578Z</time></trkpt><trkpt lat="45.6784945" lon="8.7012484"><ele>268.0</ele><time>2026-04-26T12:52:07.58Z</time></trkpt><trkpt lat="45.6783951" lon="8.7013347"><ele>267.8</ele><time>2026-04-26T12:52:09.577Z</time></trkpt><trkpt lat="45.6782949" lon="8.7014181"><ele>267.6</ele><time>2026-04-26T12:52:11.577Z</time></trkpt><trkpt lat="45.6781956" lon="8.7015101"><ele>267.4</ele><time>2026-04-26T12:52:13.578Z</time></trkpt><trkpt lat="45.6780964" lon="8.701593"><ele>267.2</ele><time>2026-04-26T12:52:15.579Z</time></trkpt><trkpt lat="45.6780271" lon="8.7015955"><ele>267.0</ele><time>2026-04-26T12:52:18.579Z</time></trkpt><trkpt lat="45.6779592" lon="8.7015105"><ele>267.0</ele><time>2026-04-26T12:52:21.578Z</time></trkpt><trkpt lat="45.6778983" lon="8.7014292"><ele>267.0</ele><time>2026-04-26T12:52:23.577Z</time></trkpt><trkpt lat="45.6778278" lon="8.7013242"><ele>267.0</ele><time>2026-04-26T12:52:25.578Z</time></trkpt><trkpt lat="45.6777638" lon="8.7012179"><ele>267.0</ele><time>2026-04-26T12:52:27.578Z</time></trkpt><trkpt lat="45.6776962" lon="8.7011135"><ele>267.0</ele><time>2026-04-26T12:52:29.578Z</time></trkpt><trkpt lat="45.6776265" lon="8.7009984"><ele>266.6</ele><time>2026-04-26T12:52:31.578Z</time></trkpt><trkpt lat="45.6775481" lon="8.7008844"><ele>266.2</ele><time>2026-04-26T12:52:33.577Z</time></trkpt><trkpt lat="45.6774736" lon="8.7007561"><ele>265.8</ele><time>2026-04-26T12:52:35.579Z</time></trkpt><trkpt lat="45.6774009" lon="8.7006412"><ele>265.4</ele><time>2026-04-26T12:52:37.577Z</time></trkpt><trkpt lat="45.6773273" lon="8.7005361"><ele>265.0</ele><time>2026-04-26T12:52:39.578Z</time></trkpt><trkpt lat="45.6772467" lon="8.7004294"><ele>265.0</ele><time>2026-04-26T12:52:41.577Z</time></trkpt><trkpt lat="45.6771613" lon="8.7003174"><ele>265.0</ele><time>2026-04-26T12:52:43.578Z</time></trkpt><trkpt lat="45.6770878" lon="8.7001981"><ele>265.0</ele><time>2026-04-26T12:52:45.577Z</time></trkpt><trkpt lat="45.6770134" lon="8.7000802"><ele>265.0</ele><time>2026-04-26T12:52:47.578Z</time></trkpt><trkpt lat="45.6769382" lon="8.6999638"><ele>265.0</ele><time>2026-04-26T12:52:49.578Z</time></trkpt><trkpt lat="45.6768789" lon="8.6998319"><ele>265.0</ele><time>2026-04-26T12:52:51.577Z</time></trkpt><trkpt lat="45.6768044" lon="8.6997284"><ele>265.0</ele><time>2026-04-26T12:52:53.577Z</time></trkpt><trkpt lat="45.6767277" lon="8.6996138"><ele>265.0</ele><time>2026-04-26T12:52:55.579Z</time></trkpt><trkpt lat="45.6766493" lon="8.699496"><ele>265.0</ele><time>2026-04-26T12:52:57.577Z</time></trkpt><trkpt lat="45.6765722" lon="8.6993863"><ele>265.0</ele><time>2026-04-26T12:52:59.577Z</time></trkpt><trkpt lat="45.6764918" lon="8.6992693"><ele>265.0</ele><time>2026-04-26T12:53:01.577Z</time></trkpt><trkpt lat="45.6764128" lon="8.6991679"><ele>265.0</ele><time>2026-04-26T12:53:03.578Z</time></trkpt><trkpt lat="45.6763256" lon="8.699076"><ele>265.0</ele><time>2026-04-26T12:53:05.577Z</time></trkpt><trkpt lat="45.6762428" lon="8.6990005"><ele>265.0</ele><time>2026-04-26T12:53:07.577Z</time></trkpt><trkpt lat="45.6761525" lon="8.6989123"><ele>265.0</ele><time>2026-04-26T12:53:09.577Z</time></trkpt><trkpt lat="45.6760533" lon="8.6988274"><ele>264.8</ele><time>2026-04-26T12:53:11.577Z</time></trkpt><trkpt lat="45.6759547" lon="8.6987493"><ele>264.6</ele><time>2026-04-26T12:53:13.577Z</time></trkpt><trkpt lat="45.6758532" lon="8.6986555"><ele>264.4</ele><time>2026-04-26T12:53:15.578Z</time></trkpt><trkpt lat="45.6757955" lon="8.6986117"><ele>264.2</ele><time>2026-04-26T12:53:16.578Z</time></trkpt><trkpt lat="45.6757445" lon="8.6985588"><ele>264.0</ele><time>2026-04-26T12:53:17.578Z</time></trkpt><trkpt lat="45.6756342" lon="8.6984741"><ele>264.0</ele><time>2026-04-26T12:53:19.578Z</time></trkpt><trkpt lat="45.6755744" lon="8.6984349"><ele>264.0</ele><time>2026-04-26T12:53:20.579Z</time></trkpt><trkpt lat="45.6755167" lon="8.6983956"><ele>264.0</ele><time>2026-04-26T12:53:21.578Z</time></trkpt><trkpt lat="45.6754014" lon="8.6983228"><ele>264.0</ele><time>2026-04-26T12:53:23.579Z</time></trkpt><trkpt lat="45.6753406" lon="8.6982852"><ele>264.0</ele><time>2026-04-26T12:53:24.577Z</time></trkpt><trkpt lat="45.6752801" lon="8.6982437"><ele>264.0</ele><time>2026-04-26T12:53:25.577Z</time></trkpt><trkpt lat="45.6752196" lon="8.6982078"><ele>263.7142857142857</ele><time>2026-04-26T12:53:26.578Z</time></trkpt><trkpt lat="45.6751595" lon="8.6981689"><ele>263.42857142857144</ele><time>2026-04-26T12:53:27.579Z</time></trkpt><trkpt lat="45.675097" lon="8.6981292"><ele>263.14285714285717</ele><time>2026-04-26T12:53:28.577Z</time></trkpt><trkpt lat="45.6750344" lon="8.6980937"><ele>262.8571428571429</ele><time>2026-04-26T12:53:29.577Z</time></trkpt><trkpt lat="45.6749646" lon="8.698068"><ele>262.5714285714286</ele><time>2026-04-26T12:53:30.579Z</time></trkpt><trkpt lat="45.6748958" lon="8.6980311"><ele>262.2857142857143</ele><time>2026-04-26T12:53:31.578Z</time></trkpt><trkpt lat="45.6748317" lon="8.6980011"><ele>262.0</ele><time>2026-04-26T12:53:32.578Z</time></trkpt><trkpt lat="45.6747686" lon="8.6979649"><ele>262.0</ele><time>2026-04-26T12:53:33.577Z</time></trkpt><trkpt lat="45.6746492" lon="8.6978954"><ele>262.0</ele><time>2026-04-26T12:53:35.579Z</time></trkpt><trkpt lat="45.6745919" lon="8.697847"><ele>262.0</ele><time>2026-04-26T12:53:36.578Z</time></trkpt><trkpt lat="45.674525" lon="8.6978228"><ele>262.0</ele><time>2026-04-26T12:53:37.577Z</time></trkpt><trkpt lat="45.6744555" lon="8.6977965"><ele>262.0</ele><time>2026-04-26T12:53:38.577Z</time></trkpt><trkpt lat="45.6743839" lon="8.6977706"><ele>262.0</ele><time>2026-04-26T12:53:39.578Z</time></trkpt><trkpt lat="45.6743121" lon="8.6977374"><ele>261.66666666666663</ele><time>2026-04-26T12:53:40.577Z</time></trkpt><trkpt lat="45.6742378" lon="8.6977108"><ele>261.3333333333333</ele><time>2026-04-26T12:53:41.577Z</time></trkpt><trkpt lat="45.6741659" lon="8.6976812"><ele>261.0</ele><time>2026-04-26T12:53:42.579Z</time></trkpt><trkpt lat="45.6740865" lon="8.6976608"><ele>260.6666666666667</ele><time>2026-04-26T12:53:43.579Z</time></trkpt><trkpt lat="45.6740096" lon="8.6976322"><ele>260.33333333333337</ele><time>2026-04-26T12:53:44.577Z</time></trkpt><trkpt lat="45.6739405" lon="8.6975994"><ele>260.0</ele><time>2026-04-26T12:53:45.577Z</time></trkpt><trkpt lat="45.6738635" lon="8.6975618"><ele>260.0</ele><time>2026-04-26T12:53:46.577Z</time></trkpt><trkpt lat="45.6737856" lon="8.6975329"><ele>260.0</ele><time>2026-04-26T12:53:47.577Z</time></trkpt><trkpt lat="45.6737054" lon="8.6974941"><ele>260.0</ele><time>2026-04-26T12:53:48.578Z</time></trkpt><trkpt lat="45.6736242" lon="8.6974602"><ele>260.0</ele><time>2026-04-26T12:53:49.579Z</time></trkpt><trkpt lat="45.6735443" lon="8.6974255"><ele>260.0</ele><time>2026-04-26T12:53:50.577Z</time></trkpt><trkpt lat="45.6734627" lon="8.697385"><ele>260.0</ele><time>2026-04-26T12:53:51.579Z</time></trkpt><trkpt lat="45.6733856" lon="8.6973431"><ele>260.2</ele><time>2026-04-26T12:53:52.577Z</time></trkpt><trkpt lat="45.6733033" lon="8.6972938"><ele>260.4</ele><time>2026-04-26T12:53:53.578Z</time></trkpt><trkpt lat="45.673236" lon="8.6972662"><ele>260.6</ele><time>2026-04-26T12:53:54.579Z</time></trkpt><trkpt lat="45.6730647" lon="8.6971714"><ele>260.8</ele><time>2026-04-26T12:53:57.577Z</time></trkpt><trkpt lat="45.6730035" lon="8.697127"><ele>261.0</ele><time>2026-04-26T12:53:58.578Z</time></trkpt><trkpt lat="45.6729378" lon="8.6970785"><ele>261.0</ele><time>2026-04-26T12:53:59.577Z</time></trkpt><trkpt lat="45.6728696" lon="8.6970209"><ele>261.0</ele><time>2026-04-26T12:54:00.58Z</time></trkpt><trkpt lat="45.6728009" lon="8.6969565"><ele>261.0</ele><time>2026-04-26T12:54:01.578Z</time></trkpt><trkpt lat="45.6727314" lon="8.6968903"><ele>261.0</ele><time>2026-04-26T12:54:02.578Z</time></trkpt><trkpt lat="45.6726589" lon="8.6968287"><ele>261.0</ele><time>2026-04-26T12:54:03.578Z</time></trkpt><trkpt lat="45.6725816" lon="8.6967706"><ele>261.0</ele><time>2026-04-26T12:54:04.577Z</time></trkpt><trkpt lat="45.6724958" lon="8.6967097"><ele>259.8</ele><time>2026-04-26T12:54:05.577Z</time></trkpt><trkpt lat="45.6724039" lon="8.696645"><ele>258.6</ele><time>2026-04-26T12:54:06.578Z</time></trkpt><trkpt lat="45.6723123" lon="8.6965798"><ele>257.4</ele><time>2026-04-26T12:54:07.579Z</time></trkpt><trkpt lat="45.6722157" lon="8.69652"><ele>256.2</ele><time>2026-04-26T12:54:08.577Z</time></trkpt><trkpt lat="45.6721183" lon="8.6964585"><ele>255.0</ele><time>2026-04-26T12:54:09.578Z</time></trkpt><trkpt lat="45.672015" lon="8.6964108"><ele>254.4</ele><time>2026-04-26T12:54:10.578Z</time></trkpt><trkpt lat="45.6719112" lon="8.6963831"><ele>253.8</ele><time>2026-04-26T12:54:11.579Z</time></trkpt><trkpt lat="45.6718049" lon="8.696368"><ele>253.2</ele><time>2026-04-26T12:54:12.577Z</time></trkpt><trkpt lat="45.6717027" lon="8.6963863"><ele>252.6</ele><time>2026-04-26T12:54:13.578Z</time></trkpt><trkpt lat="45.6716021" lon="8.6963943"><ele>252.0</ele><time>2026-04-26T12:54:14.579Z</time></trkpt><trkpt lat="45.6714953" lon="8.6964113"><ele>252.0</ele><time>2026-04-26T12:54:15.579Z</time></trkpt><trkpt lat="45.6713897" lon="8.6964324"><ele>252.0</ele><time>2026-04-26T12:54:16.578Z</time></trkpt><trkpt lat="45.6712797" lon="8.6964507"><ele>252.0</ele><time>2026-04-26T12:54:17.578Z</time></trkpt><trkpt lat="45.6711693" lon="8.6964573"><ele>252.0</ele><time>2026-04-26T12:54:18.578Z</time></trkpt><trkpt lat="45.6710567" lon="8.6964527"><ele>252.0</ele><time>2026-04-26T12:54:19.578Z</time></trkpt><trkpt lat="45.6709496" lon="8.6964335"><ele>250.2</ele><time>2026-04-26T12:54:20.577Z</time></trkpt><trkpt lat="45.6708472" lon="8.6963874"><ele>248.39999999999998</ele><time>2026-04-26T12:54:21.578Z</time></trkpt><trkpt lat="45.6707516" lon="8.6963241"><ele>246.60000000000002</ele><time>2026-04-26T12:54:22.577Z</time></trkpt><trkpt lat="45.6706599" lon="8.696257"><ele>244.8</ele><time>2026-04-26T12:54:23.577Z</time></trkpt><trkpt lat="45.6705766" lon="8.6961828"><ele>243.0</ele><time>2026-04-26T12:54:24.577Z</time></trkpt><trkpt lat="45.6704938" lon="8.6961128"><ele>242.60000000000002</ele><time>2026-04-26T12:54:25.578Z</time></trkpt><trkpt lat="45.6704135" lon="8.6960439"><ele>242.20000000000002</ele><time>2026-04-26T12:54:26.578Z</time></trkpt><trkpt lat="45.6703322" lon="8.6959786"><ele>241.8</ele><time>2026-04-26T12:54:27.579Z</time></trkpt><trkpt lat="45.6702532" lon="8.6959145"><ele>241.4</ele><time>2026-04-26T12:54:28.578Z</time></trkpt><trkpt lat="45.6701737" lon="8.6958517"><ele>241.0</ele><time>2026-04-26T12:54:29.577Z</time></trkpt><trkpt lat="45.6700967" lon="8.6957906"><ele>240.99999999999997</ele><time>2026-04-26T12:54:30.579Z</time></trkpt><trkpt lat="45.6700128" lon="8.6957355"><ele>241.0</ele><time>2026-04-26T12:54:31.579Z</time></trkpt><trkpt lat="45.6699341" lon="8.6956753"><ele>241.0</ele><time>2026-04-26T12:54:32.578Z</time></trkpt><trkpt lat="45.6698574" lon="8.6956247"><ele>241.0</ele><time>2026-04-26T12:54:33.579Z</time></trkpt><trkpt lat="45.6697746" lon="8.6955989"><ele>240.99999999999997</ele><time>2026-04-26T12:54:34.577Z</time></trkpt><trkpt lat="45.6696899" lon="8.6955817"><ele>241.0</ele><time>2026-04-26T12:54:35.578Z</time></trkpt><trkpt lat="45.6696018" lon="8.6955782"><ele>240.99999999999997</ele><time>2026-04-26T12:54:36.579Z</time></trkpt><trkpt lat="45.6695198" lon="8.695587"><ele>241.0</ele><time>2026-04-26T12:54:37.578Z</time></trkpt><trkpt lat="45.6694379" lon="8.6956062"><ele>241.0</ele><time>2026-04-26T12:54:38.579Z</time></trkpt><trkpt lat="45.6693542" lon="8.6956305"><ele>241.0</ele><time>2026-04-26T12:54:39.577Z</time></trkpt><trkpt lat="45.6692753" lon="8.6956456"><ele>240.99999999999997</ele><time>2026-04-26T12:54:40.577Z</time></trkpt><trkpt lat="45.6691944" lon="8.6956859"><ele>241.0</ele><time>2026-04-26T12:54:41.578Z</time></trkpt><trkpt lat="45.6691186" lon="8.6957096"><ele>240.33333333333331</ele><time>2026-04-26T12:54:42.578Z</time></trkpt><trkpt lat="45.6690413" lon="8.6957309"><ele>239.66666666666666</ele><time>2026-04-26T12:54:43.577Z</time></trkpt><trkpt lat="45.6689628" lon="8.6957532"><ele>239.0</ele><time>2026-04-26T12:54:44.578Z</time></trkpt><trkpt lat="45.6688856" lon="8.6957813"><ele>238.33333333333331</ele><time>2026-04-26T12:54:45.577Z</time></trkpt><trkpt lat="45.6688131" lon="8.6958159"><ele>237.66666666666666</ele><time>2026-04-26T12:54:46.578Z</time></trkpt><trkpt lat="45.6687398" lon="8.6958314"><ele>237.0</ele><time>2026-04-26T12:54:47.578Z</time></trkpt><trkpt lat="45.6686702" lon="8.6958507"><ele>236.85714285714283</ele><time>2026-04-26T12:54:48.578Z</time></trkpt><trkpt lat="45.6685988" lon="8.6958733"><ele>236.71428571428572</ele><time>2026-04-26T12:54:49.578Z</time></trkpt><trkpt lat="45.6685262" lon="8.6958932"><ele>236.57142857142856</ele><time>2026-04-26T12:54:50.578Z</time></trkpt><trkpt lat="45.6684543" lon="8.6959243"><ele>236.42857142857142</ele><time>2026-04-26T12:54:51.577Z</time></trkpt><trkpt lat="45.6683863" lon="8.6959522"><ele>236.28571428571428</ele><time>2026-04-26T12:54:52.578Z</time></trkpt><trkpt lat="45.6683158" lon="8.6959719"><ele>236.14285714285714</ele><time>2026-04-26T12:54:53.578Z</time></trkpt><trkpt lat="45.6682443" lon="8.6959847"><ele>236.0</ele><time>2026-04-26T12:54:54.577Z</time></trkpt><trkpt lat="45.6681761" lon="8.6960088"><ele>236.00000000000003</ele><time>2026-04-26T12:54:55.577Z</time></trkpt><trkpt lat="45.6681095" lon="8.6960289"><ele>236.0</ele><time>2026-04-26T12:54:56.577Z</time></trkpt><trkpt lat="45.6680416" lon="8.6960439"><ele>236.0</ele><time>2026-04-26T12:54:57.578Z</time></trkpt><trkpt lat="45.6679751" lon="8.6960597"><ele>236.0</ele><time>2026-04-26T12:54:58.577Z</time></trkpt><trkpt lat="45.6679112" lon="8.6960719"><ele>236.00000000000003</ele><time>2026-04-26T12:54:59.578Z</time></trkpt><trkpt lat="45.6678485" lon="8.6960872"><ele>236.0</ele><time>2026-04-26T12:55:00.577Z</time></trkpt><trkpt lat="45.6677228" lon="8.6961141"><ele>236.8</ele><time>2026-04-26T12:55:02.579Z</time></trkpt><trkpt lat="45.6676568" lon="8.696125"><ele>237.60000000000002</ele><time>2026-04-26T12:55:03.578Z</time></trkpt><trkpt lat="45.6675902" lon="8.6961249"><ele>238.4</ele><time>2026-04-26T12:55:04.577Z</time></trkpt><trkpt lat="45.6674722" lon="8.6961363"><ele>239.2</ele><time>2026-04-26T12:55:06.578Z</time></trkpt><trkpt lat="45.6673552" lon="8.6961658"><ele>240.0</ele><time>2026-04-26T12:55:08.577Z</time></trkpt><trkpt lat="45.6672535" lon="8.6961818"><ele>240.0</ele><time>2026-04-26T12:55:10.577Z</time></trkpt><trkpt lat="45.6671909" lon="8.6961175"><ele>240.0</ele><time>2026-04-26T12:55:12.579Z</time></trkpt><trkpt lat="45.6671716" lon="8.6959999"><ele>240.0</ele><time>2026-04-26T12:55:14.578Z</time></trkpt><trkpt lat="45.6671794" lon="8.6958754"><ele>240.0</ele><time>2026-04-26T12:55:16.578Z</time></trkpt><trkpt lat="45.6671867" lon="8.6957744"><ele>240.0</ele><time>2026-04-26T12:55:18.578Z</time></trkpt><trkpt lat="45.6671968" lon="8.6956649"><ele>240.0</ele><time>2026-04-26T12:55:20.578Z</time></trkpt><trkpt lat="45.6671989" lon="8.6955324"><ele>240.33333333333334</ele><time>2026-04-26T12:55:23.578Z</time></trkpt><trkpt lat="45.6671971" lon="8.6954363"><ele>240.66666666666669</ele><time>2026-04-26T12:55:25.577Z</time></trkpt><trkpt lat="45.6672005" lon="8.695345"><ele>241.0</ele><time>2026-04-26T12:55:27.578Z</time></trkpt><trkpt lat="45.667181" lon="8.6954772"><ele>241.33333333333334</ele><time>2026-04-26T12:57:13.578Z</time></trkpt><trkpt lat="45.6671851" lon="8.6955812"><ele>241.66666666666669</ele><time>2026-04-26T12:57:15.578Z</time></trkpt><trkpt lat="45.6671887" lon="8.6956929"><ele>242.0</ele><time>2026-04-26T12:57:17.577Z</time></trkpt><trkpt lat="45.6671952" lon="8.6958079"><ele>242.00000000000003</ele><time>2026-04-26T12:57:19.578Z</time></trkpt><trkpt lat="45.6671918" lon="8.6959485"><ele>242.0</ele><time>2026-04-26T12:57:21.578Z</time></trkpt><trkpt lat="45.6672136" lon="8.6960637"><ele>242.0</ele><time>2026-04-26T12:57:23.578Z</time></trkpt><trkpt lat="45.6671985" lon="8.6961657"><ele>242.0</ele><time>2026-04-26T12:57:25.578Z</time></trkpt><trkpt lat="45.6671178" lon="8.6962236"><ele>242.00000000000003</ele><time>2026-04-26T12:57:27.577Z</time></trkpt><trkpt lat="45.6670155" lon="8.6962383"><ele>242.0</ele><time>2026-04-26T12:57:29.579Z</time></trkpt><trkpt lat="45.6669167" lon="8.6962498"><ele>241.39999999999998</ele><time>2026-04-26T12:57:31.577Z</time></trkpt><trkpt lat="45.6668172" lon="8.6962624"><ele>240.79999999999998</ele><time>2026-04-26T12:57:33.579Z</time></trkpt><trkpt lat="45.6667281" lon="8.6962998"><ele>240.2</ele><time>2026-04-26T12:57:35.577Z</time></trkpt><trkpt lat="45.6666301" lon="8.6963268"><ele>239.6</ele><time>2026-04-26T12:57:37.577Z</time></trkpt><trkpt lat="45.6665302" lon="8.696355"><ele>239.0</ele><time>2026-04-26T12:57:39.577Z</time></trkpt><trkpt lat="45.6664304" lon="8.6963864"><ele>239.0</ele><time>2026-04-26T12:57:41.578Z</time></trkpt><trkpt lat="45.6663357" lon="8.6963983"><ele>238.99999999999997</ele><time>2026-04-26T12:57:43.578Z</time></trkpt><trkpt lat="45.6662355" lon="8.6964295"><ele>238.99999999999997</ele><time>2026-04-26T12:57:45.576Z</time></trkpt><trkpt lat="45.666139" lon="8.6964409"><ele>239.0</ele><time>2026-04-26T12:57:47.578Z</time></trkpt><trkpt lat="45.6660415" lon="8.6964242"><ele>239.0</ele><time>2026-04-26T12:57:49.579Z</time></trkpt><trkpt lat="45.6659412" lon="8.6964415"><ele>239.2</ele><time>2026-04-26T12:57:51.579Z</time></trkpt><trkpt lat="45.6658441" lon="8.6964551"><ele>239.39999999999998</ele><time>2026-04-26T12:57:53.578Z</time></trkpt><trkpt lat="45.6657368" lon="8.6964571"><ele>239.6</ele><time>2026-04-26T12:57:55.577Z</time></trkpt><trkpt lat="45.6656384" lon="8.6964466"><ele>239.8</ele><time>2026-04-26T12:57:57.578Z</time></trkpt><trkpt lat="45.6655376" lon="8.6964597"><ele>240.0</ele><time>2026-04-26T12:57:59.578Z</time></trkpt><trkpt lat="45.6654279" lon="8.696478"><ele>240.0</ele><time>2026-04-26T12:58:01.577Z</time></trkpt><trkpt lat="45.6653307" lon="8.6964636"><ele>240.0</ele><time>2026-04-26T12:58:03.577Z</time></trkpt><trkpt lat="45.6652198" lon="8.6964637"><ele>240.0</ele><time>2026-04-26T12:58:05.577Z</time></trkpt><trkpt lat="45.6651085" lon="8.6964693"><ele>240.0</ele><time>2026-04-26T12:58:07.577Z</time></trkpt><trkpt lat="45.6650033" lon="8.6964704"><ele>240.0</ele><time>2026-04-26T12:58:09.577Z</time></trkpt><trkpt lat="45.6648907" lon="8.6964823"><ele>241.2</ele><time>2026-04-26T12:58:11.578Z</time></trkpt><trkpt lat="45.6647771" lon="8.6964782"><ele>242.4</ele><time>2026-04-26T12:58:13.576Z</time></trkpt><trkpt lat="45.6646616" lon="8.6964681"><ele>243.60000000000002</ele><time>2026-04-26T12:58:15.578Z</time></trkpt><trkpt lat="45.6645589" lon="8.6964197"><ele>244.8</ele><time>2026-04-26T12:58:17.577Z</time></trkpt><trkpt lat="45.6644538" lon="8.6963754"><ele>246.0</ele><time>2026-04-26T12:58:19.578Z</time></trkpt><trkpt lat="45.664346" lon="8.6963189"><ele>246.0</ele><time>2026-04-26T12:58:21.576Z</time></trkpt><trkpt lat="45.6642355" lon="8.6962689"><ele>246.00000000000003</ele><time>2026-04-26T12:58:23.576Z</time></trkpt><trkpt lat="45.6641361" lon="8.6962084"><ele>246.00000000000003</ele><time>2026-04-26T12:58:25.577Z</time></trkpt><trkpt lat="45.6640356" lon="8.6961671"><ele>246.0</ele><time>2026-04-26T12:58:27.578Z</time></trkpt><trkpt lat="45.6639304" lon="8.6961288"><ele>246.0</ele><time>2026-04-26T12:58:29.577Z</time></trkpt><trkpt lat="45.6638235" lon="8.6960742"><ele>246.0</ele><time>2026-04-26T12:58:31.576Z</time></trkpt><trkpt lat="45.6637641" lon="8.696043"><ele>246.00000000000003</ele><time>2026-04-26T12:58:32.577Z</time></trkpt><trkpt lat="45.6636587" lon="8.6959916"><ele>246.00000000000003</ele><time>2026-04-26T12:58:34.576Z</time></trkpt><trkpt lat="45.6635459" lon="8.6959621"><ele>246.0</ele><time>2026-04-26T12:58:36.577Z</time></trkpt><trkpt lat="45.6634392" lon="8.6959491"><ele>246.0</ele><time>2026-04-26T12:58:38.577Z</time></trkpt><trkpt lat="45.6633248" lon="8.6959202"><ele>246.20000000000002</ele><time>2026-04-26T12:58:40.578Z</time></trkpt><trkpt lat="45.6632185" lon="8.695887"><ele>246.40000000000003</ele><time>2026-04-26T12:58:42.577Z</time></trkpt><trkpt lat="45.6631142" lon="8.6958479"><ele>246.6</ele><time>2026-04-26T12:58:44.577Z</time></trkpt><trkpt lat="45.6630184" lon="8.6958131"><ele>246.8</ele><time>2026-04-26T12:58:46.578Z</time></trkpt><trkpt lat="45.6629097" lon="8.6957675"><ele>247.0</ele><time>2026-04-26T12:58:48.577Z</time></trkpt><trkpt lat="45.6627947" lon="8.6957056"><ele>246.5</ele><time>2026-04-26T12:58:50.577Z</time></trkpt><trkpt lat="45.6626842" lon="8.6956557"><ele>246.0</ele><time>2026-04-26T12:58:52.577Z</time></trkpt><trkpt lat="45.6625723" lon="8.6956086"><ele>245.5</ele><time>2026-04-26T12:58:54.578Z</time></trkpt><trkpt lat="45.6624744" lon="8.695561"><ele>245.0</ele><time>2026-04-26T12:58:56.576Z</time></trkpt><trkpt lat="45.6623623" lon="8.6955236"><ele>245.0</ele><time>2026-04-26T12:58:58.578Z</time></trkpt><trkpt lat="45.6622628" lon="8.6954623"><ele>245.0</ele><time>2026-04-26T12:59:00.578Z</time></trkpt><trkpt lat="45.662161" lon="8.6954083"><ele>245.0</ele><time>2026-04-26T12:59:02.577Z</time></trkpt><trkpt lat="45.6620475" lon="8.6953733"><ele>245.0</ele><time>2026-04-26T12:59:04.577Z</time></trkpt><trkpt lat="45.6619489" lon="8.6953208"><ele>245.0</ele><time>2026-04-26T12:59:06.577Z</time></trkpt><trkpt lat="45.6618876" lon="8.6952965"><ele>245.0</ele><time>2026-04-26T12:59:07.578Z</time></trkpt><trkpt lat="45.6617925" lon="8.6952389"><ele>245.0</ele><time>2026-04-26T12:59:09.577Z</time></trkpt><trkpt lat="45.6616859" lon="8.6951648"><ele>245.0</ele><time>2026-04-26T12:59:11.576Z</time></trkpt><trkpt lat="45.661577" lon="8.6951527"><ele>245.0</ele><time>2026-04-26T12:59:13.576Z</time></trkpt><trkpt lat="45.6614775" lon="8.6950987"><ele>245.0</ele><time>2026-04-26T12:59:15.579Z</time></trkpt><trkpt lat="45.6614138" lon="8.6950505"><ele>245.00000000000003</ele><time>2026-04-26T12:59:17.577Z</time></trkpt><trkpt lat="45.6613333" lon="8.6950412"><ele>245.0</ele><time>2026-04-26T12:59:54.576Z</time></trkpt><trkpt lat="45.6612993" lon="8.6949408"><ele>245.0</ele><time>2026-04-26T12:59:56.576Z</time></trkpt><trkpt lat="45.6612111" lon="8.6948979"><ele>245.0</ele><time>2026-04-26T12:59:58.578Z</time></trkpt><trkpt lat="45.6611468" lon="8.6948753"><ele>245.00000000000003</ele><time>2026-04-26T12:59:59.577Z</time></trkpt><trkpt lat="45.6610802" lon="8.6948493"><ele>245.0</ele><time>2026-04-26T13:00:00.578Z</time></trkpt><trkpt lat="45.6609662" lon="8.6948054"><ele>244.8</ele><time>2026-04-26T13:00:02.577Z</time></trkpt><trkpt lat="45.6608858" lon="8.6947991"><ele>244.6</ele><time>2026-04-26T13:00:04.577Z</time></trkpt><trkpt lat="45.6608216" lon="8.69476"><ele>244.39999999999998</ele><time>2026-04-26T13:00:05.578Z</time></trkpt><trkpt lat="45.6607084" lon="8.6947122"><ele>244.2</ele><time>2026-04-26T13:00:07.577Z</time></trkpt><trkpt lat="45.6606465" lon="8.6946805"><ele>244.0</ele><time>2026-04-26T13:00:08.578Z</time></trkpt><trkpt lat="45.660528" lon="8.6946118"><ele>244.0</ele><time>2026-04-26T13:00:10.577Z</time></trkpt><trkpt lat="45.6604233" lon="8.6945459"><ele>243.99999999999997</ele><time>2026-04-26T13:00:12.577Z</time></trkpt><trkpt lat="45.6603052" lon="8.6944775"><ele>243.99999999999997</ele><time>2026-04-26T13:00:14.577Z</time></trkpt><trkpt lat="45.660199" lon="8.6944294"><ele>244.0</ele><time>2026-04-26T13:00:16.577Z</time></trkpt><trkpt lat="45.6601412" lon="8.6943709"><ele>244.0</ele><time>2026-04-26T13:00:17.578Z</time></trkpt><trkpt lat="45.6600556" lon="8.6943171"><ele>243.6</ele><time>2026-04-26T13:00:19.578Z</time></trkpt><trkpt lat="45.6599881" lon="8.6942806"><ele>243.2</ele><time>2026-04-26T13:00:20.578Z</time></trkpt><trkpt lat="45.659893" lon="8.6942482"><ele>242.79999999999998</ele><time>2026-04-26T13:00:22.577Z</time></trkpt><trkpt lat="45.6597925" lon="8.6942171"><ele>242.39999999999998</ele><time>2026-04-26T13:00:24.576Z</time></trkpt><trkpt lat="45.6597009" lon="8.6941744"><ele>242.0</ele><time>2026-04-26T13:00:26.577Z</time></trkpt><trkpt lat="45.6596148" lon="8.694124"><ele>242.0</ele><time>2026-04-26T13:00:28.577Z</time></trkpt><trkpt lat="45.6595235" lon="8.6940578"><ele>242.0</ele><time>2026-04-26T13:00:30.576Z</time></trkpt><trkpt lat="45.6594257" lon="8.6940135"><ele>242.0</ele><time>2026-04-26T13:00:32.576Z</time></trkpt><trkpt lat="45.6593296" lon="8.6939782"><ele>242.0</ele><time>2026-04-26T13:00:34.578Z</time></trkpt><trkpt lat="45.6592394" lon="8.6939199"><ele>242.0</ele><time>2026-04-26T13:00:36.576Z</time></trkpt><trkpt lat="45.6591717" lon="8.6938393"><ele>242.16666666666669</ele><time>2026-04-26T13:00:38.578Z</time></trkpt><trkpt lat="45.6591242" lon="8.6937682"><ele>242.33333333333334</ele><time>2026-04-26T13:00:40.577Z</time></trkpt><trkpt lat="45.6590457" lon="8.6936748"><ele>242.5</ele><time>2026-04-26T13:00:42.577Z</time></trkpt><trkpt lat="45.6589616" lon="8.6936401"><ele>242.66666666666669</ele><time>2026-04-26T13:00:44.576Z</time></trkpt><trkpt lat="45.6588985" lon="8.6936211"><ele>242.83333333333334</ele><time>2026-04-26T13:00:45.576Z</time></trkpt><trkpt lat="45.6588341" lon="8.6935745"><ele>243.0</ele><time>2026-04-26T13:00:47.577Z</time></trkpt><trkpt lat="45.6587483" lon="8.6935478"><ele>242.8</ele><time>2026-04-26T13:00:49.577Z</time></trkpt><trkpt lat="45.658643" lon="8.6935195"><ele>242.60000000000002</ele><time>2026-04-26T13:00:51.576Z</time></trkpt><trkpt lat="45.6585629" lon="8.6934594"><ele>242.39999999999998</ele><time>2026-04-26T13:00:53.577Z</time></trkpt><trkpt lat="45.6584702" lon="8.6934289"><ele>242.2</ele><time>2026-04-26T13:00:55.576Z</time></trkpt><trkpt lat="45.6583788" lon="8.6933067"><ele>242.0</ele><time>2026-04-26T13:00:57.576Z</time></trkpt><trkpt lat="45.658296" lon="8.6932485"><ele>242.00000000000003</ele><time>2026-04-26T13:00:59.578Z</time></trkpt><trkpt lat="45.6582157" lon="8.6931997"><ele>242.0</ele><time>2026-04-26T13:01:01.577Z</time></trkpt><trkpt lat="45.6581359" lon="8.6931472"><ele>242.0</ele><time>2026-04-26T13:01:03.576Z</time></trkpt><trkpt lat="45.658052" lon="8.6930999"><ele>242.0</ele><time>2026-04-26T13:01:05.577Z</time></trkpt><trkpt lat="45.6579889" lon="8.6930827"><ele>242.00000000000003</ele><time>2026-04-26T13:01:20.577Z</time></trkpt><trkpt lat="45.657914" lon="8.6930403"><ele>242.0</ele><time>2026-04-26T13:01:24.576Z</time></trkpt><trkpt lat="45.6578368" lon="8.6930045"><ele>242.8</ele><time>2026-04-26T13:01:26.577Z</time></trkpt><trkpt lat="45.6577696" lon="8.6929723"><ele>243.6</ele><time>2026-04-26T13:01:27.577Z</time></trkpt><trkpt lat="45.6576716" lon="8.692925"><ele>244.40000000000003</ele><time>2026-04-26T13:01:29.577Z</time></trkpt><trkpt lat="45.6575679" lon="8.6928796"><ele>245.20000000000002</ele><time>2026-04-26T13:01:31.576Z</time></trkpt><trkpt lat="45.6574737" lon="8.6928169"><ele>246.0</ele><time>2026-04-26T13:01:33.578Z</time></trkpt><trkpt lat="45.6573802" lon="8.6927746"><ele>245.16666666666666</ele><time>2026-04-26T13:01:35.577Z</time></trkpt><trkpt lat="45.65729" lon="8.6927045"><ele>244.33333333333331</ele><time>2026-04-26T13:01:37.577Z</time></trkpt><trkpt lat="45.6572033" lon="8.6926238"><ele>243.5</ele><time>2026-04-26T13:01:39.576Z</time></trkpt><trkpt lat="45.6571075" lon="8.6925776"><ele>242.66666666666666</ele><time>2026-04-26T13:01:41.577Z</time></trkpt><trkpt lat="45.6570388" lon="8.6925273"><ele>241.83333333333331</ele><time>2026-04-26T13:01:43.577Z</time></trkpt><trkpt lat="45.6569774" lon="8.6924971"><ele>241.0</ele><time>2026-04-26T13:01:45.576Z</time></trkpt><trkpt lat="45.6569046" lon="8.6925131"><ele>240.99999999999997</ele><time>2026-04-26T13:01:51.576Z</time></trkpt><trkpt lat="45.6568758" lon="8.6924232"><ele>241.0</ele><time>2026-04-26T13:01:56.576Z</time></trkpt><trkpt lat="45.6568397" lon="8.69231"><ele>241.0</ele><time>2026-04-26T13:02:00.577Z</time></trkpt><trkpt lat="45.656797" lon="8.6922324"><ele>241.0</ele><time>2026-04-26T13:02:02.577Z</time></trkpt><trkpt lat="45.6567461" lon="8.692108"><ele>240.99999999999997</ele><time>2026-04-26T13:02:05.576Z</time></trkpt><trkpt lat="45.6567156" lon="8.6919942"><ele>241.0</ele><time>2026-04-26T13:02:07.577Z</time></trkpt><trkpt lat="45.6566785" lon="8.6918869"><ele>238.83333333333331</ele><time>2026-04-26T13:02:09.577Z</time></trkpt><trkpt lat="45.6566304" lon="8.691816"><ele>236.66666666666666</ele><time>2026-04-26T13:02:11.578Z</time></trkpt><trkpt lat="45.6565713" lon="8.6917575"><ele>234.5</ele><time>2026-04-26T13:02:13.578Z</time></trkpt><trkpt lat="45.6565027" lon="8.6916862"><ele>232.33333333333331</ele><time>2026-04-26T13:02:15.578Z</time></trkpt><trkpt lat="45.6564286" lon="8.6916064"><ele>230.16666666666666</ele><time>2026-04-26T13:02:17.577Z</time></trkpt><trkpt lat="45.6563714" lon="8.6915664"><ele>228.0</ele><time>2026-04-26T13:02:19.576Z</time></trkpt><trkpt lat="45.6563003" lon="8.6914546"><ele>228.0</ele><time>2026-04-26T13:02:21.576Z</time></trkpt><trkpt lat="45.6562397" lon="8.6913635"><ele>228.0</ele><time>2026-04-26T13:02:23.576Z</time></trkpt><trkpt lat="45.656183" lon="8.6912572"><ele>228.0</ele><time>2026-04-26T13:02:25.577Z</time></trkpt><trkpt lat="45.6561855" lon="8.6911613"><ele>228.0</ele><time>2026-04-26T13:02:27.576Z</time></trkpt><trkpt lat="45.656159" lon="8.6910438"><ele>228.0</ele><time>2026-04-26T13:02:30.577Z</time></trkpt><trkpt lat="45.6560881" lon="8.6910108"><ele>228.0</ele><time>2026-04-26T13:02:33.578Z</time></trkpt><trkpt lat="45.6560142" lon="8.6909603"><ele>226.66666666666666</ele><time>2026-04-26T13:02:37.577Z</time></trkpt><trkpt lat="45.6559564" lon="8.6908916"><ele>225.33333333333331</ele><time>2026-04-26T13:02:40.576Z</time></trkpt><trkpt lat="45.6559002" lon="8.6908355"><ele>224.0</ele><time>2026-04-26T13:02:42.577Z</time></trkpt><trkpt lat="45.6558224" lon="8.6907694"><ele>222.66666666666666</ele><time>2026-04-26T13:02:45.578Z</time></trkpt><trkpt lat="45.6557635" lon="8.6907338"><ele>221.33333333333331</ele><time>2026-04-26T13:02:47.576Z</time></trkpt><trkpt lat="45.6556689" lon="8.6906889"><ele>220.0</ele><time>2026-04-26T13:02:50.577Z</time></trkpt><trkpt lat="45.6556007" lon="8.6906064"><ele>219.99999999999997</ele><time>2026-04-26T13:02:53.577Z</time></trkpt><trkpt lat="45.6555261" lon="8.6905615"><ele>220.0</ele><time>2026-04-26T13:02:56.576Z</time></trkpt><trkpt lat="45.6554524" lon="8.6905024"><ele>220.0</ele><time>2026-04-26T13:02:59.577Z</time></trkpt><trkpt lat="45.655405" lon="8.6904335"><ele>220.0</ele><time>2026-04-26T13:03:01.576Z</time></trkpt><trkpt lat="45.6553741" lon="8.6903268"><ele>219.99999999999997</ele><time>2026-04-26T13:03:03.577Z</time></trkpt><trkpt lat="45.6553446" lon="8.6902239"><ele>220.0</ele><time>2026-04-26T13:03:05.577Z</time></trkpt><trkpt lat="45.6553024" lon="8.6900875"><ele>218.2</ele><time>2026-04-26T13:03:07.576Z</time></trkpt><trkpt lat="45.6552446" lon="8.6899712"><ele>216.4</ele><time>2026-04-26T13:03:09.578Z</time></trkpt><trkpt lat="45.6551865" lon="8.6898313"><ele>214.60000000000002</ele><time>2026-04-26T13:03:11.576Z</time></trkpt><trkpt lat="45.6551669" lon="8.6896493"><ele>212.8</ele><time>2026-04-26T13:03:13.577Z</time></trkpt><trkpt lat="45.655149" lon="8.6895629"><ele>211.0</ele><time>2026-04-26T13:03:14.576Z</time></trkpt><trkpt lat="45.6550984" lon="8.6893768"><ele>210.33333333333331</ele><time>2026-04-26T13:03:16.577Z</time></trkpt><trkpt lat="45.6550869" lon="8.6892777"><ele>209.66666666666666</ele><time>2026-04-26T13:03:17.576Z</time></trkpt><trkpt lat="45.6550816" lon="8.6891743"><ele>209.0</ele><time>2026-04-26T13:03:18.578Z</time></trkpt><trkpt lat="45.6550796" lon="8.6890663"><ele>208.33333333333331</ele><time>2026-04-26T13:03:19.576Z</time></trkpt><trkpt lat="45.6550874" lon="8.6889656"><ele>207.66666666666666</ele><time>2026-04-26T13:03:20.576Z</time></trkpt><trkpt lat="45.6551381" lon="8.6888126"><ele>207.0</ele><time>2026-04-26T13:03:22.577Z</time></trkpt><trkpt lat="45.6551711" lon="8.688694"><ele>206.0</ele><time>2026-04-26T13:03:24.576Z</time></trkpt><trkpt lat="45.6551628" lon="8.6885555"><ele>205.0</ele><time>2026-04-26T13:03:26.576Z</time></trkpt><trkpt lat="45.6551422" lon="8.688421"><ele>204.0</ele><time>2026-04-26T13:03:28.577Z</time></trkpt><trkpt lat="45.6550892" lon="8.6882827"><ele>203.0</ele><time>2026-04-26T13:03:30.578Z</time></trkpt><trkpt lat="45.6550329" lon="8.6881395"><ele>202.0</ele><time>2026-04-26T13:03:32.576Z</time></trkpt><trkpt lat="45.6549727" lon="8.6879975"><ele>202.0</ele><time>2026-04-26T13:03:34.576Z</time></trkpt><trkpt lat="45.6549454" lon="8.6879027"><ele>202.0</ele><time>2026-04-26T13:03:35.578Z</time></trkpt><trkpt lat="45.6548995" lon="8.6877458"><ele>202.0</ele><time>2026-04-26T13:03:37.578Z</time></trkpt><trkpt lat="45.6548732" lon="8.687647"><ele>202.0</ele><time>2026-04-26T13:03:38.578Z</time></trkpt><trkpt lat="45.6548082" lon="8.6874977"><ele>202.0</ele><time>2026-04-26T13:03:40.578Z</time></trkpt><trkpt lat="45.6547789" lon="8.6874171"><ele>201.2</ele><time>2026-04-26T13:03:41.577Z</time></trkpt><trkpt lat="45.65473" lon="8.6872888"><ele>200.39999999999998</ele><time>2026-04-26T13:03:43.576Z</time></trkpt><trkpt lat="45.6546965" lon="8.6871557"><ele>199.60000000000002</ele><time>2026-04-26T13:03:45.578Z</time></trkpt><trkpt lat="45.6546576" lon="8.6870399"><ele>198.8</ele><time>2026-04-26T13:03:47.578Z</time></trkpt><trkpt lat="45.654597" lon="8.6869433"><ele>198.0</ele><time>2026-04-26T13:03:49.577Z</time></trkpt><trkpt lat="45.6545419" lon="8.6868478"><ele>197.66666666666666</ele><time>2026-04-26T13:03:51.576Z</time></trkpt><trkpt lat="45.6544784" lon="8.6867535"><ele>197.33333333333331</ele><time>2026-04-26T13:03:53.577Z</time></trkpt><trkpt lat="45.6544342" lon="8.6866479"><ele>197.0</ele><time>2026-04-26T13:03:55.576Z</time></trkpt><trkpt lat="45.6543998" lon="8.6865636"><ele>196.66666666666666</ele><time>2026-04-26T13:04:14.576Z</time></trkpt><trkpt lat="45.6543919" lon="8.6864624"><ele>196.33333333333331</ele><time>2026-04-26T13:04:19.577Z</time></trkpt><trkpt lat="45.6543705" lon="8.6863658"><ele>196.0</ele><time>2026-04-26T13:04:25.576Z</time></trkpt><trkpt lat="45.654333" lon="8.6862843"><ele>195.16666666666666</ele><time>2026-04-26T13:04:32.576Z</time></trkpt><trkpt lat="45.6543773" lon="8.6863679"><ele>194.33333333333331</ele><time>2026-04-26T13:05:05.577Z</time></trkpt><trkpt lat="45.6543906" lon="8.6864642"><ele>193.5</ele><time>2026-04-26T13:05:09.649Z</time></trkpt><trkpt lat="45.6544061" lon="8.6865517"><ele>192.66666666666666</ele><time>2026-04-26T13:05:14.579Z</time></trkpt><trkpt lat="45.6543536" lon="8.6864617"><ele>191.83333333333331</ele><time>2026-04-26T13:05:47.543Z</time></trkpt><trkpt lat="45.6543329" lon="8.6863274"><ele>191.0</ele><time>2026-04-26T13:05:48.575Z</time></trkpt><trkpt lat="45.6542947" lon="8.686234"><ele>190.4</ele><time>2026-04-26T13:05:49.584Z</time></trkpt><trkpt lat="45.6542504" lon="8.6860705"><ele>189.8</ele><time>2026-04-26T13:05:51.581Z</time></trkpt><trkpt lat="45.654231" lon="8.6859845"><ele>189.20000000000002</ele><time>2026-04-26T13:05:54.579Z</time></trkpt><trkpt lat="45.6541653" lon="8.6859405"><ele>188.60000000000002</ele><time>2026-04-26T13:05:58.578Z</time></trkpt><trkpt lat="45.6540702" lon="8.6859323"><ele>188.0</ele><time>2026-04-26T13:06:00.581Z</time></trkpt><trkpt lat="45.6539569" lon="8.6860028"><ele>188.0</ele><time>2026-04-26T13:06:02.582Z</time></trkpt><trkpt lat="45.6538968" lon="8.6860418"><ele>188.0</ele><time>2026-04-26T13:06:03.581Z</time></trkpt><trkpt lat="45.6538315" lon="8.6860846"><ele>188.0</ele><time>2026-04-26T13:06:04.575Z</time></trkpt><trkpt lat="45.6537633" lon="8.68613"><ele>188.0</ele><time>2026-04-26T13:06:05.571Z</time></trkpt><trkpt lat="45.6536916" lon="8.6861792"><ele>188.0</ele><time>2026-04-26T13:06:06.572Z</time></trkpt><trkpt lat="45.6536188" lon="8.68623"><ele>188.0</ele><time>2026-04-26T13:06:07.579Z</time></trkpt><trkpt lat="45.6535405" lon="8.6862825"><ele>188.2</ele><time>2026-04-26T13:06:08.575Z</time></trkpt><trkpt lat="45.6534602" lon="8.6863333"><ele>188.4</ele><time>2026-04-26T13:06:09.576Z</time></trkpt><trkpt lat="45.6533789" lon="8.6863831"><ele>188.6</ele><time>2026-04-26T13:06:10.581Z</time></trkpt><trkpt lat="45.6532938" lon="8.6864341"><ele>188.79999999999998</ele><time>2026-04-26T13:06:11.577Z</time></trkpt><trkpt lat="45.6532096" lon="8.6864889"><ele>189.0</ele><time>2026-04-26T13:06:12.572Z</time></trkpt><trkpt lat="45.6531239" lon="8.686541"><ele>189.0</ele><time>2026-04-26T13:06:13.58Z</time></trkpt><trkpt lat="45.6530368" lon="8.6865885"><ele>189.0</ele><time>2026-04-26T13:06:14.582Z</time></trkpt><trkpt lat="45.6529495" lon="8.6866329"><ele>189.0</ele><time>2026-04-26T13:06:15.576Z</time></trkpt><trkpt lat="45.6528616" lon="8.6866793"><ele>189.0</ele><time>2026-04-26T13:06:16.579Z</time></trkpt><trkpt lat="45.6527725" lon="8.6867221"><ele>189.0</ele><time>2026-04-26T13:06:17.583Z</time></trkpt><trkpt lat="45.6526832" lon="8.6867597"><ele>188.6</ele><time>2026-04-26T13:06:18.583Z</time></trkpt><trkpt lat="45.6525926" lon="8.6868083"><ele>188.2</ele><time>2026-04-26T13:06:19.574Z</time></trkpt><trkpt lat="45.6525059" lon="8.6868622"><ele>187.79999999999998</ele><time>2026-04-26T13:06:20.575Z</time></trkpt><trkpt lat="45.6524193" lon="8.6869178"><ele>187.39999999999998</ele><time>2026-04-26T13:06:21.574Z</time></trkpt><trkpt lat="45.6523335" lon="8.6869769"><ele>187.0</ele><time>2026-04-26T13:06:22.575Z</time></trkpt><trkpt lat="45.6522527" lon="8.6870326"><ele>187.0</ele><time>2026-04-26T13:06:23.572Z</time></trkpt><trkpt lat="45.6521643" lon="8.6870949"><ele>187.0</ele><time>2026-04-26T13:06:24.58Z</time></trkpt><trkpt lat="45.652084" lon="8.6871578"><ele>187.0</ele><time>2026-04-26T13:06:25.578Z</time></trkpt><trkpt lat="45.6519982" lon="8.6872248"><ele>187.0</ele><time>2026-04-26T13:06:26.577Z</time></trkpt><trkpt lat="45.6519213" lon="8.6872823"><ele>187.0</ele><time>2026-04-26T13:06:27.582Z</time></trkpt><trkpt lat="45.6518428" lon="8.6873483"><ele>186.0</ele><time>2026-04-26T13:06:28.576Z</time></trkpt><trkpt lat="45.6517672" lon="8.6874173"><ele>185.0</ele><time>2026-04-26T13:06:29.582Z</time></trkpt><trkpt lat="45.6516914" lon="8.6874963"><ele>184.0</ele><time>2026-04-26T13:06:30.571Z</time></trkpt><trkpt lat="45.6516234" lon="8.6875586"><ele>183.0</ele><time>2026-04-26T13:06:31.576Z</time></trkpt><trkpt lat="45.6515364" lon="8.6875762"><ele>182.0</ele><time>2026-04-26T13:06:32.574Z</time></trkpt><trkpt lat="45.6514578" lon="8.6875704"><ele>181.0</ele><time>2026-04-26T13:06:33.572Z</time></trkpt><trkpt lat="45.6513794" lon="8.6875261"><ele>181.0</ele><time>2026-04-26T13:06:34.573Z</time></trkpt><trkpt lat="45.6513108" lon="8.6874585"><ele>181.0</ele><time>2026-04-26T13:06:35.573Z</time></trkpt><trkpt lat="45.6512387" lon="8.6873976"><ele>181.0</ele><time>2026-04-26T13:06:36.571Z</time></trkpt><trkpt lat="45.651167" lon="8.6873424"><ele>181.0</ele><time>2026-04-26T13:06:37.582Z</time></trkpt><trkpt lat="45.6511026" lon="8.6872834"><ele>181.0</ele><time>2026-04-26T13:06:38.58Z</time></trkpt><trkpt lat="45.6510346" lon="8.6872246"><ele>181.0</ele><time>2026-04-26T13:06:39.576Z</time></trkpt><trkpt lat="45.6509737" lon="8.6871684"><ele>181.0</ele><time>2026-04-26T13:06:40.581Z</time></trkpt><trkpt lat="45.6509124" lon="8.6871214"><ele>181.0</ele><time>2026-04-26T13:06:41.583Z</time></trkpt><trkpt lat="45.6508534" lon="8.6870823"><ele>181.0</ele><time>2026-04-26T13:06:42.582Z</time></trkpt><trkpt lat="45.650742" lon="8.6870068"><ele>181.0</ele><time>2026-04-26T13:06:44.581Z</time></trkpt><trkpt lat="45.6506884" lon="8.6869544"><ele>181.0</ele><time>2026-04-26T13:06:45.578Z</time></trkpt><trkpt lat="45.6506068" lon="8.686875"><ele>181.0</ele><time>2026-04-26T13:06:47.572Z</time></trkpt><trkpt lat="45.6505509" lon="8.6868301"><ele>180.83333333333334</ele><time>2026-04-26T13:06:49.581Z</time></trkpt><trkpt lat="45.6504814" lon="8.6867844"><ele>180.66666666666669</ele><time>2026-04-26T13:08:47.582Z</time></trkpt><trkpt lat="45.6504077" lon="8.6867245"><ele>180.5</ele><time>2026-04-26T13:08:51.583Z</time></trkpt><trkpt lat="45.650325" lon="8.6866558"><ele>180.33333333333334</ele><time>2026-04-26T13:08:54.582Z</time></trkpt><trkpt lat="45.6502602" lon="8.686607"><ele>180.16666666666666</ele><time>2026-04-26T13:08:56.582Z</time></trkpt><trkpt lat="45.6501776" lon="8.6865579"><ele>180.0</ele><time>2026-04-26T13:08:58.582Z</time></trkpt><trkpt lat="45.6501214" lon="8.6864813"><ele>180.0</ele><time>2026-04-26T13:09:00.582Z</time></trkpt><trkpt lat="45.6500392" lon="8.6864289"><ele>180.0</ele><time>2026-04-26T13:09:02.582Z</time></trkpt><trkpt lat="45.6499634" lon="8.6863843"><ele>180.0</ele><time>2026-04-26T13:09:04.582Z</time></trkpt><trkpt lat="45.6498816" lon="8.68638"><ele>180.0</ele><time>2026-04-26T13:09:06.582Z</time></trkpt><trkpt lat="45.6498181" lon="8.686441"><ele>180.0</ele><time>2026-04-26T13:09:08.583Z</time></trkpt><trkpt lat="45.6497738" lon="8.6865364"><ele>180.0</ele><time>2026-04-26T13:09:10.583Z</time></trkpt><trkpt lat="45.6497122" lon="8.6866306"><ele>180.0</ele><time>2026-04-26T13:09:12.582Z</time></trkpt><trkpt lat="45.6496513" lon="8.6867145"><ele>180.0</ele><time>2026-04-26T13:09:14.582Z</time></trkpt><trkpt lat="45.6495871" lon="8.6868012"><ele>180.0</ele><time>2026-04-26T13:09:16.582Z</time></trkpt><trkpt lat="45.649519" lon="8.6869041"><ele>180.0</ele><time>2026-04-26T13:09:18.582Z</time></trkpt><trkpt lat="45.6494531" lon="8.6869813"><ele>180.0</ele><time>2026-04-26T13:09:20.582Z</time></trkpt><trkpt lat="45.6493629" lon="8.6869688"><ele>180.0</ele><time>2026-04-26T13:09:22.582Z</time></trkpt><trkpt lat="45.6493005" lon="8.6869059"><ele>179.0</ele><time>2026-04-26T13:09:24.582Z</time></trkpt><trkpt lat="45.6492138" lon="8.6868534"><ele>178.0</ele><time>2026-04-26T13:09:26.582Z</time></trkpt><trkpt lat="45.6491178" lon="8.6868172"><ele>177.0</ele><time>2026-04-26T13:09:28.582Z</time></trkpt><trkpt lat="45.6490144" lon="8.6867775"><ele>176.0</ele><time>2026-04-26T13:09:30.582Z</time></trkpt><trkpt lat="45.6489088" lon="8.6867274"><ele>175.0</ele><time>2026-04-26T13:09:32.582Z</time></trkpt><trkpt lat="45.6488007" lon="8.686685"><ele>175.0</ele><time>2026-04-26T13:09:34.582Z</time></trkpt><trkpt lat="45.648692" lon="8.6866501"><ele>175.0</ele><time>2026-04-26T13:09:36.582Z</time></trkpt><trkpt lat="45.6485995" lon="8.6866129"><ele>175.0</ele><time>2026-04-26T13:09:38.582Z</time></trkpt><trkpt lat="45.6484989" lon="8.6865965"><ele>175.0</ele><time>2026-04-26T13:09:40.582Z</time></trkpt><trkpt lat="45.648386" lon="8.686573"><ele>175.0</ele><time>2026-04-26T13:09:42.582Z</time></trkpt><trkpt lat="45.6482919" lon="8.6865347"><ele>175.33333333333334</ele><time>2026-04-26T13:09:44.582Z</time></trkpt><trkpt lat="45.6481884" lon="8.686484"><ele>175.66666666666669</ele><time>2026-04-26T13:09:46.582Z</time></trkpt><trkpt lat="45.6480877" lon="8.6864703"><ele>176.0</ele><time>2026-04-26T13:09:48.582Z</time></trkpt><trkpt lat="45.6480165" lon="8.6864115"><ele>176.33333333333334</ele><time>2026-04-26T13:09:50.582Z</time></trkpt><trkpt lat="45.6479814" lon="8.686313"><ele>176.66666666666666</ele><time>2026-04-26T13:09:52.583Z</time></trkpt><trkpt lat="45.6479818" lon="8.6862205"><ele>177.0</ele><time>2026-04-26T13:09:54.583Z</time></trkpt><trkpt lat="45.6480364" lon="8.6861176"><ele>176.71428571428572</ele><time>2026-04-26T13:09:56.582Z</time></trkpt><trkpt lat="45.6480915" lon="8.6860336"><ele>176.42857142857142</ele><time>2026-04-26T13:09:58.582Z</time></trkpt><trkpt lat="45.6481323" lon="8.6859549"><ele>176.14285714285714</ele><time>2026-04-26T13:10:00.582Z</time></trkpt><trkpt lat="45.648115" lon="8.6858498"><ele>175.85714285714286</ele><time>2026-04-26T13:10:51.583Z</time></trkpt><trkpt lat="45.6481684" lon="8.6859012"><ele>175.57142857142856</ele><time>2026-04-26T13:11:00.601Z</time></trkpt><trkpt lat="45.6481283" lon="8.6858169"><ele>175.28571428571428</ele><time>2026-04-26T13:11:07.582Z</time></trkpt><trkpt lat="45.648104" lon="8.685907"><ele>175.0</ele><time>2026-04-26T13:11:42.583Z</time></trkpt><trkpt lat="45.6481303" lon="8.6859933"><ele>175.0</ele><time>2026-04-26T13:12:19.582Z</time></trkpt><trkpt lat="45.6480733" lon="8.686044"><ele>175.0</ele><time>2026-04-26T13:12:22.582Z</time></trkpt><trkpt lat="45.6479954" lon="8.6860877"><ele>175.0</ele><time>2026-04-26T13:12:25.583Z</time></trkpt><trkpt lat="45.6479388" lon="8.6861498"><ele>175.0</ele><time>2026-04-26T13:12:27.583Z</time></trkpt><trkpt lat="45.6478793" lon="8.6862414"><ele>175.0</ele><time>2026-04-26T13:12:29.582Z</time></trkpt><trkpt lat="45.6478007" lon="8.6863007"><ele>175.0</ele><time>2026-04-26T13:12:31.582Z</time></trkpt><trkpt lat="45.6477109" lon="8.6863092"><ele>175.0</ele><time>2026-04-26T13:12:33.517Z</time></trkpt><trkpt lat="45.6476489" lon="8.6861714"><ele>175.0</ele><time>2026-04-26T13:12:35.582Z</time></trkpt><trkpt lat="45.6476281" lon="8.6860836"><ele>175.0</ele><time>2026-04-26T13:12:37.582Z</time></trkpt><trkpt lat="45.6475678" lon="8.6860144"><ele>175.0</ele><time>2026-04-26T13:12:43.582Z</time></trkpt><trkpt lat="45.6475068" lon="8.6859753"><ele>175.0</ele><time>2026-04-26T13:12:46.582Z</time></trkpt><trkpt lat="45.6474419" lon="8.6859795"><ele>175.0</ele><time>2026-04-26T13:12:49.582Z</time></trkpt><trkpt lat="45.6473767" lon="8.6859499"><ele>175.0</ele><time>2026-04-26T13:12:52.582Z</time></trkpt><trkpt lat="45.6473002" lon="8.6859715"><ele>175.0</ele><time>2026-04-26T13:14:20.505Z</time></trkpt><trkpt lat="45.6472261" lon="8.6859977"><ele>175.0</ele><time>2026-04-26T13:14:24.582Z</time></trkpt><trkpt lat="45.6471561" lon="8.6860239"><ele>175.0</ele><time>2026-04-26T13:14:28.582Z</time></trkpt><trkpt lat="45.6470947" lon="8.6860506"><ele>175.0</ele><time>2026-04-26T13:14:34.582Z</time></trkpt><trkpt lat="45.6470251" lon="8.6860809"><ele>175.0</ele><time>2026-04-26T13:14:38.582Z</time></trkpt><trkpt lat="45.6469632" lon="8.6861581"><ele>175.0</ele><time>2026-04-26T13:14:46.582Z</time></trkpt><trkpt lat="45.6468996" lon="8.6862042"><ele>175.14285714285714</ele><time>2026-04-26T13:14:51.582Z</time></trkpt><trkpt lat="45.6468774" lon="8.6862902"><ele>175.28571428571428</ele><time>2026-04-26T13:14:56.587Z</time></trkpt><trkpt lat="45.6468271" lon="8.6863561"><ele>175.42857142857144</ele><time>2026-04-26T13:15:02.582Z</time></trkpt><trkpt lat="45.6467527" lon="8.6863542"><ele>175.57142857142856</ele><time>2026-04-26T13:15:08.583Z</time></trkpt><trkpt lat="45.6466767" lon="8.6863293"><ele>175.71428571428572</ele><time>2026-04-26T13:15:14.582Z</time></trkpt><trkpt lat="45.6466046" lon="8.686309"><ele>175.85714285714286</ele><time>2026-04-26T13:15:19.582Z</time></trkpt><trkpt lat="45.6465405" lon="8.6863161"><ele>176.0</ele><time>2026-04-26T13:15:24.582Z</time></trkpt><trkpt lat="45.6464756" lon="8.6863382"><ele>176.0</ele><time>2026-04-26T13:15:30.582Z</time></trkpt><trkpt lat="45.6464055" lon="8.6863109"><ele>176.0</ele><time>2026-04-26T13:15:37.582Z</time></trkpt><trkpt lat="45.6464453" lon="8.6862349"><ele>176.0</ele><time>2026-04-26T13:16:23.582Z</time></trkpt><trkpt lat="45.6465206" lon="8.6862269"><ele>176.0</ele><time>2026-04-26T13:16:32.589Z</time></trkpt><trkpt lat="45.6465897" lon="8.6862611"><ele>176.0</ele><time>2026-04-26T13:16:38.583Z</time></trkpt><trkpt lat="45.6466538" lon="8.6862793"><ele>176.0</ele><time>2026-04-26T13:16:48.582Z</time></trkpt><trkpt lat="45.6467084" lon="8.6863473"><ele>176.0</ele><time>2026-04-26T13:16:55.582Z</time></trkpt><trkpt lat="45.6467726" lon="8.6863328"><ele>176.0</ele><time>2026-04-26T13:17:02.582Z</time></trkpt><trkpt lat="45.6468432" lon="8.6863331"><ele>176.0</ele><time>2026-04-26T13:17:09.582Z</time></trkpt><trkpt lat="45.6468956" lon="8.6862619"><ele>176.0</ele><time>2026-04-26T13:17:16.505Z</time></trkpt><trkpt lat="45.6469287" lon="8.6861742"><ele>176.0</ele><time>2026-04-26T13:17:23.582Z</time></trkpt><trkpt lat="45.6469903" lon="8.6861523"><ele>176.0</ele><time>2026-04-26T13:17:30.582Z</time></trkpt><trkpt lat="45.6470509" lon="8.6861"><ele>176.0</ele><time>2026-04-26T13:17:37.583Z</time></trkpt><trkpt lat="45.6471181" lon="8.6860639"><ele>176.0</ele><time>2026-04-26T13:17:45.583Z</time></trkpt><trkpt lat="45.6471773" lon="8.6860242"><ele>175.85714285714286</ele><time>2026-04-26T13:17:51.582Z</time></trkpt><trkpt lat="45.6472644" lon="8.686039"><ele>175.71428571428572</ele><time>2026-04-26T13:18:09.582Z</time></trkpt><trkpt lat="45.6473145" lon="8.6859818"><ele>175.57142857142856</ele><time>2026-04-26T13:18:14.582Z</time></trkpt><trkpt lat="45.6473801" lon="8.6859627"><ele>175.42857142857144</ele><time>2026-04-26T13:18:34.562Z</time></trkpt><trkpt lat="45.6474432" lon="8.6859699"><ele>175.28571428571428</ele><time>2026-04-26T13:18:39.583Z</time></trkpt><trkpt lat="45.6475071" lon="8.6859577"><ele>175.14285714285714</ele><time>2026-04-26T13:18:44.509Z</time></trkpt><trkpt lat="45.6475673" lon="8.6859921"><ele>175.0</ele><time>2026-04-26T13:18:48.582Z</time></trkpt><trkpt lat="45.6476172" lon="8.6860521"><ele>175.28571428571428</ele><time>2026-04-26T13:18:52.509Z</time></trkpt><trkpt lat="45.6476333" lon="8.6861635"><ele>175.57142857142856</ele><time>2026-04-26T13:19:15.582Z</time></trkpt><trkpt lat="45.6476593" lon="8.686255"><ele>175.85714285714286</ele><time>2026-04-26T13:19:19.551Z</time></trkpt><trkpt lat="45.6477183" lon="8.6862957"><ele>176.14285714285714</ele><time>2026-04-26T13:19:21.582Z</time></trkpt><trkpt lat="45.6477976" lon="8.6863741"><ele>176.42857142857142</ele><time>2026-04-26T13:19:23.582Z</time></trkpt><trkpt lat="45.6477559" lon="8.6864474"><ele>176.71428571428572</ele><time>2026-04-26T13:19:26.582Z</time></trkpt><trkpt lat="45.6477017" lon="8.6865109"><ele>177.0</ele><time>2026-04-26T13:19:28.582Z</time></trkpt><trkpt lat="45.6476382" lon="8.6865725"><ele>177.0</ele><time>2026-04-26T13:19:30.582Z</time></trkpt><trkpt lat="45.6475742" lon="8.6866391"><ele>177.0</ele><time>2026-04-26T13:19:32.582Z</time></trkpt><trkpt lat="45.6475127" lon="8.6867034"><ele>177.0</ele><time>2026-04-26T13:19:34.582Z</time></trkpt><trkpt lat="45.6474573" lon="8.6867634"><ele>177.0</ele><time>2026-04-26T13:19:36.582Z</time></trkpt><trkpt lat="45.6473965" lon="8.6868313"><ele>177.0</ele><time>2026-04-26T13:19:38.583Z</time></trkpt><trkpt lat="45.6473276" lon="8.6869038"><ele>177.0</ele><time>2026-04-26T13:19:40.582Z</time></trkpt><trkpt lat="45.6472514" lon="8.6869777"><ele>176.8</ele><time>2026-04-26T13:19:42.582Z</time></trkpt><trkpt lat="45.6471745" lon="8.6870497"><ele>176.6</ele><time>2026-04-26T13:19:44.582Z</time></trkpt><trkpt lat="45.6470928" lon="8.6871372"><ele>176.4</ele><time>2026-04-26T13:19:46.582Z</time></trkpt><trkpt lat="45.6470106" lon="8.6871941"><ele>176.20000000000002</ele><time>2026-04-26T13:19:48.582Z</time></trkpt><trkpt lat="45.6469208" lon="8.6872631"><ele>176.0</ele><time>2026-04-26T13:19:50.582Z</time></trkpt><trkpt lat="45.6468359" lon="8.6873314"><ele>176.0</ele><time>2026-04-26T13:19:52.582Z</time></trkpt><trkpt lat="45.6467543" lon="8.6873888"><ele>176.0</ele><time>2026-04-26T13:19:54.582Z</time></trkpt><trkpt lat="45.6466809" lon="8.6874497"><ele>176.0</ele><time>2026-04-26T13:19:56.583Z</time></trkpt><trkpt lat="45.6466022" lon="8.6875183"><ele>176.0</ele><time>2026-04-26T13:19:58.582Z</time></trkpt><trkpt lat="45.6465186" lon="8.6875798"><ele>176.0</ele><time>2026-04-26T13:20:00.582Z</time></trkpt><trkpt lat="45.6464351" lon="8.6876448"><ele>176.0</ele><time>2026-04-26T13:20:02.582Z</time></trkpt><trkpt lat="45.6463511" lon="8.6877138"><ele>176.0</ele><time>2026-04-26T13:20:04.582Z</time></trkpt><trkpt lat="45.6462654" lon="8.6877782"><ele>176.0</ele><time>2026-04-26T13:20:06.582Z</time></trkpt><trkpt lat="45.6461781" lon="8.6878301"><ele>176.0</ele><time>2026-04-26T13:20:08.582Z</time></trkpt><trkpt lat="45.6460867" lon="8.6878941"><ele>176.0</ele><time>2026-04-26T13:20:10.582Z</time></trkpt><trkpt lat="45.6459947" lon="8.6879456"><ele>176.0</ele><time>2026-04-26T13:20:12.582Z</time></trkpt><trkpt lat="45.6459131" lon="8.6879977"><ele>176.0</ele><time>2026-04-26T13:20:14.582Z</time></trkpt><trkpt lat="45.645844" lon="8.6880665"><ele>176.0</ele><time>2026-04-26T13:20:16.582Z</time></trkpt><trkpt lat="45.6457508" lon="8.6881268"><ele>176.0</ele><time>2026-04-26T13:20:18.582Z</time></trkpt><trkpt lat="45.6456586" lon="8.6881936"><ele>176.0</ele><time>2026-04-26T13:20:20.582Z</time></trkpt><trkpt lat="45.6455689" lon="8.688245"><ele>176.0</ele><time>2026-04-26T13:20:22.583Z</time></trkpt><trkpt lat="45.6454735" lon="8.6883193"><ele>176.0</ele><time>2026-04-26T13:20:24.583Z</time></trkpt><trkpt lat="45.6453826" lon="8.6883969"><ele>176.0</ele><time>2026-04-26T13:20:26.582Z</time></trkpt><trkpt lat="45.6452858" lon="8.6884847"><ele>176.0</ele><time>2026-04-26T13:20:28.583Z</time></trkpt><trkpt lat="45.6451876" lon="8.688571"><ele>176.0</ele><time>2026-04-26T13:20:30.582Z</time></trkpt><trkpt lat="45.6450859" lon="8.6886276"><ele>176.25</ele><time>2026-04-26T13:20:32.582Z</time></trkpt><trkpt lat="45.6449933" lon="8.6887014"><ele>176.5</ele><time>2026-04-26T13:20:34.582Z</time></trkpt><trkpt lat="45.6449064" lon="8.6887761"><ele>176.75</ele><time>2026-04-26T13:20:36.582Z</time></trkpt><trkpt lat="45.6447995" lon="8.688876"><ele>177.0</ele><time>2026-04-26T13:20:38.582Z</time></trkpt><trkpt lat="45.6446915" lon="8.6889532"><ele>177.0</ele><time>2026-04-26T13:20:40.582Z</time></trkpt><trkpt lat="45.6445867" lon="8.6890346"><ele>177.0</ele><time>2026-04-26T13:20:42.582Z</time></trkpt><trkpt lat="45.6444951" lon="8.6891339"><ele>177.0</ele><time>2026-04-26T13:20:44.582Z</time></trkpt><trkpt lat="45.6443922" lon="8.6892162"><ele>177.0</ele><time>2026-04-26T13:20:46.582Z</time></trkpt><trkpt lat="45.6443086" lon="8.689306"><ele>177.6</ele><time>2026-04-26T13:20:48.582Z</time></trkpt><trkpt lat="45.6442182" lon="8.6893658"><ele>178.2</ele><time>2026-04-26T13:20:50.582Z</time></trkpt><trkpt lat="45.6441266" lon="8.6894315"><ele>178.8</ele><time>2026-04-26T13:20:52.582Z</time></trkpt><trkpt lat="45.6440177" lon="8.6894804"><ele>179.4</ele><time>2026-04-26T13:20:54.583Z</time></trkpt><trkpt lat="45.6439167" lon="8.6895294"><ele>180.0</ele><time>2026-04-26T13:20:56.582Z</time></trkpt><trkpt lat="45.643818" lon="8.6895731"><ele>180.6</ele><time>2026-04-26T13:20:58.582Z</time></trkpt><trkpt lat="45.6437097" lon="8.6896121"><ele>181.2</ele><time>2026-04-26T13:21:00.583Z</time></trkpt><trkpt lat="45.6436015" lon="8.6896212"><ele>181.8</ele><time>2026-04-26T13:21:02.583Z</time></trkpt><trkpt lat="45.6434939" lon="8.6896465"><ele>182.4</ele><time>2026-04-26T13:21:04.582Z</time></trkpt><trkpt lat="45.6433982" lon="8.6896547"><ele>183.0</ele><time>2026-04-26T13:21:06.583Z</time></trkpt><trkpt lat="45.6432917" lon="8.6896689"><ele>183.0</ele><time>2026-04-26T13:21:08.583Z</time></trkpt><trkpt lat="45.6431987" lon="8.6897175"><ele>183.0</ele><time>2026-04-26T13:21:10.582Z</time></trkpt><trkpt lat="45.6430984" lon="8.6897566"><ele>183.0</ele><time>2026-04-26T13:21:12.582Z</time></trkpt><trkpt lat="45.6429993" lon="8.6897558"><ele>183.0</ele><time>2026-04-26T13:21:14.582Z</time></trkpt><trkpt lat="45.6429154" lon="8.6897429"><ele>183.0</ele><time>2026-04-26T13:21:16.582Z</time></trkpt><trkpt lat="45.6428413" lon="8.6897369"><ele>183.14285714285714</ele><time>2026-04-26T13:21:18.583Z</time></trkpt><trkpt lat="45.6427753" lon="8.689727"><ele>183.28571428571428</ele><time>2026-04-26T13:21:20.582Z</time></trkpt><trkpt lat="45.6427102" lon="8.6896982"><ele>183.42857142857144</ele><time>2026-04-26T13:21:38.582Z</time></trkpt><trkpt lat="45.6426443" lon="8.6896779"><ele>183.57142857142856</ele><time>2026-04-26T13:21:48.582Z</time></trkpt><trkpt lat="45.6425794" lon="8.6896921"><ele>183.7142857142857</ele><time>2026-04-26T13:22:22.582Z</time></trkpt><trkpt lat="45.6425193" lon="8.6897508"><ele>183.85714285714286</ele><time>2026-04-26T13:22:38.582Z</time></trkpt><trkpt lat="45.6424576" lon="8.6897856"><ele>184.0</ele><time>2026-04-26T13:22:42.582Z</time></trkpt><trkpt lat="45.6424268" lon="8.6898807"><ele>184.0</ele><time>2026-04-26T13:22:45.583Z</time></trkpt><trkpt lat="45.6423527" lon="8.6899218"><ele>184.0</ele><time>2026-04-26T13:22:51.583Z</time></trkpt><trkpt lat="45.6422738" lon="8.6898782"><ele>184.0</ele><time>2026-04-26T13:22:53.582Z</time></trkpt><trkpt lat="45.6421949" lon="8.6898668"><ele>184.0</ele><time>2026-04-26T13:22:55.582Z</time></trkpt><trkpt lat="45.6421155" lon="8.6898688"><ele>184.0</ele><time>2026-04-26T13:22:57.583Z</time></trkpt><trkpt lat="45.6420531" lon="8.6899307"><ele>184.0</ele><time>2026-04-26T13:22:59.583Z</time></trkpt><trkpt lat="45.6419925" lon="8.689984"><ele>183.71428571428572</ele><time>2026-04-26T13:23:01.582Z</time></trkpt><trkpt lat="45.6419188" lon="8.6900067"><ele>183.42857142857142</ele><time>2026-04-26T13:23:03.582Z</time></trkpt><trkpt lat="45.64185" lon="8.6900226"><ele>183.14285714285714</ele><time>2026-04-26T13:23:05.582Z</time></trkpt><trkpt lat="45.6417897" lon="8.6899864"><ele>182.85714285714286</ele><time>2026-04-26T13:23:07.582Z</time></trkpt><trkpt lat="45.6417081" lon="8.6900175"><ele>182.57142857142856</ele><time>2026-04-26T13:23:10.583Z</time></trkpt><trkpt lat="45.6416462" lon="8.6900428"><ele>182.28571428571428</ele><time>2026-04-26T13:23:13.583Z</time></trkpt><trkpt lat="45.6415677" lon="8.6900663"><ele>182.0</ele><time>2026-04-26T13:23:17.583Z</time></trkpt><trkpt lat="45.641487" lon="8.6900781"><ele>182.0</ele><time>2026-04-26T13:23:20.583Z</time></trkpt><trkpt lat="45.6414129" lon="8.6901197"><ele>182.0</ele><time>2026-04-26T13:23:22.582Z</time></trkpt><trkpt lat="45.6413524" lon="8.6901519"><ele>182.0</ele><time>2026-04-26T13:23:24.582Z</time></trkpt><trkpt lat="45.6412794" lon="8.6901754"><ele>182.0</ele><time>2026-04-26T13:23:26.582Z</time></trkpt><trkpt lat="45.641205" lon="8.6901704"><ele>182.0</ele><time>2026-04-26T13:23:28.582Z</time></trkpt><trkpt lat="45.6411252" lon="8.6901802"><ele>182.0</ele><time>2026-04-26T13:23:30.582Z</time></trkpt><trkpt lat="45.6410518" lon="8.6902075"><ele>182.0</ele><time>2026-04-26T13:23:32.582Z</time></trkpt><trkpt lat="45.6409782" lon="8.6902154"><ele>181.85714285714286</ele><time>2026-04-26T13:23:34.582Z</time></trkpt><trkpt lat="45.6409" lon="8.6902373"><ele>181.71428571428572</ele><time>2026-04-26T13:23:36.582Z</time></trkpt><trkpt lat="45.6408258" lon="8.6902455"><ele>181.57142857142856</ele><time>2026-04-26T13:23:38.582Z</time></trkpt><trkpt lat="45.6407545" lon="8.6902019"><ele>181.42857142857144</ele><time>2026-04-26T13:23:40.582Z</time></trkpt><trkpt lat="45.6406899" lon="8.6901705"><ele>181.28571428571428</ele><time>2026-04-26T13:23:42.582Z</time></trkpt><trkpt lat="45.6406197" lon="8.6901484"><ele>181.14285714285714</ele><time>2026-04-26T13:23:47.582Z</time></trkpt><trkpt lat="45.640549" lon="8.6901362"><ele>181.0</ele><time>2026-04-26T13:23:50.582Z</time></trkpt><trkpt lat="45.6404783" lon="8.6901512"><ele>181.0</ele><time>2026-04-26T13:23:53.582Z</time></trkpt><trkpt lat="45.6404111" lon="8.6901908"><ele>181.0</ele><time>2026-04-26T13:23:56.582Z</time></trkpt><trkpt lat="45.6403399" lon="8.6902744"><ele>181.0</ele><time>2026-04-26T13:24:01.582Z</time></trkpt><trkpt lat="45.6402627" lon="8.6902842"><ele>181.0</ele><time>2026-04-26T13:24:04.582Z</time></trkpt><trkpt lat="45.6401868" lon="8.6902881"><ele>181.0</ele><time>2026-04-26T13:24:08.582Z</time></trkpt><trkpt lat="45.6401234" lon="8.6903016"><ele>181.0</ele><time>2026-04-26T13:24:11.582Z</time></trkpt><trkpt lat="45.6400488" lon="8.6902899"><ele>180.71428571428572</ele><time>2026-04-26T13:24:14.582Z</time></trkpt><trkpt lat="45.6399815" lon="8.6902816"><ele>180.42857142857142</ele><time>2026-04-26T13:24:17.582Z</time></trkpt><trkpt lat="45.6399163" lon="8.6902458"><ele>180.14285714285717</ele><time>2026-04-26T13:24:20.582Z</time></trkpt><trkpt lat="45.6398511" lon="8.6901864"><ele>179.85714285714286</ele><time>2026-04-26T13:24:24.583Z</time></trkpt><trkpt lat="45.6397821" lon="8.6901782"><ele>179.57142857142858</ele><time>2026-04-26T13:24:33.582Z</time></trkpt><trkpt lat="45.6397175" lon="8.6902175"><ele>179.2857142857143</ele><time>2026-04-26T13:24:38.582Z</time></trkpt><trkpt lat="45.639684" lon="8.6903093"><ele>179.0</ele><time>2026-04-26T13:24:45.582Z</time></trkpt><trkpt lat="45.6396355" lon="8.6903782"><ele>180.33333333333331</ele><time>2026-04-26T13:24:51.582Z</time></trkpt><trkpt lat="45.6395575" lon="8.6903734"><ele>181.66666666666666</ele><time>2026-04-26T13:25:01.582Z</time></trkpt><trkpt lat="45.6394868" lon="8.6903527"><ele>183.0</ele><time>2026-04-26T13:25:04.582Z</time></trkpt><trkpt lat="45.6394159" lon="8.6903329"><ele>184.33333333333334</ele><time>2026-04-26T13:25:07.656Z</time></trkpt><trkpt lat="45.6393468" lon="8.6903095"><ele>185.66666666666669</ele><time>2026-04-26T13:25:10.582Z</time></trkpt><trkpt lat="45.6392564" lon="8.6902832"><ele>187.0</ele><time>2026-04-26T13:25:13.505Z</time></trkpt><trkpt lat="45.6391888" lon="8.6902625"><ele>187.16666666666669</ele><time>2026-04-26T13:25:15.582Z</time></trkpt><trkpt lat="45.6391223" lon="8.6902384"><ele>187.33333333333334</ele><time>2026-04-26T13:25:17.582Z</time></trkpt><trkpt lat="45.6390532" lon="8.6902196"><ele>187.5</ele><time>2026-04-26T13:25:19.582Z</time></trkpt><trkpt lat="45.6389815" lon="8.6902137"><ele>187.66666666666666</ele><time>2026-04-26T13:25:21.582Z</time></trkpt><trkpt lat="45.6388963" lon="8.690257"><ele>187.83333333333331</ele><time>2026-04-26T13:25:24.582Z</time></trkpt><trkpt lat="45.6388679" lon="8.6903662"><ele>188.0</ele><time>2026-04-26T13:25:27.582Z</time></trkpt><trkpt lat="45.6388048" lon="8.6904548"><ele>188.0</ele><time>2026-04-26T13:25:30.583Z</time></trkpt><trkpt lat="45.6387391" lon="8.6904207"><ele>188.0</ele><time>2026-04-26T13:25:32.582Z</time></trkpt><trkpt lat="45.6386971" lon="8.6903368"><ele>188.0</ele><time>2026-04-26T13:25:34.583Z</time></trkpt><trkpt lat="45.638653" lon="8.6902492"><ele>188.0</ele><time>2026-04-26T13:25:36.582Z</time></trkpt><trkpt lat="45.6385853" lon="8.6901845"><ele>188.0</ele><time>2026-04-26T13:25:38.583Z</time></trkpt><trkpt lat="45.6385295" lon="8.6901292"><ele>188.0</ele><time>2026-04-26T13:25:40.582Z</time></trkpt><trkpt lat="45.6384707" lon="8.6900428"><ele>187.28571428571428</ele><time>2026-04-26T13:25:42.582Z</time></trkpt><trkpt lat="45.6383971" lon="8.6900033"><ele>186.57142857142856</ele><time>2026-04-26T13:25:44.583Z</time></trkpt><trkpt lat="45.6383201" lon="8.6900097"><ele>185.85714285714286</ele><time>2026-04-26T13:25:46.582Z</time></trkpt><trkpt lat="45.638251" lon="8.6900173"><ele>185.14285714285714</ele><time>2026-04-26T13:25:48.582Z</time></trkpt><trkpt lat="45.6381839" lon="8.6900283"><ele>184.42857142857144</ele><time>2026-04-26T13:25:50.582Z</time></trkpt><trkpt lat="45.6381145" lon="8.6900308"><ele>183.71428571428572</ele><time>2026-04-26T13:25:52.583Z</time></trkpt><trkpt lat="45.6380285" lon="8.6900103"><ele>183.0</ele><time>2026-04-26T13:25:55.583Z</time></trkpt><trkpt lat="45.6379782" lon="8.689939"><ele>183.0</ele><time>2026-04-26T13:26:05.583Z</time></trkpt><trkpt lat="45.6379255" lon="8.6898613"><ele>183.0</ele><time>2026-04-26T13:26:13.582Z</time></trkpt><trkpt lat="45.6378611" lon="8.6898021"><ele>183.0</ele><time>2026-04-26T13:26:16.582Z</time></trkpt><trkpt lat="45.6377999" lon="8.6897292"><ele>183.0</ele><time>2026-04-26T13:26:47.582Z</time></trkpt><trkpt lat="45.6377349" lon="8.689666"><ele>183.0</ele><time>2026-04-26T13:26:50.582Z</time></trkpt><trkpt lat="45.6376498" lon="8.689641"><ele>183.0</ele><time>2026-04-26T13:26:53.582Z</time></trkpt><trkpt lat="45.6375599" lon="8.6896213"><ele>183.57142857142858</ele><time>2026-04-26T13:26:56.582Z</time></trkpt><trkpt lat="45.6374912" lon="8.6896095"><ele>184.14285714285717</ele><time>2026-04-26T13:26:59.582Z</time></trkpt><trkpt lat="45.6374163" lon="8.689609"><ele>184.71428571428572</ele><time>2026-04-26T13:27:02.582Z</time></trkpt><trkpt lat="45.6373525" lon="8.6895823"><ele>185.28571428571428</ele><time>2026-04-26T13:27:04.583Z</time></trkpt><trkpt lat="45.6372868" lon="8.6895375"><ele>185.85714285714286</ele><time>2026-04-26T13:27:06.582Z</time></trkpt><trkpt lat="45.6372158" lon="8.6894706"><ele>186.42857142857142</ele><time>2026-04-26T13:27:09.582Z</time></trkpt><trkpt lat="45.6371449" lon="8.6894391"><ele>187.0</ele><time>2026-04-26T13:27:13.582Z</time></trkpt><trkpt lat="45.6370832" lon="8.6894121"><ele>186.16666666666669</ele><time>2026-04-26T13:27:16.582Z</time></trkpt><trkpt lat="45.6370023" lon="8.6893864"><ele>185.33333333333334</ele><time>2026-04-26T13:27:19.582Z</time></trkpt><trkpt lat="45.6369304" lon="8.6893549"><ele>184.5</ele><time>2026-04-26T13:27:21.582Z</time></trkpt><trkpt lat="45.6368516" lon="8.6893156"><ele>183.66666666666666</ele><time>2026-04-26T13:27:23.582Z</time></trkpt><trkpt lat="45.636779" lon="8.6892801"><ele>182.83333333333331</ele><time>2026-04-26T13:27:25.582Z</time></trkpt><trkpt lat="45.6367014" lon="8.6892357"><ele>182.0</ele><time>2026-04-26T13:27:27.582Z</time></trkpt><trkpt lat="45.6366411" lon="8.689202"><ele>182.0</ele><time>2026-04-26T13:27:28.582Z</time></trkpt><trkpt lat="45.6365454" lon="8.6891336"><ele>182.0</ele><time>2026-04-26T13:27:30.582Z</time></trkpt><trkpt lat="45.6364594" lon="8.6890717"><ele>182.0</ele><time>2026-04-26T13:27:32.582Z</time></trkpt><trkpt lat="45.6363985" lon="8.6890327"><ele>182.0</ele><time>2026-04-26T13:27:33.582Z</time></trkpt><trkpt lat="45.6363384" lon="8.6889766"><ele>182.0</ele><time>2026-04-26T13:27:34.582Z</time></trkpt><trkpt lat="45.6362746" lon="8.68893"><ele>182.0</ele><time>2026-04-26T13:27:35.582Z</time></trkpt><trkpt lat="45.6361743" lon="8.6888565"><ele>181.83333333333331</ele><time>2026-04-26T13:27:37.583Z</time></trkpt><trkpt lat="45.6360856" lon="8.6887732"><ele>181.66666666666666</ele><time>2026-04-26T13:27:39.582Z</time></trkpt><trkpt lat="45.6360142" lon="8.6887184"><ele>181.5</ele><time>2026-04-26T13:27:41.582Z</time></trkpt><trkpt lat="45.6359409" lon="8.688663"><ele>181.33333333333334</ele><time>2026-04-26T13:27:43.582Z</time></trkpt><trkpt lat="45.6358815" lon="8.6886211"><ele>181.16666666666669</ele><time>2026-04-26T13:27:45.582Z</time></trkpt><trkpt lat="45.635804" lon="8.6885751"><ele>181.0</ele><time>2026-04-26T13:27:47.582Z</time></trkpt><trkpt lat="45.6357359" lon="8.6885153"><ele>181.0</ele><time>2026-04-26T13:27:49.582Z</time></trkpt><trkpt lat="45.6356527" lon="8.6884669"><ele>181.0</ele><time>2026-04-26T13:27:51.582Z</time></trkpt><trkpt lat="45.6355775" lon="8.688422"><ele>181.0</ele><time>2026-04-26T13:27:53.582Z</time></trkpt><trkpt lat="45.635505" lon="8.688376"><ele>181.0</ele><time>2026-04-26T13:27:55.582Z</time></trkpt><trkpt lat="45.6354403" lon="8.6883293"><ele>181.0</ele><time>2026-04-26T13:27:57.583Z</time></trkpt><trkpt lat="45.6353774" lon="8.688278"><ele>181.0</ele><time>2026-04-26T13:27:59.583Z</time></trkpt><trkpt lat="45.6353079" lon="8.6882208"><ele>182.28571428571428</ele><time>2026-04-26T13:28:01.583Z</time></trkpt><trkpt lat="45.635249" lon="8.688168"><ele>183.57142857142856</ele><time>2026-04-26T13:28:03.583Z</time></trkpt><trkpt lat="45.6351842" lon="8.6881138"><ele>184.85714285714286</ele><time>2026-04-26T13:28:05.582Z</time></trkpt><trkpt lat="45.6351195" lon="8.6880572"><ele>186.14285714285714</ele><time>2026-04-26T13:28:07.583Z</time></trkpt><trkpt lat="45.6350678" lon="8.6879966"><ele>187.42857142857144</ele><time>2026-04-26T13:28:09.582Z</time></trkpt><trkpt lat="45.635001" lon="8.6879563"><ele>188.71428571428572</ele><time>2026-04-26T13:28:13.583Z</time></trkpt><trkpt lat="45.6349622" lon="8.6878725"><ele>190.0</ele><time>2026-04-26T13:28:25.583Z</time></trkpt><trkpt lat="45.6349352" lon="8.6877676"><ele>188.28571428571428</ele><time>2026-04-26T13:28:31.582Z</time></trkpt><trkpt lat="45.6348994" lon="8.6876841"><ele>186.57142857142858</ele><time>2026-04-26T13:28:34.582Z</time></trkpt><trkpt lat="45.6348703" lon="8.6875971"><ele>184.85714285714283</ele><time>2026-04-26T13:28:37.582Z</time></trkpt><trkpt lat="45.634809" lon="8.6875307"><ele>183.14285714285714</ele><time>2026-04-26T13:28:41.583Z</time></trkpt><trkpt lat="45.6347463" lon="8.6874745"><ele>181.42857142857142</ele><time>2026-04-26T13:28:44.583Z</time></trkpt><trkpt lat="45.6346936" lon="8.6874051"><ele>179.7142857142857</ele><time>2026-04-26T13:28:47.583Z</time></trkpt><trkpt lat="45.634641" lon="8.6873553"><ele>178.0</ele><time>2026-04-26T13:28:50.583Z</time></trkpt><trkpt lat="45.6345834" lon="8.6872832"><ele>178.0</ele><time>2026-04-26T13:28:53.583Z</time></trkpt><trkpt lat="45.6345323" lon="8.6872151"><ele>178.0</ele><time>2026-04-26T13:28:56.582Z</time></trkpt><trkpt lat="45.6344932" lon="8.6871296"><ele>178.0</ele><time>2026-04-26T13:28:59.582Z</time></trkpt><trkpt lat="45.6344291" lon="8.6870535"><ele>178.0</ele><time>2026-04-26T13:29:02.582Z</time></trkpt><trkpt lat="45.6343798" lon="8.686956"><ele>178.0</ele><time>2026-04-26T13:29:05.582Z</time></trkpt><trkpt lat="45.6343379" lon="8.6868606"><ele>178.0</ele><time>2026-04-26T13:29:31.582Z</time></trkpt><trkpt lat="45.6342888" lon="8.6867569"><ele>178.83333333333334</ele><time>2026-04-26T13:29:34.582Z</time></trkpt><trkpt lat="45.6342405" lon="8.6866611"><ele>179.66666666666669</ele><time>2026-04-26T13:29:36.583Z</time></trkpt><trkpt lat="45.6341892" lon="8.6865672"><ele>180.5</ele><time>2026-04-26T13:29:38.583Z</time></trkpt><trkpt lat="45.6341373" lon="8.6864738"><ele>181.33333333333334</ele><time>2026-04-26T13:29:40.582Z</time></trkpt><trkpt lat="45.6340921" lon="8.686377"><ele>182.16666666666666</ele><time>2026-04-26T13:29:42.582Z</time></trkpt><trkpt lat="45.6340544" lon="8.6862712"><ele>183.0</ele><time>2026-04-26T13:29:44.582Z</time></trkpt><trkpt lat="45.6340171" lon="8.6861514"><ele>181.5</ele><time>2026-04-26T13:29:46.582Z</time></trkpt><trkpt lat="45.6339732" lon="8.6860345"><ele>180.0</ele><time>2026-04-26T13:29:48.582Z</time></trkpt><trkpt lat="45.6339382" lon="8.685949"><ele>178.5</ele><time>2026-04-26T13:29:50.582Z</time></trkpt><trkpt lat="45.6338929" lon="8.6858442"><ele>177.0</ele><time>2026-04-26T13:29:53.582Z</time></trkpt><trkpt lat="45.633865" lon="8.6857566"><ele>175.5</ele><time>2026-04-26T13:29:55.582Z</time></trkpt><trkpt lat="45.63383" lon="8.6856664"><ele>174.0</ele><time>2026-04-26T13:29:57.582Z</time></trkpt><trkpt lat="45.6338072" lon="8.6855817"><ele>174.0</ele><time>2026-04-26T13:29:59.582Z</time></trkpt><trkpt lat="45.6337825" lon="8.6854944"><ele>174.0</ele><time>2026-04-26T13:30:01.582Z</time></trkpt><trkpt lat="45.6337424" lon="8.6854066"><ele>174.0</ele><time>2026-04-26T13:30:03.582Z</time></trkpt><trkpt lat="45.6337191" lon="8.6853183"><ele>174.0</ele><time>2026-04-26T13:30:05.583Z</time></trkpt><trkpt lat="45.6337023" lon="8.6852305"><ele>174.0</ele><time>2026-04-26T13:30:07.582Z</time></trkpt><trkpt lat="45.6336774" lon="8.6851459"><ele>174.0</ele><time>2026-04-26T13:30:09.582Z</time></trkpt><trkpt lat="45.6336449" lon="8.6850441"><ele>174.0</ele><time>2026-04-26T13:30:11.582Z</time></trkpt><trkpt lat="45.6336216" lon="8.6849248"><ele>175.83333333333334</ele><time>2026-04-26T13:30:13.583Z</time></trkpt><trkpt lat="45.6335904" lon="8.6848115"><ele>177.66666666666666</ele><time>2026-04-26T13:30:16.583Z</time></trkpt><trkpt lat="45.633575" lon="8.6847164"><ele>179.5</ele><time>2026-04-26T13:30:19.582Z</time></trkpt><trkpt lat="45.6335455" lon="8.6846088"><ele>181.33333333333331</ele><time>2026-04-26T13:30:22.583Z</time></trkpt><trkpt lat="45.6335195" lon="8.6845008"><ele>183.16666666666666</ele><time>2026-04-26T13:30:25.582Z</time></trkpt><trkpt lat="45.6335229" lon="8.6844031"><ele>185.0</ele><time>2026-04-26T13:30:27.582Z</time></trkpt><trkpt lat="45.6334633" lon="8.6843003"><ele>184.99999999999997</ele><time>2026-04-26T13:30:30.582Z</time></trkpt><trkpt lat="45.6334485" lon="8.6842039"><ele>185.0</ele><time>2026-04-26T13:30:32.582Z</time></trkpt><trkpt lat="45.6334344" lon="8.6841003"><ele>185.0</ele><time>2026-04-26T13:30:34.582Z</time></trkpt><trkpt lat="45.6334133" lon="8.6840132"><ele>185.0</ele><time>2026-04-26T13:30:36.582Z</time></trkpt><trkpt lat="45.6333746" lon="8.6838896"><ele>185.0</ele><time>2026-04-26T13:30:39.582Z</time></trkpt><trkpt lat="45.6333518" lon="8.6838025"><ele>184.99999999999997</ele><time>2026-04-26T13:30:41.582Z</time></trkpt><trkpt lat="45.6333412" lon="8.6837116"><ele>185.0</ele><time>2026-04-26T13:30:45.583Z</time></trkpt><trkpt lat="45.6333726" lon="8.6836011"><ele>184.57142857142856</ele><time>2026-04-26T13:30:49.582Z</time></trkpt><trkpt lat="45.633359" lon="8.6835038"><ele>184.14285714285714</ele><time>2026-04-26T13:30:53.583Z</time></trkpt><trkpt lat="45.6333614" lon="8.6834054"><ele>183.71428571428572</ele><time>2026-04-26T13:31:03.582Z</time></trkpt><trkpt lat="45.6333235" lon="8.6832946"><ele>183.28571428571428</ele><time>2026-04-26T13:31:07.582Z</time></trkpt><trkpt lat="45.6333125" lon="8.6831919"><ele>182.85714285714286</ele><time>2026-04-26T13:31:10.582Z</time></trkpt><trkpt lat="45.6332934" lon="8.683106"><ele>182.42857142857142</ele><time>2026-04-26T13:31:13.582Z</time></trkpt><trkpt lat="45.6332713" lon="8.6829825"><ele>182.0</ele><time>2026-04-26T13:31:18.583Z</time></trkpt><trkpt lat="45.6332564" lon="8.6828617"><ele>181.28571428571428</ele><time>2026-04-26T13:31:21.582Z</time></trkpt><trkpt lat="45.6332283" lon="8.6827589"><ele>180.57142857142856</ele><time>2026-04-26T13:31:24.582Z</time></trkpt><trkpt lat="45.633209" lon="8.6826584"><ele>179.85714285714286</ele><time>2026-04-26T13:31:27.582Z</time></trkpt><trkpt lat="45.6331961" lon="8.6825475"><ele>179.14285714285714</ele><time>2026-04-26T13:31:30.582Z</time></trkpt><trkpt lat="45.6331851" lon="8.682448"><ele>178.42857142857142</ele><time>2026-04-26T13:31:34.582Z</time></trkpt><trkpt lat="45.63316" lon="8.6823592"><ele>177.71428571428572</ele><time>2026-04-26T13:31:37.582Z</time></trkpt><trkpt lat="45.6331359" lon="8.6822686"><ele>177.0</ele><time>2026-04-26T13:31:40.582Z</time></trkpt><trkpt lat="45.6331162" lon="8.6821434"><ele>177.0</ele><time>2026-04-26T13:31:47.582Z</time></trkpt><trkpt lat="45.6331038" lon="8.6820507"><ele>177.0</ele><time>2026-04-26T13:31:49.582Z</time></trkpt><trkpt lat="45.633093" lon="8.6819323"><ele>177.0</ele><time>2026-04-26T13:31:52.582Z</time></trkpt><trkpt lat="45.6330618" lon="8.6818296"><ele>177.0</ele><time>2026-04-26T13:31:54.582Z</time></trkpt><trkpt lat="45.6330555" lon="8.6817378"><ele>177.0</ele><time>2026-04-26T13:31:56.582Z</time></trkpt><trkpt lat="45.6330408" lon="8.6816034"><ele>177.0</ele><time>2026-04-26T13:31:59.582Z</time></trkpt><trkpt lat="45.6330188" lon="8.6814706"><ele>177.0</ele><time>2026-04-26T13:32:01.582Z</time></trkpt><trkpt lat="45.632997" lon="8.6813647"><ele>177.0</ele><time>2026-04-26T13:32:03.582Z</time></trkpt><trkpt lat="45.6329854" lon="8.6812675"><ele>177.0</ele><time>2026-04-26T13:32:06.583Z</time></trkpt><trkpt lat="45.6329655" lon="8.6811689"><ele>177.0</ele><time>2026-04-26T13:32:10.582Z</time></trkpt><trkpt lat="45.6329334" lon="8.6810642"><ele>177.0</ele><time>2026-04-26T13:32:22.582Z</time></trkpt><trkpt lat="45.6329448" lon="8.6809675"><ele>177.0</ele><time>2026-04-26T13:32:26.582Z</time></trkpt><trkpt lat="45.6329459" lon="8.6808692"><ele>177.0</ele><time>2026-04-26T13:33:03.582Z</time></trkpt><trkpt lat="45.6329315" lon="8.6807493"><ele>176.0</ele><time>2026-04-26T13:33:11.582Z</time></trkpt><trkpt lat="45.6329176" lon="8.680646"><ele>175.0</ele><time>2026-04-26T13:33:15.582Z</time></trkpt><trkpt lat="45.6329084" lon="8.6805382"><ele>174.0</ele><time>2026-04-26T13:33:18.582Z</time></trkpt><trkpt lat="45.6328822" lon="8.68042"><ele>173.0</ele><time>2026-04-26T13:33:21.582Z</time></trkpt><trkpt lat="45.6328706" lon="8.6803297"><ele>172.0</ele><time>2026-04-26T13:33:23.582Z</time></trkpt><trkpt lat="45.6328701" lon="8.680233"><ele>171.0</ele><time>2026-04-26T13:33:25.582Z</time></trkpt><trkpt lat="45.6328907" lon="8.6801009"><ele>170.33333333333334</ele><time>2026-04-26T13:33:28.582Z</time></trkpt><trkpt lat="45.6328914" lon="8.6800017"><ele>169.66666666666666</ele><time>2026-04-26T13:33:30.582Z</time></trkpt><trkpt lat="45.632866" lon="8.6799026"><ele>169.0</ele><time>2026-04-26T13:33:33.583Z</time></trkpt><trkpt lat="45.6328542" lon="8.6798009"><ele>168.33333333333331</ele><time>2026-04-26T13:33:35.582Z</time></trkpt><trkpt lat="45.6328591" lon="8.6797068"><ele>167.66666666666666</ele><time>2026-04-26T13:33:37.582Z</time></trkpt><trkpt lat="45.6328586" lon="8.6795974"><ele>167.0</ele><time>2026-04-26T13:33:39.582Z</time></trkpt><trkpt lat="45.6328695" lon="8.6794611"><ele>167.5</ele><time>2026-04-26T13:33:42.582Z</time></trkpt><trkpt lat="45.6328742" lon="8.679363"><ele>168.0</ele><time>2026-04-26T13:33:44.582Z</time></trkpt><trkpt lat="45.6328976" lon="8.6792549"><ele>168.5</ele><time>2026-04-26T13:33:46.582Z</time></trkpt><trkpt lat="45.6329223" lon="8.679169"><ele>169.0</ele><time>2026-04-26T13:33:48.582Z</time></trkpt><trkpt lat="45.6329034" lon="8.6790711"><ele>169.5</ele><time>2026-04-26T13:33:50.582Z</time></trkpt><trkpt lat="45.6329286" lon="8.6789543"><ele>170.0</ele><time>2026-04-26T13:33:53.582Z</time></trkpt><trkpt lat="45.632953" lon="8.6788204"><ele>170.0</ele><time>2026-04-26T13:33:56.582Z</time></trkpt><trkpt lat="45.6329794" lon="8.6787317"><ele>170.0</ele><time>2026-04-26T13:33:58.582Z</time></trkpt><trkpt lat="45.6330077" lon="8.6786438"><ele>170.0</ele><time>2026-04-26T13:34:00.582Z</time></trkpt><trkpt lat="45.6330464" lon="8.6785525"><ele>170.0</ele><time>2026-04-26T13:34:02.582Z</time></trkpt><trkpt lat="45.633072" lon="8.6784485"><ele>170.0</ele><time>2026-04-26T13:34:05.582Z</time></trkpt><trkpt lat="45.6330895" lon="8.6783447"><ele>170.0</ele><time>2026-04-26T13:34:08.583Z</time></trkpt><trkpt lat="45.6331052" lon="8.6782217"><ele>170.0</ele><time>2026-04-26T13:34:11.582Z</time></trkpt><trkpt lat="45.6331581" lon="8.6781076"><ele>171.33333333333331</ele><time>2026-04-26T13:34:14.582Z</time></trkpt><trkpt lat="45.6332184" lon="8.6780055"><ele>172.66666666666666</ele><time>2026-04-26T13:34:17.582Z</time></trkpt><trkpt lat="45.6332639" lon="8.677924"><ele>174.0</ele><time>2026-04-26T13:34:20.583Z</time></trkpt><trkpt lat="45.6332945" lon="8.6778446"><ele>175.33333333333334</ele><time>2026-04-26T13:34:23.583Z</time></trkpt><trkpt lat="45.6333354" lon="8.6777405"><ele>176.66666666666669</ele><time>2026-04-26T13:34:26.582Z</time></trkpt><trkpt lat="45.6333691" lon="8.6776311"><ele>178.0</ele><time>2026-04-26T13:34:29.582Z</time></trkpt><trkpt lat="45.6334082" lon="8.6775123"><ele>179.83333333333334</ele><time>2026-04-26T13:34:32.583Z</time></trkpt><trkpt lat="45.6334535" lon="8.6774059"><ele>181.66666666666669</ele><time>2026-04-26T13:34:35.582Z</time></trkpt><trkpt lat="45.6335" lon="8.677321"><ele>183.5</ele><time>2026-04-26T13:34:38.582Z</time></trkpt><trkpt lat="45.6335296" lon="8.6772324"><ele>185.33333333333334</ele><time>2026-04-26T13:34:54.582Z</time></trkpt><trkpt lat="45.6335694" lon="8.6771477"><ele>187.16666666666666</ele><time>2026-04-26T13:34:58.582Z</time></trkpt><trkpt lat="45.6335979" lon="8.6770538"><ele>189.0</ele><time>2026-04-26T13:35:02.582Z</time></trkpt><trkpt lat="45.6336274" lon="8.6769474"><ele>186.57142857142858</ele><time>2026-04-26T13:35:06.582Z</time></trkpt><trkpt lat="45.6336804" lon="8.6768738"><ele>184.14285714285714</ele><time>2026-04-26T13:35:10.583Z</time></trkpt><trkpt lat="45.6337538" lon="8.6768667"><ele>181.71428571428572</ele><time>2026-04-26T13:35:37.582Z</time></trkpt><trkpt lat="45.6336894" lon="8.676872"><ele>179.28571428571428</ele><time>2026-04-26T13:36:21.582Z</time></trkpt><trkpt lat="45.6336965" lon="8.676772"><ele>176.85714285714286</ele><time>2026-04-26T13:37:00.582Z</time></trkpt><trkpt lat="45.6337494" lon="8.6767131"><ele>174.42857142857144</ele><time>2026-04-26T13:37:04.582Z</time></trkpt><trkpt lat="45.6337818" lon="8.6766124"><ele>172.0</ele><time>2026-04-26T13:37:08.582Z</time></trkpt><trkpt lat="45.6338147" lon="8.6764944"><ele>172.00000000000003</ele><time>2026-04-26T13:37:11.582Z</time></trkpt><trkpt lat="45.6338562" lon="8.676398"><ele>172.0</ele><time>2026-04-26T13:37:14.582Z</time></trkpt><trkpt lat="45.6339266" lon="8.6763722"><ele>172.0</ele><time>2026-04-26T13:37:18.583Z</time></trkpt><trkpt lat="45.6338979" lon="8.6762907"><ele>172.0</ele><time>2026-04-26T13:46:13.582Z</time></trkpt><trkpt lat="45.633905" lon="8.6761978"><ele>172.0</ele><time>2026-04-26T13:46:17.582Z</time></trkpt><trkpt lat="45.6338779" lon="8.676099"><ele>172.00000000000003</ele><time>2026-04-26T13:46:22.583Z</time></trkpt><trkpt lat="45.6338718" lon="8.676005"><ele>172.0</ele><time>2026-04-26T13:46:28.582Z</time></trkpt><trkpt lat="45.6338899" lon="8.6759097"><ele>173.42857142857144</ele><time>2026-04-26T13:46:34.652Z</time></trkpt><trkpt lat="45.6339329" lon="8.6758433"><ele>174.85714285714286</ele><time>2026-04-26T13:46:38.582Z</time></trkpt><trkpt lat="45.6339469" lon="8.6757471"><ele>176.28571428571428</ele><time>2026-04-26T13:46:41.582Z</time></trkpt><trkpt lat="45.6339735" lon="8.6756442"><ele>177.71428571428572</ele><time>2026-04-26T13:46:45.667Z</time></trkpt><trkpt lat="45.6340019" lon="8.6755485"><ele>179.14285714285714</ele><time>2026-04-26T13:46:50.582Z</time></trkpt><trkpt lat="45.6340176" lon="8.6754607"><ele>180.57142857142858</ele><time>2026-04-26T13:46:55.582Z</time></trkpt><trkpt lat="45.6340296" lon="8.6753561"><ele>182.0</ele><time>2026-04-26T13:46:59.582Z</time></trkpt><trkpt lat="45.6340283" lon="8.6752465"><ele>182.57142857142858</ele><time>2026-04-26T13:47:03.582Z</time></trkpt><trkpt lat="45.6340379" lon="8.6751406"><ele>183.14285714285714</ele><time>2026-04-26T13:47:08.582Z</time></trkpt><trkpt lat="45.634032" lon="8.675032"><ele>183.71428571428572</ele><time>2026-04-26T13:47:13.582Z</time></trkpt><trkpt lat="45.634033" lon="8.6749369"><ele>184.28571428571428</ele><time>2026-04-26T13:47:17.583Z</time></trkpt><trkpt lat="45.6340508" lon="8.674846"><ele>184.85714285714286</ele><time>2026-04-26T13:47:21.582Z</time></trkpt><trkpt lat="45.6340909" lon="8.6747589"><ele>185.42857142857144</ele><time>2026-04-26T13:47:24.582Z</time></trkpt><trkpt lat="45.6341118" lon="8.6746412"><ele>186.0</ele><time>2026-04-26T13:47:27.582Z</time></trkpt><trkpt lat="45.6340736" lon="8.6745202"><ele>186.0</ele><time>2026-04-26T13:47:30.583Z</time></trkpt><trkpt lat="45.6340314" lon="8.6744411"><ele>186.0</ele><time>2026-04-26T13:47:32.583Z</time></trkpt><trkpt lat="45.6339835" lon="8.6743381"><ele>186.0</ele><time>2026-04-26T13:47:35.582Z</time></trkpt><trkpt lat="45.6339322" lon="8.674248"><ele>186.0</ele><time>2026-04-26T13:47:38.582Z</time></trkpt><trkpt lat="45.6338912" lon="8.6741518"><ele>186.0</ele><time>2026-04-26T13:47:41.582Z</time></trkpt><trkpt lat="45.6338436" lon="8.6740593"><ele>186.0</ele><time>2026-04-26T13:47:44.582Z</time></trkpt><trkpt lat="45.6337907" lon="8.6739872"><ele>186.16666666666666</ele><time>2026-04-26T13:47:47.582Z</time></trkpt><trkpt lat="45.6337367" lon="8.6739151"><ele>186.33333333333334</ele><time>2026-04-26T13:47:51.582Z</time></trkpt><trkpt lat="45.6336968" lon="8.6738377"><ele>186.5</ele><time>2026-04-26T13:47:58.582Z</time></trkpt><trkpt lat="45.633681" lon="8.6737312"><ele>186.66666666666669</ele><time>2026-04-26T13:48:03.582Z</time></trkpt><trkpt lat="45.6336567" lon="8.6736013"><ele>186.83333333333334</ele><time>2026-04-26T13:48:07.582Z</time></trkpt><trkpt lat="45.6336302" lon="8.6735003"><ele>187.0</ele><time>2026-04-26T13:48:11.582Z</time></trkpt><trkpt lat="45.6336123" lon="8.6733951"><ele>188.14285714285714</ele><time>2026-04-26T13:48:17.582Z</time></trkpt><trkpt lat="45.6335568" lon="8.6733459"><ele>189.2857142857143</ele><time>2026-04-26T13:48:24.582Z</time></trkpt><trkpt lat="45.633499" lon="8.6732968"><ele>190.42857142857144</ele><time>2026-04-26T13:48:34.582Z</time></trkpt><trkpt lat="45.633443" lon="8.6732508"><ele>191.57142857142856</ele><time>2026-04-26T13:48:41.582Z</time></trkpt><trkpt lat="45.6334051" lon="8.6731715"><ele>192.71428571428572</ele><time>2026-04-26T13:48:48.583Z</time></trkpt><trkpt lat="45.633389" lon="8.6730815"><ele>193.85714285714286</ele><time>2026-04-26T13:48:54.582Z</time></trkpt><trkpt lat="45.6333711" lon="8.6729907"><ele>195.0</ele><time>2026-04-26T13:49:00.582Z</time></trkpt><trkpt lat="45.6333548" lon="8.6729021"><ele>195.0</ele><time>2026-04-26T13:49:05.582Z</time></trkpt><trkpt lat="45.6333289" lon="8.6728081"><ele>195.0</ele><time>2026-04-26T13:49:12.582Z</time></trkpt><trkpt lat="45.633297" lon="8.672711"><ele>195.0</ele><time>2026-04-26T13:49:19.582Z</time></trkpt><trkpt lat="45.633259" lon="8.6726245"><ele>195.0</ele><time>2026-04-26T13:49:25.582Z</time></trkpt><trkpt lat="45.6332393" lon="8.6725208"><ele>195.0</ele><time>2026-04-26T13:49:31.582Z</time></trkpt><trkpt lat="45.6332223" lon="8.672425"><ele>195.0</ele><time>2026-04-26T13:49:37.582Z</time></trkpt><trkpt lat="45.6332525" lon="8.6723423"><ele>195.0</ele><time>2026-04-26T13:49:46.582Z</time></trkpt><trkpt lat="45.6333216" lon="8.6722942"><ele>196.0</ele><time>2026-04-26T13:49:51.582Z</time></trkpt><trkpt lat="45.6333854" lon="8.672245"><ele>197.0</ele><time>2026-04-26T13:49:57.512Z</time></trkpt><trkpt lat="45.6334528" lon="8.6722215"><ele>198.0</ele><time>2026-04-26T13:50:03.582Z</time></trkpt><trkpt lat="45.6335076" lon="8.6721611"><ele>199.0</ele><time>2026-04-26T13:50:11.582Z</time></trkpt><trkpt lat="45.6335432" lon="8.6720844"><ele>200.0</ele><time>2026-04-26T13:50:17.582Z</time></trkpt><trkpt lat="45.6335131" lon="8.6721831"><ele>201.0</ele><time>2026-04-26T13:50:39.594Z</time></trkpt><trkpt lat="45.6334627" lon="8.6722636"><ele>202.0</ele><time>2026-04-26T13:50:44.582Z</time></trkpt><trkpt lat="45.6333956" lon="8.6722907"><ele>202.0</ele><time>2026-04-26T13:51:49.582Z</time></trkpt><trkpt lat="45.6333355" lon="8.6722394"><ele>202.0</ele><time>2026-04-26T13:51:55.583Z</time></trkpt><trkpt lat="45.6332736" lon="8.6721958"><ele>202.0</ele><time>2026-04-26T13:51:58.582Z</time></trkpt><trkpt lat="45.6332393" lon="8.6720777"><ele>202.0</ele><time>2026-04-26T13:52:03.582Z</time></trkpt><trkpt lat="45.6332378" lon="8.6719491"><ele>202.0</ele><time>2026-04-26T13:52:06.582Z</time></trkpt><trkpt lat="45.633242" lon="8.671857"><ele>202.0</ele><time>2026-04-26T13:52:08.582Z</time></trkpt><trkpt lat="45.633247" lon="8.6717645"><ele>202.0</ele><time>2026-04-26T13:52:10.582Z</time></trkpt><trkpt lat="45.6332517" lon="8.671673"><ele>202.83333333333331</ele><time>2026-04-26T13:52:12.582Z</time></trkpt><trkpt lat="45.6332529" lon="8.6715402"><ele>203.66666666666666</ele><time>2026-04-26T13:52:15.582Z</time></trkpt><trkpt lat="45.6332755" lon="8.6714135"><ele>204.5</ele><time>2026-04-26T13:52:18.582Z</time></trkpt><trkpt lat="45.6332988" lon="8.6713233"><ele>205.33333333333331</ele><time>2026-04-26T13:52:21.582Z</time></trkpt><trkpt lat="45.633324" lon="8.6712011"><ele>206.16666666666666</ele><time>2026-04-26T13:52:23.582Z</time></trkpt><trkpt lat="45.6333496" lon="8.6710826"><ele>207.0</ele><time>2026-04-26T13:52:26.582Z</time></trkpt><trkpt lat="45.6333964" lon="8.6710169"><ele>207.0</ele><time>2026-04-26T13:52:32.582Z</time></trkpt><trkpt lat="45.6333855" lon="8.6711065"><ele>207.0</ele><time>2026-04-26T13:52:35.582Z</time></trkpt><trkpt lat="45.6333553" lon="8.6712255"><ele>207.0</ele><time>2026-04-26T13:52:38.582Z</time></trkpt><trkpt lat="45.6333302" lon="8.6713163"><ele>207.0</ele><time>2026-04-26T13:52:40.583Z</time></trkpt><trkpt lat="45.6333099" lon="8.6714057"><ele>207.0</ele><time>2026-04-26T13:52:42.582Z</time></trkpt><trkpt lat="45.6332926" lon="8.6715017"><ele>207.0</ele><time>2026-04-26T13:52:44.582Z</time></trkpt><trkpt lat="45.6332761" lon="8.6716478"><ele>207.0</ele><time>2026-04-26T13:52:46.583Z</time></trkpt><trkpt lat="45.6332541" lon="8.6717965"><ele>207.0</ele><time>2026-04-26T13:52:48.583Z</time></trkpt><trkpt lat="45.633268" lon="8.6719502"><ele>207.0</ele><time>2026-04-26T13:52:50.583Z</time></trkpt><trkpt lat="45.6332631" lon="8.6721026"><ele>207.0</ele><time>2026-04-26T13:52:52.582Z</time></trkpt><trkpt lat="45.6332609" lon="8.6722173"><ele>207.0</ele><time>2026-04-26T13:52:54.582Z</time></trkpt><trkpt lat="45.6332466" lon="8.6723518"><ele>206.16666666666666</ele><time>2026-04-26T13:52:56.582Z</time></trkpt><trkpt lat="45.63323" lon="8.6725014"><ele>205.33333333333331</ele><time>2026-04-26T13:52:58.582Z</time></trkpt><trkpt lat="45.6332185" lon="8.6725902"><ele>204.5</ele><time>2026-04-26T13:52:59.582Z</time></trkpt><trkpt lat="45.6332002" lon="8.6726828"><ele>203.66666666666666</ele><time>2026-04-26T13:53:00.582Z</time></trkpt><trkpt lat="45.6331828" lon="8.672784"><ele>202.83333333333331</ele><time>2026-04-26T13:53:01.582Z</time></trkpt><trkpt lat="45.6331668" lon="8.6728873"><ele>202.0</ele><time>2026-04-26T13:53:02.582Z</time></trkpt><trkpt lat="45.6331509" lon="8.673005"><ele>201.16666666666666</ele><time>2026-04-26T13:53:03.582Z</time></trkpt><trkpt lat="45.6331355" lon="8.6731204"><ele>200.33333333333331</ele><time>2026-04-26T13:53:04.582Z</time></trkpt><trkpt lat="45.6331229" lon="8.673244"><ele>199.5</ele><time>2026-04-26T13:53:05.583Z</time></trkpt><trkpt lat="45.6331099" lon="8.6733691"><ele>198.66666666666669</ele><time>2026-04-26T13:53:06.582Z</time></trkpt><trkpt lat="45.6330985" lon="8.6734904"><ele>197.83333333333334</ele><time>2026-04-26T13:53:07.583Z</time></trkpt><trkpt lat="45.6330846" lon="8.6736148"><ele>197.0</ele><time>2026-04-26T13:53:08.582Z</time></trkpt><trkpt lat="45.6330676" lon="8.6737387"><ele>197.00000000000003</ele><time>2026-04-26T13:53:09.583Z</time></trkpt><trkpt lat="45.6330533" lon="8.6738608"><ele>197.0</ele><time>2026-04-26T13:53:10.582Z</time></trkpt><trkpt lat="45.6330323" lon="8.6739779"><ele>197.0</ele><time>2026-04-26T13:53:11.582Z</time></trkpt><trkpt lat="45.6329976" lon="8.6740866"><ele>197.0</ele><time>2026-04-26T13:53:12.582Z</time></trkpt><trkpt lat="45.6329733" lon="8.6741854"><ele>197.00000000000003</ele><time>2026-04-26T13:53:13.582Z</time></trkpt><trkpt lat="45.6329426" lon="8.6742765"><ele>197.0</ele><time>2026-04-26T13:53:14.582Z</time></trkpt><trkpt lat="45.6329085" lon="8.6743524"><ele>197.0</ele><time>2026-04-26T13:53:15.583Z</time></trkpt><trkpt lat="45.6328744" lon="8.6744296"><ele>197.0</ele><time>2026-04-26T13:53:16.582Z</time></trkpt><trkpt lat="45.6328098" lon="8.6745601"><ele>197.0</ele><time>2026-04-26T13:53:18.582Z</time></trkpt><trkpt lat="45.6327595" lon="8.6746776"><ele>197.0</ele><time>2026-04-26T13:53:20.582Z</time></trkpt><trkpt lat="45.6327097" lon="8.6747888"><ele>197.0</ele><time>2026-04-26T13:53:22.582Z</time></trkpt><trkpt lat="45.6326563" lon="8.6748882"><ele>198.50000000000003</ele><time>2026-04-26T13:53:24.582Z</time></trkpt><trkpt lat="45.6326143" lon="8.674978"><ele>200.0</ele><time>2026-04-26T13:53:26.583Z</time></trkpt><trkpt lat="45.6325815" lon="8.6750566"><ele>201.5</ele><time>2026-04-26T13:53:28.582Z</time></trkpt><trkpt lat="45.6325429" lon="8.6751312"><ele>203.0</ele><time>2026-04-26T13:53:30.582Z</time></trkpt><trkpt lat="45.6324989" lon="8.6752378"><ele>204.50000000000003</ele><time>2026-04-26T13:53:33.583Z</time></trkpt><trkpt lat="45.6324692" lon="8.6753621"><ele>206.0</ele><time>2026-04-26T13:53:36.582Z</time></trkpt><trkpt lat="45.632449" lon="8.6754773"><ele>206.00000000000003</ele><time>2026-04-26T13:53:39.582Z</time></trkpt><trkpt lat="45.6324215" lon="8.6755897"><ele>206.0</ele><time>2026-04-26T13:53:42.582Z</time></trkpt><trkpt lat="45.6324017" lon="8.6757183"><ele>206.0</ele><time>2026-04-26T13:53:45.582Z</time></trkpt><trkpt lat="45.6323885" lon="8.675815"><ele>206.0</ele><time>2026-04-26T13:53:47.582Z</time></trkpt><trkpt lat="45.6323722" lon="8.6759091"><ele>206.00000000000003</ele><time>2026-04-26T13:53:49.582Z</time></trkpt><trkpt lat="45.6323537" lon="8.6760091"><ele>206.0</ele><time>2026-04-26T13:53:51.582Z</time></trkpt><trkpt lat="45.6323322" lon="8.6761107"><ele>206.00000000000003</ele><time>2026-04-26T13:53:53.582Z</time></trkpt><trkpt lat="45.6323089" lon="8.6762183"><ele>206.0</ele><time>2026-04-26T13:53:55.582Z</time></trkpt><trkpt lat="45.632289" lon="8.6763226"><ele>206.0</ele><time>2026-04-26T13:53:57.582Z</time></trkpt><trkpt lat="45.6322733" lon="8.676427"><ele>206.0</ele><time>2026-04-26T13:53:59.583Z</time></trkpt><trkpt lat="45.6322513" lon="8.6765279"><ele>206.00000000000003</ele><time>2026-04-26T13:54:01.583Z</time></trkpt><trkpt lat="45.6322288" lon="8.6766321"><ele>206.0</ele><time>2026-04-26T13:54:03.582Z</time></trkpt><trkpt lat="45.63221" lon="8.6767355"><ele>205.99999999999997</ele><time>2026-04-26T13:54:05.582Z</time></trkpt><trkpt lat="45.6321911" lon="8.6768348"><ele>206.0</ele><time>2026-04-26T13:54:07.582Z</time></trkpt><trkpt lat="45.6321669" lon="8.6769331"><ele>206.0</ele><time>2026-04-26T13:54:09.582Z</time></trkpt><trkpt lat="45.6321466" lon="8.6770346"><ele>206.0</ele><time>2026-04-26T13:54:11.583Z</time></trkpt><trkpt lat="45.6321282" lon="8.6771341"><ele>206.0</ele><time>2026-04-26T13:54:13.582Z</time></trkpt><trkpt lat="45.632111" lon="8.6772382"><ele>205.99999999999997</ele><time>2026-04-26T13:54:15.582Z</time></trkpt><trkpt lat="45.6320945" lon="8.6773486"><ele>206.0</ele><time>2026-04-26T13:54:17.582Z</time></trkpt><trkpt lat="45.6320788" lon="8.6774553"><ele>206.00000000000003</ele><time>2026-04-26T13:54:19.582Z</time></trkpt><trkpt lat="45.6320445" lon="8.6776133"><ele>206.0</ele><time>2026-04-26T13:54:22.583Z</time></trkpt><trkpt lat="45.6320268" lon="8.6777187"><ele>206.0</ele><time>2026-04-26T13:54:24.582Z</time></trkpt><trkpt lat="45.6320122" lon="8.6778281"><ele>206.0</ele><time>2026-04-26T13:54:26.582Z</time></trkpt><trkpt lat="45.6319977" lon="8.6779359"><ele>206.00000000000003</ele><time>2026-04-26T13:54:28.583Z</time></trkpt><trkpt lat="45.6319891" lon="8.6780471"><ele>206.0</ele><time>2026-04-26T13:54:30.582Z</time></trkpt><trkpt lat="45.6319878" lon="8.6781581"><ele>205.66666666666669</ele><time>2026-04-26T13:54:32.582Z</time></trkpt><trkpt lat="45.6319931" lon="8.6782701"><ele>205.33333333333334</ele><time>2026-04-26T13:54:34.582Z</time></trkpt><trkpt lat="45.6319978" lon="8.6783904"><ele>205.0</ele><time>2026-04-26T13:54:36.582Z</time></trkpt><trkpt lat="45.6320046" lon="8.6785093"><ele>204.66666666666669</ele><time>2026-04-26T13:54:38.582Z</time></trkpt><trkpt lat="45.6320145" lon="8.6786235"><ele>204.33333333333334</ele><time>2026-04-26T13:54:40.582Z</time></trkpt><trkpt lat="45.6320198" lon="8.6787361"><ele>204.0</ele><time>2026-04-26T13:54:42.582Z</time></trkpt><trkpt lat="45.6320292" lon="8.6788517"><ele>203.6</ele><time>2026-04-26T13:54:44.582Z</time></trkpt><trkpt lat="45.6320382" lon="8.6789832"><ele>203.2</ele><time>2026-04-26T13:54:46.583Z</time></trkpt><trkpt lat="45.6320421" lon="8.6791264"><ele>202.79999999999998</ele><time>2026-04-26T13:54:48.583Z</time></trkpt><trkpt lat="45.6320498" lon="8.6792821"><ele>202.39999999999998</ele><time>2026-04-26T13:54:50.582Z</time></trkpt><trkpt lat="45.6320588" lon="8.6794411"><ele>202.0</ele><time>2026-04-26T13:54:52.583Z</time></trkpt><trkpt lat="45.6320687" lon="8.6796021"><ele>201.16666666666666</ele><time>2026-04-26T13:54:54.582Z</time></trkpt><trkpt lat="45.6320748" lon="8.6797739"><ele>200.33333333333331</ele><time>2026-04-26T13:54:56.582Z</time></trkpt><trkpt lat="45.6320794" lon="8.6798649"><ele>199.5</ele><time>2026-04-26T13:54:57.582Z</time></trkpt><trkpt lat="45.6320853" lon="8.6799563"><ele>198.66666666666669</ele><time>2026-04-26T13:54:58.582Z</time></trkpt><trkpt lat="45.6320882" lon="8.68005"><ele>197.83333333333334</ele><time>2026-04-26T13:54:59.582Z</time></trkpt><trkpt lat="45.6320955" lon="8.6801489"><ele>197.0</ele><time>2026-04-26T13:55:00.582Z</time></trkpt><trkpt lat="45.6321006" lon="8.680248"><ele>197.28571428571428</ele><time>2026-04-26T13:55:01.582Z</time></trkpt><trkpt lat="45.6321012" lon="8.6803465"><ele>197.57142857142858</ele><time>2026-04-26T13:55:02.582Z</time></trkpt><trkpt lat="45.6321102" lon="8.6804473"><ele>197.85714285714283</ele><time>2026-04-26T13:55:03.582Z</time></trkpt><trkpt lat="45.6321134" lon="8.6805518"><ele>198.14285714285714</ele><time>2026-04-26T13:55:04.582Z</time></trkpt><trkpt lat="45.632119" lon="8.680651"><ele>198.42857142857142</ele><time>2026-04-26T13:55:05.582Z</time></trkpt><trkpt lat="45.632127" lon="8.680755"><ele>198.7142857142857</ele><time>2026-04-26T13:55:06.582Z</time></trkpt><trkpt lat="45.6321337" lon="8.6808571"><ele>199.0</ele><time>2026-04-26T13:55:07.583Z</time></trkpt><trkpt lat="45.6321379" lon="8.6809601"><ele>198.99999999999997</ele><time>2026-04-26T13:55:08.582Z</time></trkpt><trkpt lat="45.6321421" lon="8.6810671"><ele>199.0</ele><time>2026-04-26T13:55:09.582Z</time></trkpt><trkpt lat="45.6321441" lon="8.6811727"><ele>199.0</ele><time>2026-04-26T13:55:10.583Z</time></trkpt><trkpt lat="45.6321371" lon="8.6812806"><ele>199.0</ele><time>2026-04-26T13:55:11.582Z</time></trkpt><trkpt lat="45.6321247" lon="8.6813888"><ele>198.99999999999997</ele><time>2026-04-26T13:55:12.582Z</time></trkpt><trkpt lat="45.6321109" lon="8.6814973"><ele>199.0</ele><time>2026-04-26T13:55:13.582Z</time></trkpt><trkpt lat="45.6320981" lon="8.6816068"><ele>198.83333333333331</ele><time>2026-04-26T13:55:14.583Z</time></trkpt><trkpt lat="45.6320833" lon="8.6817176"><ele>198.66666666666666</ele><time>2026-04-26T13:55:15.582Z</time></trkpt><trkpt lat="45.6320655" lon="8.6818289"><ele>198.5</ele><time>2026-04-26T13:55:16.582Z</time></trkpt><trkpt lat="45.6320513" lon="8.6819382"><ele>198.33333333333331</ele><time>2026-04-26T13:55:17.583Z</time></trkpt><trkpt lat="45.6320385" lon="8.6820491"><ele>198.16666666666666</ele><time>2026-04-26T13:55:18.582Z</time></trkpt><trkpt lat="45.6320263" lon="8.6821591"><ele>198.0</ele><time>2026-04-26T13:55:19.582Z</time></trkpt><trkpt lat="45.632013" lon="8.6822686"><ele>198.0</ele><time>2026-04-26T13:55:20.582Z</time></trkpt><trkpt lat="45.6320002" lon="8.6823748"><ele>198.0</ele><time>2026-04-26T13:55:21.582Z</time></trkpt><trkpt lat="45.6319892" lon="8.6824832"><ele>198.0</ele><time>2026-04-26T13:55:22.582Z</time></trkpt><trkpt lat="45.6319767" lon="8.6825894"><ele>198.0</ele><time>2026-04-26T13:55:23.582Z</time></trkpt><trkpt lat="45.6319609" lon="8.6826946"><ele>198.0</ele><time>2026-04-26T13:55:24.582Z</time></trkpt><trkpt lat="45.6319465" lon="8.6827976"><ele>198.0</ele><time>2026-04-26T13:55:25.582Z</time></trkpt><trkpt lat="45.6319325" lon="8.6829041"><ele>197.42857142857144</ele><time>2026-04-26T13:55:26.582Z</time></trkpt><trkpt lat="45.6319186" lon="8.6830112"><ele>196.85714285714283</ele><time>2026-04-26T13:55:27.582Z</time></trkpt><trkpt lat="45.6319029" lon="8.6831203"><ele>196.28571428571428</ele><time>2026-04-26T13:55:28.582Z</time></trkpt><trkpt lat="45.6318848" lon="8.6832236"><ele>195.71428571428572</ele><time>2026-04-26T13:55:29.583Z</time></trkpt><trkpt lat="45.6318677" lon="8.6833296"><ele>195.14285714285717</ele><time>2026-04-26T13:55:30.582Z</time></trkpt><trkpt lat="45.6318546" lon="8.6834329"><ele>194.57142857142856</ele><time>2026-04-26T13:55:31.582Z</time></trkpt><trkpt lat="45.6318445" lon="8.6835301"><ele>194.0</ele><time>2026-04-26T13:55:32.583Z</time></trkpt><trkpt lat="45.6318347" lon="8.6836212"><ele>194.00000000000003</ele><time>2026-04-26T13:55:33.582Z</time></trkpt><trkpt lat="45.6318048" lon="8.6837502"><ele>194.0</ele><time>2026-04-26T13:55:35.582Z</time></trkpt><trkpt lat="45.6317914" lon="8.6838687"><ele>194.0</ele><time>2026-04-26T13:55:37.582Z</time></trkpt><trkpt lat="45.6317752" lon="8.6839819"><ele>194.0</ele><time>2026-04-26T13:55:39.582Z</time></trkpt><trkpt lat="45.6317563" lon="8.6840999"><ele>194.00000000000003</ele><time>2026-04-26T13:55:42.583Z</time></trkpt><trkpt lat="45.631741" lon="8.6842055"><ele>194.0</ele><time>2026-04-26T13:56:04.583Z</time></trkpt><trkpt lat="45.631718" lon="8.6843271"><ele>194.66666666666669</ele><time>2026-04-26T13:56:08.582Z</time></trkpt><trkpt lat="45.6316994" lon="8.6844551"><ele>195.33333333333334</ele><time>2026-04-26T13:56:11.582Z</time></trkpt><trkpt lat="45.6316823" lon="8.68455"><ele>196.0</ele><time>2026-04-26T13:56:13.582Z</time></trkpt><trkpt lat="45.6316606" lon="8.6846851"><ele>196.66666666666669</ele><time>2026-04-26T13:56:16.583Z</time></trkpt><trkpt lat="45.631645" lon="8.6847993"><ele>197.33333333333334</ele><time>2026-04-26T13:56:19.582Z</time></trkpt><trkpt lat="45.6316993" lon="8.6847252"><ele>198.0</ele><time>2026-04-26T13:56:24.582Z</time></trkpt><trkpt lat="45.6317096" lon="8.6846281"><ele>198.0</ele><time>2026-04-26T13:56:26.582Z</time></trkpt><trkpt lat="45.6317257" lon="8.6845209"><ele>198.0</ele><time>2026-04-26T13:56:28.582Z</time></trkpt><trkpt lat="45.6317448" lon="8.6844118"><ele>198.0</ele><time>2026-04-26T13:56:30.583Z</time></trkpt><trkpt lat="45.6317644" lon="8.6843011"><ele>198.0</ele><time>2026-04-26T13:56:32.582Z</time></trkpt><trkpt lat="45.6317804" lon="8.6841928"><ele>198.0</ele><time>2026-04-26T13:56:34.582Z</time></trkpt><trkpt lat="45.6317988" lon="8.684077"><ele>198.0</ele><time>2026-04-26T13:56:36.582Z</time></trkpt><trkpt lat="45.6318099" lon="8.6839488"><ele>197.2</ele><time>2026-04-26T13:56:38.582Z</time></trkpt><trkpt lat="45.6318303" lon="8.6838314"><ele>196.4</ele><time>2026-04-26T13:56:40.582Z</time></trkpt><trkpt lat="45.6318883" lon="8.6837378"><ele>195.6</ele><time>2026-04-26T13:56:42.582Z</time></trkpt><trkpt lat="45.6319798" lon="8.6837236"><ele>194.79999999999998</ele><time>2026-04-26T13:56:44.582Z</time></trkpt><trkpt lat="45.6320652" lon="8.6837596"><ele>194.0</ele><time>2026-04-26T13:56:46.582Z</time></trkpt><trkpt lat="45.632172" lon="8.6838113"><ele>193.79999999999998</ele><time>2026-04-26T13:56:48.582Z</time></trkpt><trkpt lat="45.6322996" lon="8.6838662"><ele>193.6</ele><time>2026-04-26T13:56:50.582Z</time></trkpt><trkpt lat="45.6323699" lon="8.6839177"><ele>193.4</ele><time>2026-04-26T13:56:51.582Z</time></trkpt><trkpt lat="45.6324355" lon="8.6839817"><ele>193.2</ele><time>2026-04-26T13:56:52.582Z</time></trkpt><trkpt lat="45.6325016" lon="8.6840595"><ele>193.0</ele><time>2026-04-26T13:56:53.582Z</time></trkpt><trkpt lat="45.6325659" lon="8.6841607"><ele>192.99999999999997</ele><time>2026-04-26T13:56:54.582Z</time></trkpt><trkpt lat="45.6326185" lon="8.6842388"><ele>193.0</ele><time>2026-04-26T13:56:55.582Z</time></trkpt><trkpt lat="45.632669" lon="8.6843208"><ele>193.0</ele><time>2026-04-26T13:56:56.582Z</time></trkpt><trkpt lat="45.6327125" lon="8.6844159"><ele>193.0</ele><time>2026-04-26T13:56:57.582Z</time></trkpt><trkpt lat="45.6327628" lon="8.6845182"><ele>192.99999999999997</ele><time>2026-04-26T13:56:58.582Z</time></trkpt><trkpt lat="45.6328059" lon="8.6846145"><ele>193.0</ele><time>2026-04-26T13:56:59.582Z</time></trkpt><trkpt lat="45.6328484" lon="8.6847146"><ele>192.16666666666666</ele><time>2026-04-26T13:57:00.582Z</time></trkpt><trkpt lat="45.6328872" lon="8.6848183"><ele>191.33333333333331</ele><time>2026-04-26T13:57:01.582Z</time></trkpt><trkpt lat="45.6329356" lon="8.68492"><ele>190.5</ele><time>2026-04-26T13:57:02.582Z</time></trkpt><trkpt lat="45.6329912" lon="8.6850219"><ele>189.66666666666666</ele><time>2026-04-26T13:57:03.582Z</time></trkpt><trkpt lat="45.6330206" lon="8.6851286"><ele>188.83333333333331</ele><time>2026-04-26T13:57:04.582Z</time></trkpt><trkpt lat="45.6330612" lon="8.6852239"><ele>188.0</ele><time>2026-04-26T13:57:05.582Z</time></trkpt><trkpt lat="45.6330894" lon="8.6853096"><ele>188.0</ele><time>2026-04-26T13:57:06.583Z</time></trkpt><trkpt lat="45.6331261" lon="8.6853848"><ele>188.0</ele><time>2026-04-26T13:57:07.582Z</time></trkpt><trkpt lat="45.6331709" lon="8.685466"><ele>188.0</ele><time>2026-04-26T13:57:08.582Z</time></trkpt><trkpt lat="45.6332036" lon="8.6855522"><ele>188.0</ele><time>2026-04-26T13:57:09.582Z</time></trkpt><trkpt lat="45.6332691" lon="8.6857205"><ele>188.0</ele><time>2026-04-26T13:57:11.582Z</time></trkpt><trkpt lat="45.6333407" lon="8.6858955"><ele>188.0</ele><time>2026-04-26T13:57:13.583Z</time></trkpt><trkpt lat="45.6333745" lon="8.6859782"><ele>188.0</ele><time>2026-04-26T13:57:14.583Z</time></trkpt><trkpt lat="45.6334007" lon="8.6860669"><ele>188.0</ele><time>2026-04-26T13:57:15.582Z</time></trkpt><trkpt lat="45.6334293" lon="8.6861498"><ele>188.0</ele><time>2026-04-26T13:57:16.582Z</time></trkpt><trkpt lat="45.6334655" lon="8.6862393"><ele>188.0</ele><time>2026-04-26T13:57:17.582Z</time></trkpt><trkpt lat="45.6335116" lon="8.6863009"><ele>188.0</ele><time>2026-04-26T13:57:18.582Z</time></trkpt><trkpt lat="45.6335328" lon="8.6863968"><ele>188.0</ele><time>2026-04-26T13:57:19.582Z</time></trkpt><trkpt lat="45.6335971" lon="8.6865444"><ele>188.33333333333331</ele><time>2026-04-26T13:57:21.582Z</time></trkpt><trkpt lat="45.6336445" lon="8.6866316"><ele>188.66666666666666</ele><time>2026-04-26T13:57:29.583Z</time></trkpt><trkpt lat="45.6336701" lon="8.6867155"><ele>189.0</ele><time>2026-04-26T13:57:32.583Z</time></trkpt><trkpt lat="45.633727" lon="8.6868281"><ele>189.33333333333334</ele><time>2026-04-26T13:57:35.582Z</time></trkpt><trkpt lat="45.633772" lon="8.6869124"><ele>189.66666666666669</ele><time>2026-04-26T13:57:37.582Z</time></trkpt><trkpt lat="45.6338121" lon="8.6870147"><ele>190.0</ele><time>2026-04-26T13:57:39.582Z</time></trkpt><trkpt lat="45.6338572" lon="8.6871227"><ele>190.0</ele><time>2026-04-26T13:57:41.582Z</time></trkpt><trkpt lat="45.6339105" lon="8.6872442"><ele>190.0</ele><time>2026-04-26T13:57:43.582Z</time></trkpt><trkpt lat="45.6339528" lon="8.6873708"><ele>190.0</ele><time>2026-04-26T13:57:45.582Z</time></trkpt><trkpt lat="45.6339929" lon="8.6874986"><ele>190.0</ele><time>2026-04-26T13:57:47.582Z</time></trkpt><trkpt lat="45.6340452" lon="8.6876274"><ele>190.0</ele><time>2026-04-26T13:57:49.582Z</time></trkpt><trkpt lat="45.6341022" lon="8.6877509"><ele>190.8</ele><time>2026-04-26T13:57:51.582Z</time></trkpt><trkpt lat="45.6341583" lon="8.6878776"><ele>191.6</ele><time>2026-04-26T13:57:53.582Z</time></trkpt><trkpt lat="45.6342176" lon="8.6879987"><ele>192.39999999999998</ele><time>2026-04-26T13:57:55.582Z</time></trkpt><trkpt lat="45.6342783" lon="8.6881229"><ele>193.2</ele><time>2026-04-26T13:57:57.583Z</time></trkpt><trkpt lat="45.6343429" lon="8.6882426"><ele>194.0</ele><time>2026-04-26T13:57:59.582Z</time></trkpt><trkpt lat="45.6344112" lon="8.6883586"><ele>193.39999999999998</ele><time>2026-04-26T13:58:01.582Z</time></trkpt><trkpt lat="45.6344803" lon="8.6884741"><ele>192.8</ele><time>2026-04-26T13:58:03.582Z</time></trkpt><trkpt lat="45.6345528" lon="8.6885879"><ele>192.2</ele><time>2026-04-26T13:58:05.582Z</time></trkpt><trkpt lat="45.6346255" lon="8.6886976"><ele>191.60000000000002</ele><time>2026-04-26T13:58:07.583Z</time></trkpt><trkpt lat="45.634702" lon="8.6888005"><ele>191.0</ele><time>2026-04-26T13:58:09.582Z</time></trkpt><trkpt lat="45.6347814" lon="8.6888993"><ele>191.0</ele><time>2026-04-26T13:58:11.582Z</time></trkpt><trkpt lat="45.6348613" lon="8.6889893"><ele>191.0</ele><time>2026-04-26T13:58:13.583Z</time></trkpt><trkpt lat="45.6349485" lon="8.6890782"><ele>191.0</ele><time>2026-04-26T13:58:15.582Z</time></trkpt><trkpt lat="45.6350347" lon="8.6891656"><ele>191.0</ele><time>2026-04-26T13:58:17.582Z</time></trkpt><trkpt lat="45.6351271" lon="8.6892448"><ele>191.0</ele><time>2026-04-26T13:58:19.582Z</time></trkpt><trkpt lat="45.635223" lon="8.6893238"><ele>191.0</ele><time>2026-04-26T13:58:21.583Z</time></trkpt><trkpt lat="45.6353117" lon="8.6894117"><ele>191.0</ele><time>2026-04-26T13:58:23.583Z</time></trkpt><trkpt lat="45.6354026" lon="8.6894967"><ele>191.0</ele><time>2026-04-26T13:58:25.582Z</time></trkpt><trkpt lat="45.6354966" lon="8.6895745"><ele>191.0</ele><time>2026-04-26T13:58:27.582Z</time></trkpt><trkpt lat="45.6355591" lon="8.6896122"><ele>191.0</ele><time>2026-04-26T13:58:28.583Z</time></trkpt><trkpt lat="45.6356493" lon="8.6896781"><ele>191.5</ele><time>2026-04-26T13:58:30.582Z</time></trkpt><trkpt lat="45.6357584" lon="8.6897256"><ele>192.0</ele><time>2026-04-26T13:58:32.582Z</time></trkpt><trkpt lat="45.6358646" lon="8.6897819"><ele>192.5</ele><time>2026-04-26T13:58:34.583Z</time></trkpt><trkpt lat="45.6359704" lon="8.6898477"><ele>193.0</ele><time>2026-04-26T13:58:36.582Z</time></trkpt><trkpt lat="45.6360754" lon="8.6898917"><ele>192.4</ele><time>2026-04-26T13:58:38.583Z</time></trkpt><trkpt lat="45.6361798" lon="8.689927"><ele>191.8</ele><time>2026-04-26T13:58:40.582Z</time></trkpt><trkpt lat="45.6362874" lon="8.6899663"><ele>191.2</ele><time>2026-04-26T13:58:42.582Z</time></trkpt><trkpt lat="45.6363934" lon="8.6899943"><ele>190.6</ele><time>2026-04-26T13:58:44.582Z</time></trkpt><trkpt lat="45.6365007" lon="8.6900234"><ele>190.0</ele><time>2026-04-26T13:58:46.582Z</time></trkpt><trkpt lat="45.6366088" lon="8.6900404"><ele>190.0</ele><time>2026-04-26T13:58:48.582Z</time></trkpt><trkpt lat="45.6367193" lon="8.6900518"><ele>190.0</ele><time>2026-04-26T13:58:50.582Z</time></trkpt><trkpt lat="45.6368296" lon="8.6900584"><ele>190.0</ele><time>2026-04-26T13:58:52.582Z</time></trkpt><trkpt lat="45.6369409" lon="8.6900745"><ele>190.0</ele><time>2026-04-26T13:58:54.582Z</time></trkpt><trkpt lat="45.637047" lon="8.6900803"><ele>190.0</ele><time>2026-04-26T13:58:56.582Z</time></trkpt><trkpt lat="45.6371549" lon="8.690084"><ele>189.4</ele><time>2026-04-26T13:58:58.582Z</time></trkpt><trkpt lat="45.6372659" lon="8.6900869"><ele>188.8</ele><time>2026-04-26T13:59:00.582Z</time></trkpt><trkpt lat="45.6373797" lon="8.6900769"><ele>188.2</ele><time>2026-04-26T13:59:02.582Z</time></trkpt><trkpt lat="45.637485" lon="8.690084"><ele>187.6</ele><time>2026-04-26T13:59:04.582Z</time></trkpt><trkpt lat="45.6375991" lon="8.690085"><ele>187.0</ele><time>2026-04-26T13:59:06.582Z</time></trkpt><trkpt lat="45.6377094" lon="8.6900869"><ele>186.0</ele><time>2026-04-26T13:59:08.583Z</time></trkpt><trkpt lat="45.637831" lon="8.6901073"><ele>185.0</ele><time>2026-04-26T13:59:10.582Z</time></trkpt><trkpt lat="45.6379461" lon="8.6901294"><ele>184.0</ele><time>2026-04-26T13:59:12.583Z</time></trkpt><trkpt lat="45.6380612" lon="8.6901599"><ele>183.0</ele><time>2026-04-26T13:59:14.582Z</time></trkpt><trkpt lat="45.6381777" lon="8.6901956"><ele>183.0</ele><time>2026-04-26T13:59:16.582Z</time></trkpt><trkpt lat="45.6382388" lon="8.6902235"><ele>183.0</ele><time>2026-04-26T13:59:17.582Z</time></trkpt><trkpt lat="45.6383414" lon="8.6902647"><ele>183.0</ele><time>2026-04-26T13:59:19.582Z</time></trkpt><trkpt lat="45.6384536" lon="8.6902941"><ele>183.0</ele><time>2026-04-26T13:59:21.582Z</time></trkpt><trkpt lat="45.6385458" lon="8.6903499"><ele>183.0</ele><time>2026-04-26T13:59:23.582Z</time></trkpt><trkpt lat="45.6386153" lon="8.6903672"><ele>184.0</ele><time>2026-04-26T13:59:24.582Z</time></trkpt><trkpt lat="45.6387302" lon="8.6904115"><ele>185.0</ele><time>2026-04-26T13:59:26.582Z</time></trkpt><trkpt lat="45.6388055" lon="8.6904291"><ele>186.0</ele><time>2026-04-26T13:59:27.582Z</time></trkpt><trkpt lat="45.6389093" lon="8.6904698"><ele>187.0</ele><time>2026-04-26T13:59:29.582Z</time></trkpt><trkpt lat="45.6389948" lon="8.6905039"><ele>188.0</ele><time>2026-04-26T13:59:31.582Z</time></trkpt><trkpt lat="45.639097" lon="8.6905363"><ele>188.0</ele><time>2026-04-26T13:59:33.582Z</time></trkpt><trkpt lat="45.6392022" lon="8.6905717"><ele>188.0</ele><time>2026-04-26T13:59:35.582Z</time></trkpt><trkpt lat="45.6393084" lon="8.6906182"><ele>188.0</ele><time>2026-04-26T13:59:37.582Z</time></trkpt><trkpt lat="45.6394249" lon="8.6906489"><ele>188.0</ele><time>2026-04-26T13:59:39.583Z</time></trkpt><trkpt lat="45.6394921" lon="8.6906617"><ele>188.0</ele><time>2026-04-26T13:59:40.582Z</time></trkpt><trkpt lat="45.6396148" lon="8.6906855"><ele>187.75</ele><time>2026-04-26T13:59:42.582Z</time></trkpt><trkpt lat="45.6397282" lon="8.6907449"><ele>187.5</ele><time>2026-04-26T13:59:44.582Z</time></trkpt><trkpt lat="45.6398371" lon="8.6907739"><ele>187.25</ele><time>2026-04-26T13:59:46.583Z</time></trkpt><trkpt lat="45.6399448" lon="8.6908098"><ele>187.0</ele><time>2026-04-26T13:59:48.583Z</time></trkpt><trkpt lat="45.6400562" lon="8.6908509"><ele>187.0</ele><time>2026-04-26T13:59:50.582Z</time></trkpt><trkpt lat="45.640164" lon="8.6908911"><ele>187.0</ele><time>2026-04-26T13:59:52.583Z</time></trkpt><trkpt lat="45.6402709" lon="8.6909137"><ele>187.0</ele><time>2026-04-26T13:59:54.582Z</time></trkpt><trkpt lat="45.6403778" lon="8.6909562"><ele>187.0</ele><time>2026-04-26T13:59:56.582Z</time></trkpt><trkpt lat="45.6404392" lon="8.6909844"><ele>187.0</ele><time>2026-04-26T13:59:57.582Z</time></trkpt><trkpt lat="45.6405415" lon="8.6910185"><ele>187.0</ele><time>2026-04-26T13:59:59.583Z</time></trkpt><trkpt lat="45.6406608" lon="8.6910468"><ele>187.0</ele><time>2026-04-26T14:00:01.582Z</time></trkpt><trkpt lat="45.6407624" lon="8.6910471"><ele>187.0</ele><time>2026-04-26T14:00:03.582Z</time></trkpt><trkpt lat="45.6408291" lon="8.6910727"><ele>187.0</ele><time>2026-04-26T14:00:04.582Z</time></trkpt><trkpt lat="45.6409298" lon="8.6910951"><ele>187.0</ele><time>2026-04-26T14:00:06.582Z</time></trkpt><trkpt lat="45.6410267" lon="8.6911569"><ele>186.8</ele><time>2026-04-26T14:00:08.582Z</time></trkpt><trkpt lat="45.6411394" lon="8.6911979"><ele>186.6</ele><time>2026-04-26T14:00:10.582Z</time></trkpt><trkpt lat="45.6412632" lon="8.6912126"><ele>186.4</ele><time>2026-04-26T14:00:12.582Z</time></trkpt><trkpt lat="45.6413624" lon="8.6912394"><ele>186.20000000000002</ele><time>2026-04-26T14:00:14.582Z</time></trkpt><trkpt lat="45.6414559" lon="8.6912789"><ele>186.0</ele><time>2026-04-26T14:00:16.583Z</time></trkpt><trkpt lat="45.6415318" lon="8.6912808"><ele>186.0</ele><time>2026-04-26T14:00:17.582Z</time></trkpt><trkpt lat="45.6416383" lon="8.6912858"><ele>186.0</ele><time>2026-04-26T14:00:19.582Z</time></trkpt><trkpt lat="45.641704" lon="8.6912872"><ele>186.0</ele><time>2026-04-26T14:00:20.582Z</time></trkpt><trkpt lat="45.6418167" lon="8.691303"><ele>186.0</ele><time>2026-04-26T14:00:22.582Z</time></trkpt><trkpt lat="45.6419323" lon="8.6913064"><ele>186.0</ele><time>2026-04-26T14:00:24.582Z</time></trkpt><trkpt lat="45.6420313" lon="8.6913074"><ele>186.20000000000002</ele><time>2026-04-26T14:00:26.582Z</time></trkpt><trkpt lat="45.6421424" lon="8.6913334"><ele>186.4</ele><time>2026-04-26T14:00:28.582Z</time></trkpt><trkpt lat="45.6422112" lon="8.6913277"><ele>186.6</ele><time>2026-04-26T14:00:29.582Z</time></trkpt><trkpt lat="45.6423271" lon="8.6913391"><ele>186.8</ele><time>2026-04-26T14:00:31.583Z</time></trkpt><trkpt lat="45.6424365" lon="8.6913473"><ele>187.0</ele><time>2026-04-26T14:00:33.582Z</time></trkpt><trkpt lat="45.6425011" lon="8.6913582"><ele>187.0</ele><time>2026-04-26T14:00:34.582Z</time></trkpt><trkpt lat="45.6426214" lon="8.6913662"><ele>187.0</ele><time>2026-04-26T14:00:36.582Z</time></trkpt><trkpt lat="45.6427345" lon="8.6913675"><ele>187.0</ele><time>2026-04-26T14:00:38.583Z</time></trkpt><trkpt lat="45.6427987" lon="8.6913716"><ele>187.0</ele><time>2026-04-26T14:00:39.582Z</time></trkpt><trkpt lat="45.6428636" lon="8.6913829"><ele>187.0</ele><time>2026-04-26T14:00:40.582Z</time></trkpt><trkpt lat="45.6429718" lon="8.6913909"><ele>186.75</ele><time>2026-04-26T14:00:42.583Z</time></trkpt><trkpt lat="45.6430792" lon="8.6914059"><ele>186.5</ele><time>2026-04-26T14:00:44.582Z</time></trkpt><trkpt lat="45.6431933" lon="8.6914059"><ele>186.25</ele><time>2026-04-26T14:00:46.582Z</time></trkpt><trkpt lat="45.6433189" lon="8.6914137"><ele>186.0</ele><time>2026-04-26T14:00:48.582Z</time></trkpt><trkpt lat="45.6434283" lon="8.6914079"><ele>186.0</ele><time>2026-04-26T14:00:50.582Z</time></trkpt><trkpt lat="45.6435502" lon="8.6914266"><ele>186.0</ele><time>2026-04-26T14:00:52.582Z</time></trkpt><trkpt lat="45.6436695" lon="8.6914213"><ele>186.0</ele><time>2026-04-26T14:00:54.582Z</time></trkpt><trkpt lat="45.6437864" lon="8.6914341"><ele>186.0</ele><time>2026-04-26T14:00:56.583Z</time></trkpt><trkpt lat="45.6438781" lon="8.6914438"><ele>185.60000000000002</ele><time>2026-04-26T14:00:58.583Z</time></trkpt><trkpt lat="45.6439432" lon="8.6914487"><ele>185.2</ele><time>2026-04-26T14:00:59.582Z</time></trkpt><trkpt lat="45.644064" lon="8.6914646"><ele>184.8</ele><time>2026-04-26T14:01:01.583Z</time></trkpt><trkpt lat="45.6441765" lon="8.6914969"><ele>184.39999999999998</ele><time>2026-04-26T14:01:03.582Z</time></trkpt><trkpt lat="45.6442917" lon="8.6915048"><ele>184.0</ele><time>2026-04-26T14:01:05.583Z</time></trkpt><trkpt lat="45.6444085" lon="8.6915025"><ele>184.6</ele><time>2026-04-26T14:01:07.582Z</time></trkpt><trkpt lat="45.6444814" lon="8.6915153"><ele>185.2</ele><time>2026-04-26T14:01:08.583Z</time></trkpt><trkpt lat="45.6445922" lon="8.6915323"><ele>185.79999999999998</ele><time>2026-04-26T14:01:10.583Z</time></trkpt><trkpt lat="45.6447059" lon="8.6915643"><ele>186.39999999999998</ele><time>2026-04-26T14:01:12.582Z</time></trkpt><trkpt lat="45.6448271" lon="8.6915567"><ele>187.0</ele><time>2026-04-26T14:01:14.582Z</time></trkpt><trkpt lat="45.644937" lon="8.6915641"><ele>187.0</ele><time>2026-04-26T14:01:16.582Z</time></trkpt><trkpt lat="45.6450492" lon="8.6915735"><ele>187.0</ele><time>2026-04-26T14:01:18.582Z</time></trkpt><trkpt lat="45.6451123" lon="8.6915742"><ele>187.0</ele><time>2026-04-26T14:01:19.583Z</time></trkpt><trkpt lat="45.6452241" lon="8.6915911"><ele>187.0</ele><time>2026-04-26T14:01:21.582Z</time></trkpt><trkpt lat="45.6452949" lon="8.6916112"><ele>187.0</ele><time>2026-04-26T14:01:22.583Z</time></trkpt><trkpt lat="45.6454296" lon="8.6916213"><ele>187.25</ele><time>2026-04-26T14:01:24.583Z</time></trkpt><trkpt lat="45.6455494" lon="8.6916112"><ele>187.5</ele><time>2026-04-26T14:01:26.582Z</time></trkpt><trkpt lat="45.6456758" lon="8.6916425"><ele>187.75</ele><time>2026-04-26T14:01:28.582Z</time></trkpt><trkpt lat="45.6457867" lon="8.6916567"><ele>188.0</ele><time>2026-04-26T14:01:30.582Z</time></trkpt><trkpt lat="45.6459033" lon="8.6916641"><ele>188.0</ele><time>2026-04-26T14:01:32.583Z</time></trkpt><trkpt lat="45.6460145" lon="8.6916825"><ele>188.0</ele><time>2026-04-26T14:01:34.582Z</time></trkpt><trkpt lat="45.6461289" lon="8.6916801"><ele>188.0</ele><time>2026-04-26T14:01:36.582Z</time></trkpt><trkpt lat="45.6462386" lon="8.6916808"><ele>188.0</ele><time>2026-04-26T14:01:38.583Z</time></trkpt><trkpt lat="45.6463525" lon="8.6916676"><ele>188.25</ele><time>2026-04-26T14:01:40.582Z</time></trkpt><trkpt lat="45.6464638" lon="8.691666"><ele>188.5</ele><time>2026-04-26T14:01:42.582Z</time></trkpt><trkpt lat="45.6465777" lon="8.6916589"><ele>188.75</ele><time>2026-04-26T14:01:44.582Z</time></trkpt><trkpt lat="45.6466944" lon="8.6916386"><ele>189.0</ele><time>2026-04-26T14:01:46.582Z</time></trkpt><trkpt lat="45.6468069" lon="8.6916132"><ele>189.0</ele><time>2026-04-26T14:01:48.582Z</time></trkpt><trkpt lat="45.6469252" lon="8.691588"><ele>189.0</ele><time>2026-04-26T14:01:50.582Z</time></trkpt><trkpt lat="45.6470318" lon="8.6915517"><ele>189.0</ele><time>2026-04-26T14:01:52.582Z</time></trkpt><trkpt lat="45.6471472" lon="8.6915163"><ele>189.0</ele><time>2026-04-26T14:01:54.582Z</time></trkpt><trkpt lat="45.6472577" lon="8.6914814"><ele>189.5</ele><time>2026-04-26T14:01:56.582Z</time></trkpt><trkpt lat="45.6473636" lon="8.6914214"><ele>190.0</ele><time>2026-04-26T14:01:58.582Z</time></trkpt><trkpt lat="45.647472" lon="8.6913725"><ele>190.5</ele><time>2026-04-26T14:02:00.583Z</time></trkpt><trkpt lat="45.6475791" lon="8.6913242"><ele>191.0</ele><time>2026-04-26T14:02:02.582Z</time></trkpt><trkpt lat="45.6476837" lon="8.6912624"><ele>191.0</ele><time>2026-04-26T14:02:04.582Z</time></trkpt><trkpt lat="45.647793" lon="8.6911924"><ele>191.0</ele><time>2026-04-26T14:02:06.582Z</time></trkpt><trkpt lat="45.6478948" lon="8.6911402"><ele>191.0</ele><time>2026-04-26T14:02:08.582Z</time></trkpt><trkpt lat="45.6479907" lon="8.6910686"><ele>191.0</ele><time>2026-04-26T14:02:10.582Z</time></trkpt><trkpt lat="45.6480904" lon="8.6909945"><ele>191.0</ele><time>2026-04-26T14:02:12.583Z</time></trkpt><trkpt lat="45.6481867" lon="8.6909221"><ele>191.20000000000002</ele><time>2026-04-26T14:02:14.582Z</time></trkpt><trkpt lat="45.6482804" lon="8.6908293"><ele>191.4</ele><time>2026-04-26T14:02:16.582Z</time></trkpt><trkpt lat="45.6483739" lon="8.6907366"><ele>191.6</ele><time>2026-04-26T14:02:18.582Z</time></trkpt><trkpt lat="45.6484679" lon="8.6906467"><ele>191.8</ele><time>2026-04-26T14:02:20.583Z</time></trkpt><trkpt lat="45.6485546" lon="8.6905674"><ele>192.0</ele><time>2026-04-26T14:02:22.582Z</time></trkpt><trkpt lat="45.6486515" lon="8.6904728"><ele>192.0</ele><time>2026-04-26T14:02:24.582Z</time></trkpt><trkpt lat="45.6487079" lon="8.6904289"><ele>192.0</ele><time>2026-04-26T14:02:25.582Z</time></trkpt><trkpt lat="45.6488052" lon="8.6903338"><ele>192.0</ele><time>2026-04-26T14:02:27.582Z</time></trkpt><trkpt lat="45.6489037" lon="8.6902384"><ele>192.0</ele><time>2026-04-26T14:02:29.582Z</time></trkpt><trkpt lat="45.64896" lon="8.6901965"><ele>192.0</ele><time>2026-04-26T14:02:30.582Z</time></trkpt><trkpt lat="45.6490681" lon="8.6901213"><ele>192.2</ele><time>2026-04-26T14:02:32.583Z</time></trkpt><trkpt lat="45.6491597" lon="8.6900232"><ele>192.39999999999998</ele><time>2026-04-26T14:02:34.582Z</time></trkpt><trkpt lat="45.6492541" lon="8.6899351"><ele>192.60000000000002</ele><time>2026-04-26T14:02:36.582Z</time></trkpt><trkpt lat="45.6493477" lon="8.6898405"><ele>192.8</ele><time>2026-04-26T14:02:38.582Z</time></trkpt><trkpt lat="45.6494366" lon="8.6897539"><ele>193.0</ele><time>2026-04-26T14:02:40.582Z</time></trkpt><trkpt lat="45.649533" lon="8.6896685"><ele>193.25</ele><time>2026-04-26T14:02:42.582Z</time></trkpt><trkpt lat="45.6496274" lon="8.6895771"><ele>193.5</ele><time>2026-04-26T14:02:44.582Z</time></trkpt><trkpt lat="45.6497176" lon="8.6894918"><ele>193.75</ele><time>2026-04-26T14:02:46.582Z</time></trkpt><trkpt lat="45.6498198" lon="8.6894042"><ele>194.0</ele><time>2026-04-26T14:02:48.582Z</time></trkpt><trkpt lat="45.6499163" lon="8.6893167"><ele>193.75</ele><time>2026-04-26T14:02:50.582Z</time></trkpt><trkpt lat="45.6500088" lon="8.6892341"><ele>193.5</ele><time>2026-04-26T14:02:52.583Z</time></trkpt><trkpt lat="45.6501024" lon="8.6891461"><ele>193.25</ele><time>2026-04-26T14:02:54.583Z</time></trkpt><trkpt lat="45.6501994" lon="8.689049"><ele>193.0</ele><time>2026-04-26T14:02:56.582Z</time></trkpt><trkpt lat="45.6502988" lon="8.6889509"><ele>193.0</ele><time>2026-04-26T14:02:58.582Z</time></trkpt><trkpt lat="45.6503903" lon="8.6888613"><ele>193.0</ele><time>2026-04-26T14:03:00.582Z</time></trkpt><trkpt lat="45.6504864" lon="8.6887806"><ele>193.0</ele><time>2026-04-26T14:03:02.582Z</time></trkpt><trkpt lat="45.6505798" lon="8.6886964"><ele>193.0</ele><time>2026-04-26T14:03:04.582Z</time></trkpt><trkpt lat="45.6506695" lon="8.6885955"><ele>193.0</ele><time>2026-04-26T14:03:06.582Z</time></trkpt><trkpt lat="45.6507609" lon="8.6885097"><ele>192.0</ele><time>2026-04-26T14:03:08.582Z</time></trkpt><trkpt lat="45.650858" lon="8.6884222"><ele>191.0</ele><time>2026-04-26T14:03:10.582Z</time></trkpt><trkpt lat="45.6509548" lon="8.6883242"><ele>190.0</ele><time>2026-04-26T14:03:12.583Z</time></trkpt><trkpt lat="45.6510474" lon="8.6882307"><ele>189.0</ele><time>2026-04-26T14:03:14.583Z</time></trkpt><trkpt lat="45.6511414" lon="8.6881476"><ele>189.0</ele><time>2026-04-26T14:03:16.582Z</time></trkpt><trkpt lat="45.6512326" lon="8.6880582"><ele>189.0</ele><time>2026-04-26T14:03:18.582Z</time></trkpt><trkpt lat="45.6513291" lon="8.6879659"><ele>189.0</ele><time>2026-04-26T14:03:20.582Z</time></trkpt><trkpt lat="45.6514226" lon="8.6878782"><ele>189.0</ele><time>2026-04-26T14:03:22.582Z</time></trkpt><trkpt lat="45.6515151" lon="8.6878038"><ele>189.0</ele><time>2026-04-26T14:03:24.582Z</time></trkpt><trkpt lat="45.6515952" lon="8.6877138"><ele>188.6</ele><time>2026-04-26T14:03:26.582Z</time></trkpt><trkpt lat="45.6516821" lon="8.687616"><ele>188.2</ele><time>2026-04-26T14:03:28.583Z</time></trkpt><trkpt lat="45.6517799" lon="8.6875168"><ele>187.79999999999998</ele><time>2026-04-26T14:03:30.582Z</time></trkpt><trkpt lat="45.6518651" lon="8.6874531"><ele>187.39999999999998</ele><time>2026-04-26T14:03:32.582Z</time></trkpt><trkpt lat="45.6519626" lon="8.6873715"><ele>187.0</ele><time>2026-04-26T14:03:34.582Z</time></trkpt><trkpt lat="45.6520503" lon="8.6872761"><ele>187.0</ele><time>2026-04-26T14:03:36.582Z</time></trkpt><trkpt lat="45.6521522" lon="8.687206"><ele>187.0</ele><time>2026-04-26T14:03:38.582Z</time></trkpt><trkpt lat="45.6522482" lon="8.6871482"><ele>187.0</ele><time>2026-04-26T14:03:40.582Z</time></trkpt><trkpt lat="45.65234" lon="8.6870715"><ele>187.0</ele><time>2026-04-26T14:03:42.582Z</time></trkpt><trkpt lat="45.6524455" lon="8.6870136"><ele>187.0</ele><time>2026-04-26T14:03:44.582Z</time></trkpt><trkpt lat="45.6525548" lon="8.686956"><ele>187.39999999999998</ele><time>2026-04-26T14:03:46.583Z</time></trkpt><trkpt lat="45.6526668" lon="8.6869007"><ele>187.79999999999998</ele><time>2026-04-26T14:03:48.582Z</time></trkpt><trkpt lat="45.6527271" lon="8.6868548"><ele>188.2</ele><time>2026-04-26T14:03:49.583Z</time></trkpt><trkpt lat="45.6528162" lon="8.6867949"><ele>188.6</ele><time>2026-04-26T14:03:51.582Z</time></trkpt><trkpt lat="45.6529043" lon="8.6867299"><ele>189.0</ele><time>2026-04-26T14:03:53.582Z</time></trkpt><trkpt lat="45.6530004" lon="8.6866657"><ele>189.0</ele><time>2026-04-26T14:03:55.582Z</time></trkpt><trkpt lat="45.6530892" lon="8.68659"><ele>189.0</ele><time>2026-04-26T14:03:57.583Z</time></trkpt><trkpt lat="45.6531859" lon="8.6865454"><ele>189.0</ele><time>2026-04-26T14:03:59.583Z</time></trkpt><trkpt lat="45.6532729" lon="8.686493"><ele>189.0</ele><time>2026-04-26T14:04:01.582Z</time></trkpt><trkpt lat="45.6533573" lon="8.6864287"><ele>189.0</ele><time>2026-04-26T14:04:03.582Z</time></trkpt><trkpt lat="45.6534605" lon="8.6863707"><ele>189.0</ele><time>2026-04-26T14:04:05.582Z</time></trkpt><trkpt lat="45.6535472" lon="8.6862945"><ele>189.0</ele><time>2026-04-26T14:04:07.582Z</time></trkpt><trkpt lat="45.6536433" lon="8.6862203"><ele>189.0</ele><time>2026-04-26T14:04:09.582Z</time></trkpt><trkpt lat="45.6537215" lon="8.6861551"><ele>189.0</ele><time>2026-04-26T14:04:11.582Z</time></trkpt><trkpt lat="45.6537857" lon="8.6860849"><ele>189.0</ele><time>2026-04-26T14:04:13.583Z</time></trkpt><trkpt lat="45.653851" lon="8.686027"><ele>188.85714285714286</ele><time>2026-04-26T14:04:15.583Z</time></trkpt><trkpt lat="45.6539106" lon="8.6859892"><ele>188.71428571428572</ele><time>2026-04-26T14:04:17.582Z</time></trkpt><trkpt lat="45.653966" lon="8.6859455"><ele>188.57142857142856</ele><time>2026-04-26T14:04:19.582Z</time></trkpt><trkpt lat="45.6540298" lon="8.6859231"><ele>188.42857142857144</ele><time>2026-04-26T14:04:21.582Z</time></trkpt><trkpt lat="45.6540967" lon="8.6859015"><ele>188.28571428571428</ele><time>2026-04-26T14:04:23.582Z</time></trkpt><trkpt lat="45.6541633" lon="8.685898"><ele>188.14285714285714</ele><time>2026-04-26T14:04:25.582Z</time></trkpt><trkpt lat="45.6542238" lon="8.6859816"><ele>188.0</ele><time>2026-04-26T14:04:28.583Z</time></trkpt><trkpt lat="45.6542578" lon="8.6860893"><ele>188.33333333333331</ele><time>2026-04-26T14:04:31.582Z</time></trkpt><trkpt lat="45.6542925" lon="8.6862078"><ele>188.66666666666666</ele><time>2026-04-26T14:04:34.582Z</time></trkpt><trkpt lat="45.6543742" lon="8.6862244"><ele>189.0</ele><time>2026-04-26T14:10:42.579Z</time></trkpt><trkpt lat="45.6544312" lon="8.6861519"><ele>189.33333333333334</ele><time>2026-04-26T14:11:00.582Z</time></trkpt><trkpt lat="45.6545069" lon="8.686114"><ele>189.66666666666669</ele><time>2026-04-26T14:11:03.581Z</time></trkpt><trkpt lat="45.6545711" lon="8.6861134"><ele>190.0</ele><time>2026-04-26T14:11:05.582Z</time></trkpt><trkpt lat="45.6546372" lon="8.6860808"><ele>190.0</ele><time>2026-04-26T14:11:07.582Z</time></trkpt><trkpt lat="45.6547012" lon="8.6860548"><ele>190.0</ele><time>2026-04-26T14:11:09.582Z</time></trkpt><trkpt lat="45.6547688" lon="8.686032"><ele>190.0</ele><time>2026-04-26T14:11:11.582Z</time></trkpt><trkpt lat="45.6548398" lon="8.6860046"><ele>190.0</ele><time>2026-04-26T14:11:13.582Z</time></trkpt><trkpt lat="45.6549131" lon="8.6859738"><ele>190.0</ele><time>2026-04-26T14:11:15.582Z</time></trkpt><trkpt lat="45.654987" lon="8.6859457"><ele>190.0</ele><time>2026-04-26T14:11:17.583Z</time></trkpt><trkpt lat="45.6550617" lon="8.6859141"><ele>190.0</ele><time>2026-04-26T14:11:19.582Z</time></trkpt><trkpt lat="45.6551379" lon="8.6858813"><ele>190.0</ele><time>2026-04-26T14:11:21.582Z</time></trkpt><trkpt lat="45.6552145" lon="8.6858476"><ele>190.0</ele><time>2026-04-26T14:11:23.582Z</time></trkpt><trkpt lat="45.6552896" lon="8.6858094"><ele>190.0</ele><time>2026-04-26T14:11:25.582Z</time></trkpt><trkpt lat="45.6553652" lon="8.6857695"><ele>190.0</ele><time>2026-04-26T14:11:27.582Z</time></trkpt><trkpt lat="45.6554431" lon="8.6857274"><ele>190.0</ele><time>2026-04-26T14:11:29.583Z</time></trkpt><trkpt lat="45.655519" lon="8.6856844"><ele>190.0</ele><time>2026-04-26T14:11:31.582Z</time></trkpt><trkpt lat="45.6555942" lon="8.6856396"><ele>190.33333333333334</ele><time>2026-04-26T14:11:33.583Z</time></trkpt><trkpt lat="45.6556733" lon="8.6855941"><ele>190.66666666666669</ele><time>2026-04-26T14:11:35.582Z</time></trkpt><trkpt lat="45.6557537" lon="8.6855427"><ele>191.0</ele><time>2026-04-26T14:11:37.582Z</time></trkpt><trkpt lat="45.6558307" lon="8.6854916"><ele>191.33333333333334</ele><time>2026-04-26T14:11:39.582Z</time></trkpt><trkpt lat="45.6559066" lon="8.6854397"><ele>191.66666666666666</ele><time>2026-04-26T14:11:41.582Z</time></trkpt><trkpt lat="45.655981" lon="8.6853855"><ele>192.0</ele><time>2026-04-26T14:11:43.582Z</time></trkpt><trkpt lat="45.6560562" lon="8.6853283"><ele>192.0</ele><time>2026-04-26T14:11:45.582Z</time></trkpt><trkpt lat="45.6561302" lon="8.6852696"><ele>192.0</ele><time>2026-04-26T14:11:47.583Z</time></trkpt><trkpt lat="45.6562057" lon="8.685212"><ele>192.0</ele><time>2026-04-26T14:11:49.582Z</time></trkpt><trkpt lat="45.6562785" lon="8.6851531"><ele>192.0</ele><time>2026-04-26T14:11:51.582Z</time></trkpt><trkpt lat="45.6563492" lon="8.6850916"><ele>192.0</ele><time>2026-04-26T14:11:53.582Z</time></trkpt><trkpt lat="45.6564194" lon="8.6850322"><ele>192.0</ele><time>2026-04-26T14:11:55.582Z</time></trkpt><trkpt lat="45.6564876" lon="8.6849744"><ele>192.0</ele><time>2026-04-26T14:11:57.582Z</time></trkpt><trkpt lat="45.6565568" lon="8.6849111"><ele>192.0</ele><time>2026-04-26T14:11:59.582Z</time></trkpt><trkpt lat="45.6566257" lon="8.6848428"><ele>192.0</ele><time>2026-04-26T14:12:01.582Z</time></trkpt><trkpt lat="45.6566976" lon="8.6847708"><ele>192.0</ele><time>2026-04-26T14:12:03.582Z</time></trkpt><trkpt lat="45.6567677" lon="8.6846988"><ele>192.0</ele><time>2026-04-26T14:12:05.582Z</time></trkpt><trkpt lat="45.6568391" lon="8.6846242"><ele>192.0</ele><time>2026-04-26T14:12:07.582Z</time></trkpt><trkpt lat="45.6569085" lon="8.6845483"><ele>191.83333333333334</ele><time>2026-04-26T14:12:09.582Z</time></trkpt><trkpt lat="45.6569771" lon="8.6844692"><ele>191.66666666666666</ele><time>2026-04-26T14:12:11.582Z</time></trkpt><trkpt lat="45.657047" lon="8.6843915"><ele>191.5</ele><time>2026-04-26T14:12:13.583Z</time></trkpt><trkpt lat="45.6571144" lon="8.6843073"><ele>191.33333333333331</ele><time>2026-04-26T14:12:15.582Z</time></trkpt><trkpt lat="45.6571809" lon="8.6842239"><ele>191.16666666666666</ele><time>2026-04-26T14:12:17.582Z</time></trkpt><trkpt lat="45.6572476" lon="8.6841388"><ele>191.0</ele><time>2026-04-26T14:12:19.582Z</time></trkpt><trkpt lat="45.6573133" lon="8.684055"><ele>191.0</ele><time>2026-04-26T14:12:21.582Z</time></trkpt><trkpt lat="45.6573753" lon="8.6839677"><ele>191.0</ele><time>2026-04-26T14:12:23.582Z</time></trkpt><trkpt lat="45.6574356" lon="8.68388"><ele>191.0</ele><time>2026-04-26T14:12:25.582Z</time></trkpt><trkpt lat="45.6574959" lon="8.6837886"><ele>191.0</ele><time>2026-04-26T14:12:27.582Z</time></trkpt><trkpt lat="45.6575566" lon="8.6836964"><ele>191.0</ele><time>2026-04-26T14:12:29.582Z</time></trkpt><trkpt lat="45.6576161" lon="8.6836016"><ele>191.0</ele><time>2026-04-26T14:12:31.581Z</time></trkpt><trkpt lat="45.6576759" lon="8.6835064"><ele>190.66666666666666</ele><time>2026-04-26T14:12:33.582Z</time></trkpt><trkpt lat="45.6577341" lon="8.6834152"><ele>190.33333333333331</ele><time>2026-04-26T14:12:35.582Z</time></trkpt><trkpt lat="45.6577925" lon="8.6833251"><ele>190.0</ele><time>2026-04-26T14:12:37.582Z</time></trkpt><trkpt lat="45.6578487" lon="8.6832322"><ele>189.66666666666666</ele><time>2026-04-26T14:12:39.582Z</time></trkpt><trkpt lat="45.6579032" lon="8.6831374"><ele>189.33333333333334</ele><time>2026-04-26T14:12:41.583Z</time></trkpt><trkpt lat="45.6579591" lon="8.6830434"><ele>189.0</ele><time>2026-04-26T14:12:43.582Z</time></trkpt><trkpt lat="45.6580158" lon="8.6829476"><ele>189.79999999999998</ele><time>2026-04-26T14:12:45.582Z</time></trkpt><trkpt lat="45.6580743" lon="8.6828469"><ele>190.6</ele><time>2026-04-26T14:12:47.581Z</time></trkpt><trkpt lat="45.6581322" lon="8.6827491"><ele>191.4</ele><time>2026-04-26T14:12:49.582Z</time></trkpt><trkpt lat="45.6581889" lon="8.6826477"><ele>192.2</ele><time>2026-04-26T14:12:51.583Z</time></trkpt><trkpt lat="45.6582414" lon="8.6825427"><ele>193.0</ele><time>2026-04-26T14:12:53.582Z</time></trkpt><trkpt lat="45.6582956" lon="8.6824391"><ele>192.99999999999997</ele><time>2026-04-26T14:12:55.582Z</time></trkpt><trkpt lat="45.6583439" lon="8.6823343"><ele>193.0</ele><time>2026-04-26T14:12:57.582Z</time></trkpt><trkpt lat="45.6583908" lon="8.6822267"><ele>193.0</ele><time>2026-04-26T14:12:59.582Z</time></trkpt><trkpt lat="45.6584342" lon="8.682116"><ele>193.0</ele><time>2026-04-26T14:13:01.582Z</time></trkpt><trkpt lat="45.6584788" lon="8.6820049"><ele>192.99999999999997</ele><time>2026-04-26T14:13:03.582Z</time></trkpt><trkpt lat="45.6585191" lon="8.6818888"><ele>193.0</ele><time>2026-04-26T14:13:05.582Z</time></trkpt><trkpt lat="45.6585612" lon="8.6817685"><ele>193.4</ele><time>2026-04-26T14:13:07.582Z</time></trkpt><trkpt lat="45.6586014" lon="8.6816482"><ele>193.8</ele><time>2026-04-26T14:13:09.583Z</time></trkpt><trkpt lat="45.6586366" lon="8.6815283"><ele>194.2</ele><time>2026-04-26T14:13:11.582Z</time></trkpt><trkpt lat="45.6586699" lon="8.6814051"><ele>194.6</ele><time>2026-04-26T14:13:13.582Z</time></trkpt><trkpt lat="45.658703" lon="8.6812757"><ele>195.0</ele><time>2026-04-26T14:13:15.582Z</time></trkpt><trkpt lat="45.6587339" lon="8.6811463"><ele>194.2</ele><time>2026-04-26T14:13:17.583Z</time></trkpt><trkpt lat="45.6587621" lon="8.6810163"><ele>193.4</ele><time>2026-04-26T14:13:19.583Z</time></trkpt><trkpt lat="45.6587875" lon="8.6808837"><ele>192.60000000000002</ele><time>2026-04-26T14:13:21.582Z</time></trkpt><trkpt lat="45.6588137" lon="8.6807454"><ele>191.8</ele><time>2026-04-26T14:13:23.582Z</time></trkpt><trkpt lat="45.6588376" lon="8.6806136"><ele>191.0</ele><time>2026-04-26T14:13:25.582Z</time></trkpt><trkpt lat="45.6588636" lon="8.6804822"><ele>191.0</ele><time>2026-04-26T14:13:27.583Z</time></trkpt><trkpt lat="45.6588901" lon="8.6803511"><ele>191.0</ele><time>2026-04-26T14:13:29.582Z</time></trkpt><trkpt lat="45.6589215" lon="8.6802075"><ele>191.0</ele><time>2026-04-26T14:13:31.582Z</time></trkpt><trkpt lat="45.6589565" lon="8.680061"><ele>191.0</ele><time>2026-04-26T14:13:33.582Z</time></trkpt><trkpt lat="45.6589963" lon="8.6799295"><ele>191.0</ele><time>2026-04-26T14:13:35.582Z</time></trkpt><trkpt lat="45.6590405" lon="8.6798073"><ele>190.4</ele><time>2026-04-26T14:13:37.582Z</time></trkpt><trkpt lat="45.6590873" lon="8.6796818"><ele>189.8</ele><time>2026-04-26T14:13:39.583Z</time></trkpt><trkpt lat="45.6591412" lon="8.6795605"><ele>189.20000000000002</ele><time>2026-04-26T14:13:41.582Z</time></trkpt><trkpt lat="45.6591977" lon="8.6794459"><ele>188.60000000000002</ele><time>2026-04-26T14:13:43.582Z</time></trkpt><trkpt lat="45.6592562" lon="8.6793354"><ele>188.0</ele><time>2026-04-26T14:13:45.583Z</time></trkpt><trkpt lat="45.6593185" lon="8.6792338"><ele>188.4</ele><time>2026-04-26T14:13:47.582Z</time></trkpt><trkpt lat="45.6593843" lon="8.6791367"><ele>188.8</ele><time>2026-04-26T14:13:49.582Z</time></trkpt><trkpt lat="45.6594543" lon="8.6790429"><ele>189.2</ele><time>2026-04-26T14:13:51.582Z</time></trkpt><trkpt lat="45.6595321" lon="8.6789473"><ele>189.6</ele><time>2026-04-26T14:13:53.582Z</time></trkpt><trkpt lat="45.6596139" lon="8.6788566"><ele>190.0</ele><time>2026-04-26T14:13:55.583Z</time></trkpt><trkpt lat="45.6597009" lon="8.6787692"><ele>190.0</ele><time>2026-04-26T14:13:57.582Z</time></trkpt><trkpt lat="45.6597896" lon="8.6786834"><ele>190.0</ele><time>2026-04-26T14:13:59.582Z</time></trkpt><trkpt lat="45.6598797" lon="8.6785975"><ele>190.0</ele><time>2026-04-26T14:14:01.582Z</time></trkpt><trkpt lat="45.6599688" lon="8.6785099"><ele>190.0</ele><time>2026-04-26T14:14:03.582Z</time></trkpt><trkpt lat="45.6600596" lon="8.6784253"><ele>190.0</ele><time>2026-04-26T14:14:05.582Z</time></trkpt><trkpt lat="45.6601494" lon="8.6783416"><ele>190.0</ele><time>2026-04-26T14:14:07.583Z</time></trkpt><trkpt lat="45.6602384" lon="8.6782589"><ele>190.0</ele><time>2026-04-26T14:14:09.582Z</time></trkpt><trkpt lat="45.660327" lon="8.678177"><ele>190.0</ele><time>2026-04-26T14:14:11.582Z</time></trkpt><trkpt lat="45.660416" lon="8.6780942"><ele>190.0</ele><time>2026-04-26T14:14:13.583Z</time></trkpt><trkpt lat="45.6605075" lon="8.6780084"><ele>190.0</ele><time>2026-04-26T14:14:15.582Z</time></trkpt><trkpt lat="45.6605996" lon="8.6779219"><ele>190.0</ele><time>2026-04-26T14:14:17.582Z</time></trkpt><trkpt lat="45.6606902" lon="8.6778337"><ele>190.0</ele><time>2026-04-26T14:14:19.582Z</time></trkpt><trkpt lat="45.6607829" lon="8.6777508"><ele>190.0</ele><time>2026-04-26T14:14:21.582Z</time></trkpt><trkpt lat="45.6608743" lon="8.6776609"><ele>190.0</ele><time>2026-04-26T14:14:23.582Z</time></trkpt><trkpt lat="45.6609674" lon="8.6775787"><ele>190.0</ele><time>2026-04-26T14:14:25.582Z</time></trkpt><trkpt lat="45.661058" lon="8.6774923"><ele>189.4</ele><time>2026-04-26T14:14:27.582Z</time></trkpt><trkpt lat="45.6611529" lon="8.6774099"><ele>188.8</ele><time>2026-04-26T14:14:29.582Z</time></trkpt><trkpt lat="45.6612481" lon="8.6773267"><ele>188.2</ele><time>2026-04-26T14:14:31.582Z</time></trkpt><trkpt lat="45.6613375" lon="8.6772292"><ele>187.6</ele><time>2026-04-26T14:14:33.582Z</time></trkpt><trkpt lat="45.6614278" lon="8.6771374"><ele>187.0</ele><time>2026-04-26T14:14:35.582Z</time></trkpt><trkpt lat="45.6615221" lon="8.6770467"><ele>187.0</ele><time>2026-04-26T14:14:37.582Z</time></trkpt><trkpt lat="45.6616132" lon="8.6769569"><ele>187.0</ele><time>2026-04-26T14:14:39.583Z</time></trkpt><trkpt lat="45.6617019" lon="8.6768728"><ele>187.0</ele><time>2026-04-26T14:14:41.582Z</time></trkpt><trkpt lat="45.6617911" lon="8.6767884"><ele>187.0</ele><time>2026-04-26T14:14:43.582Z</time></trkpt><trkpt lat="45.6618828" lon="8.6767065"><ele>187.0</ele><time>2026-04-26T14:14:45.582Z</time></trkpt><trkpt lat="45.6619765" lon="8.6766303"><ele>187.8</ele><time>2026-04-26T14:14:47.582Z</time></trkpt><trkpt lat="45.6620744" lon="8.6765616"><ele>188.6</ele><time>2026-04-26T14:14:49.583Z</time></trkpt><trkpt lat="45.6621732" lon="8.6764989"><ele>189.4</ele><time>2026-04-26T14:14:51.582Z</time></trkpt><trkpt lat="45.6622752" lon="8.6764467"><ele>190.20000000000002</ele><time>2026-04-26T14:14:53.582Z</time></trkpt><trkpt lat="45.6623784" lon="8.6763998"><ele>191.0</ele><time>2026-04-26T14:14:55.582Z</time></trkpt><trkpt lat="45.6624818" lon="8.6763612"><ele>191.0</ele><time>2026-04-26T14:14:57.582Z</time></trkpt><trkpt lat="45.6625865" lon="8.6763371"><ele>191.0</ele><time>2026-04-26T14:14:59.582Z</time></trkpt><trkpt lat="45.6626895" lon="8.6763214"><ele>191.0</ele><time>2026-04-26T14:15:01.582Z</time></trkpt><trkpt lat="45.662787" lon="8.6763085"><ele>191.0</ele><time>2026-04-26T14:15:03.582Z</time></trkpt><trkpt lat="45.6628868" lon="8.6763036"><ele>191.0</ele><time>2026-04-26T14:15:05.582Z</time></trkpt><trkpt lat="45.6629844" lon="8.6763044"><ele>190.8</ele><time>2026-04-26T14:15:07.583Z</time></trkpt><trkpt lat="45.6630799" lon="8.676311"><ele>190.60000000000002</ele><time>2026-04-26T14:15:09.582Z</time></trkpt><trkpt lat="45.6631788" lon="8.6763255"><ele>190.4</ele><time>2026-04-26T14:15:11.582Z</time></trkpt><trkpt lat="45.6632735" lon="8.6763492"><ele>190.2</ele><time>2026-04-26T14:15:13.582Z</time></trkpt><trkpt lat="45.6633707" lon="8.6763823"><ele>190.0</ele><time>2026-04-26T14:15:15.582Z</time></trkpt><trkpt lat="45.6634664" lon="8.6764211"><ele>190.0</ele><time>2026-04-26T14:15:17.583Z</time></trkpt><trkpt lat="45.663563" lon="8.6764688"><ele>190.0</ele><time>2026-04-26T14:15:19.582Z</time></trkpt><trkpt lat="45.6636569" lon="8.6765216"><ele>190.0</ele><time>2026-04-26T14:15:21.582Z</time></trkpt><trkpt lat="45.6637474" lon="8.6765838"><ele>190.0</ele><time>2026-04-26T14:15:23.582Z</time></trkpt><trkpt lat="45.6638364" lon="8.6766451"><ele>190.0</ele><time>2026-04-26T14:15:25.582Z</time></trkpt><trkpt lat="45.6639212" lon="8.6767102"><ele>189.6</ele><time>2026-04-26T14:15:27.582Z</time></trkpt><trkpt lat="45.664001" lon="8.6767821"><ele>189.2</ele><time>2026-04-26T14:15:29.581Z</time></trkpt><trkpt lat="45.6640829" lon="8.6768496"><ele>188.8</ele><time>2026-04-26T14:15:31.582Z</time></trkpt><trkpt lat="45.6641642" lon="8.6769168"><ele>188.4</ele><time>2026-04-26T14:15:33.582Z</time></trkpt><trkpt lat="45.6642475" lon="8.6769826"><ele>188.0</ele><time>2026-04-26T14:15:35.582Z</time></trkpt><trkpt lat="45.6643331" lon="8.6770467"><ele>187.8</ele><time>2026-04-26T14:15:37.582Z</time></trkpt><trkpt lat="45.6644196" lon="8.6771081"><ele>187.60000000000002</ele><time>2026-04-26T14:15:39.582Z</time></trkpt><trkpt lat="45.6645064" lon="8.677169"><ele>187.39999999999998</ele><time>2026-04-26T14:15:41.582Z</time></trkpt><trkpt lat="45.6645976" lon="8.6772175"><ele>187.2</ele><time>2026-04-26T14:15:43.582Z</time></trkpt><trkpt lat="45.6646944" lon="8.6772774"><ele>187.0</ele><time>2026-04-26T14:15:45.582Z</time></trkpt><trkpt lat="45.6647883" lon="8.6773332"><ele>187.0</ele><time>2026-04-26T14:15:47.582Z</time></trkpt><trkpt lat="45.6648815" lon="8.6773824"><ele>187.0</ele><time>2026-04-26T14:15:49.582Z</time></trkpt><trkpt lat="45.6649698" lon="8.6774265"><ele>187.0</ele><time>2026-04-26T14:15:51.582Z</time></trkpt><trkpt lat="45.6650605" lon="8.6774607"><ele>187.0</ele><time>2026-04-26T14:15:53.582Z</time></trkpt><trkpt lat="45.6651507" lon="8.6775002"><ele>187.0</ele><time>2026-04-26T14:15:55.582Z</time></trkpt><trkpt lat="45.665246" lon="8.6775315"><ele>187.0</ele><time>2026-04-26T14:15:57.582Z</time></trkpt><trkpt lat="45.665341" lon="8.6775645"><ele>187.0</ele><time>2026-04-26T14:15:59.583Z</time></trkpt><trkpt lat="45.6654306" lon="8.6775949"><ele>187.0</ele><time>2026-04-26T14:16:01.582Z</time></trkpt><trkpt lat="45.6655221" lon="8.6776242"><ele>187.0</ele><time>2026-04-26T14:16:03.582Z</time></trkpt><trkpt lat="45.6656068" lon="8.67765"><ele>187.0</ele><time>2026-04-26T14:16:05.582Z</time></trkpt><trkpt lat="45.6656947" lon="8.6776744"><ele>187.0</ele><time>2026-04-26T14:16:07.582Z</time></trkpt><trkpt lat="45.6657834" lon="8.6776984"><ele>187.0</ele><time>2026-04-26T14:16:09.582Z</time></trkpt><trkpt lat="45.6658744" lon="8.677727"><ele>187.0</ele><time>2026-04-26T14:16:11.582Z</time></trkpt><trkpt lat="45.6659687" lon="8.6777543"><ele>187.0</ele><time>2026-04-26T14:16:13.582Z</time></trkpt><trkpt lat="45.6660567" lon="8.6777885"><ele>187.0</ele><time>2026-04-26T14:16:15.582Z</time></trkpt><trkpt lat="45.6661488" lon="8.6778154"><ele>187.16666666666669</ele><time>2026-04-26T14:16:17.583Z</time></trkpt><trkpt lat="45.6662427" lon="8.6778543"><ele>187.33333333333334</ele><time>2026-04-26T14:16:19.582Z</time></trkpt><trkpt lat="45.6663402" lon="8.6778925"><ele>187.5</ele><time>2026-04-26T14:16:21.583Z</time></trkpt><trkpt lat="45.6664307" lon="8.6779167"><ele>187.66666666666666</ele><time>2026-04-26T14:16:23.582Z</time></trkpt><trkpt lat="45.6665069" lon="8.6779449"><ele>187.83333333333331</ele><time>2026-04-26T14:16:25.582Z</time></trkpt><trkpt lat="45.6665701" lon="8.6779667"><ele>188.0</ele><time>2026-04-26T14:16:27.582Z</time></trkpt><trkpt lat="45.6666353" lon="8.6779802"><ele>188.0</ele><time>2026-04-26T14:16:29.582Z</time></trkpt><trkpt lat="45.6667261" lon="8.6780051"><ele>188.0</ele><time>2026-04-26T14:16:32.581Z</time></trkpt><trkpt lat="45.6667881" lon="8.6780253"><ele>188.0</ele><time>2026-04-26T14:16:35.582Z</time></trkpt><trkpt lat="45.6668396" lon="8.6779399"><ele>188.0</ele><time>2026-04-26T14:16:41.582Z</time></trkpt><trkpt lat="45.6668483" lon="8.677841"><ele>188.0</ele><time>2026-04-26T14:16:44.582Z</time></trkpt><trkpt lat="45.6668645" lon="8.6777253"><ele>188.0</ele><time>2026-04-26T14:16:47.582Z</time></trkpt><trkpt lat="45.6668833" lon="8.6776247"><ele>187.83333333333331</ele><time>2026-04-26T14:16:50.582Z</time></trkpt><trkpt lat="45.6668892" lon="8.677521"><ele>187.66666666666666</ele><time>2026-04-26T14:16:53.583Z</time></trkpt><trkpt lat="45.6668943" lon="8.6774141"><ele>187.5</ele><time>2026-04-26T14:16:56.582Z</time></trkpt><trkpt lat="45.6669062" lon="8.6772709"><ele>187.33333333333334</ele><time>2026-04-26T14:16:59.582Z</time></trkpt><trkpt lat="45.6669236" lon="8.6771387"><ele>187.16666666666669</ele><time>2026-04-26T14:17:01.582Z</time></trkpt><trkpt lat="45.6669275" lon="8.6770309"><ele>187.0</ele><time>2026-04-26T14:17:03.583Z</time></trkpt><trkpt lat="45.6669572" lon="8.6769367"><ele>186.7142857142857</ele><time>2026-04-26T14:17:06.582Z</time></trkpt><trkpt lat="45.6670183" lon="8.6768811"><ele>186.42857142857144</ele><time>2026-04-26T14:17:09.576Z</time></trkpt><trkpt lat="45.6670834" lon="8.6768382"><ele>186.14285714285714</ele><time>2026-04-26T14:17:12.583Z</time></trkpt><trkpt lat="45.6670616" lon="8.6767497"><ele>185.85714285714283</ele><time>2026-04-26T14:17:44.582Z</time></trkpt><trkpt lat="45.6670357" lon="8.6766557"><ele>185.57142857142856</ele><time>2026-04-26T14:18:25.576Z</time></trkpt><trkpt lat="45.6669943" lon="8.6765769"><ele>185.28571428571428</ele><time>2026-04-26T14:18:33.578Z</time></trkpt><trkpt lat="45.6669745" lon="8.6764898"><ele>185.0</ele><time>2026-04-26T14:18:37.582Z</time></trkpt><trkpt lat="45.6669496" lon="8.676386"><ele>185.0</ele><time>2026-04-26T14:18:41.582Z</time></trkpt><trkpt lat="45.6669761" lon="8.6764848"><ele>185.0</ele><time>2026-04-26T14:19:03.582Z</time></trkpt><trkpt lat="45.6670017" lon="8.6765676"><ele>185.0</ele><time>2026-04-26T14:19:08.639Z</time></trkpt><trkpt lat="45.667035" lon="8.6766592"><ele>185.0</ele><time>2026-04-26T14:19:15.638Z</time></trkpt></trkseg><trkseg><trkpt lat="45.648137" lon="8.6864649"><ele>177.0</ele><time>2026-04-26T14:53:10.558Z</time></trkpt><trkpt lat="45.6482003" lon="8.686484"><ele>177.0</ele><time>2026-04-26T14:53:13.558Z</time></trkpt><trkpt lat="45.6482885" lon="8.6865061"><ele>177.0</ele><time>2026-04-26T14:53:16.559Z</time></trkpt><trkpt lat="45.6483816" lon="8.6865312"><ele>177.0</ele><time>2026-04-26T14:53:19.558Z</time></trkpt><trkpt lat="45.6484523" lon="8.6865469"><ele>177.0</ele><time>2026-04-26T14:53:21.558Z</time></trkpt><trkpt lat="45.6485133" lon="8.6865706"><ele>177.0</ele><time>2026-04-26T14:53:23.558Z</time></trkpt><trkpt lat="45.6485852" lon="8.6865831"><ele>176.66666666666666</ele><time>2026-04-26T14:53:25.558Z</time></trkpt><trkpt lat="45.6486542" lon="8.6866045"><ele>176.33333333333334</ele><time>2026-04-26T14:53:27.559Z</time></trkpt><trkpt lat="45.6487282" lon="8.6866288"><ele>176.0</ele><time>2026-04-26T14:53:29.559Z</time></trkpt><trkpt lat="45.6488036" lon="8.6866583"><ele>175.66666666666669</ele><time>2026-04-26T14:53:31.559Z</time></trkpt><trkpt lat="45.6488766" lon="8.6866907"><ele>175.33333333333334</ele><time>2026-04-26T14:53:33.558Z</time></trkpt><trkpt lat="45.6489485" lon="8.6867245"><ele>175.0</ele><time>2026-04-26T14:53:35.558Z</time></trkpt><trkpt lat="45.6490196" lon="8.686757"><ele>175.0</ele><time>2026-04-26T14:53:37.558Z</time></trkpt><trkpt lat="45.6490904" lon="8.6867842"><ele>175.0</ele><time>2026-04-26T14:53:39.559Z</time></trkpt><trkpt lat="45.6491606" lon="8.6868086"><ele>175.0</ele><time>2026-04-26T14:53:41.558Z</time></trkpt><trkpt lat="45.6492319" lon="8.6868372"><ele>175.0</ele><time>2026-04-26T14:53:43.559Z</time></trkpt><trkpt lat="45.6492952" lon="8.686879"><ele>175.0</ele><time>2026-04-26T14:53:45.558Z</time></trkpt><trkpt lat="45.6493417" lon="8.6869404"><ele>175.0</ele><time>2026-04-26T14:53:47.558Z</time></trkpt><trkpt lat="45.6494194" lon="8.6869699"><ele>175.0</ele><time>2026-04-26T14:53:50.558Z</time></trkpt><trkpt lat="45.6494889" lon="8.6868927"><ele>175.71428571428572</ele><time>2026-04-26T14:53:53.558Z</time></trkpt><trkpt lat="45.6495288" lon="8.6868205"><ele>176.42857142857144</ele><time>2026-04-26T14:53:55.557Z</time></trkpt><trkpt lat="45.6495731" lon="8.686756"><ele>177.14285714285714</ele><time>2026-04-26T14:53:57.559Z</time></trkpt><trkpt lat="45.6496198" lon="8.6866878"><ele>177.85714285714286</ele><time>2026-04-26T14:53:59.557Z</time></trkpt><trkpt lat="45.6496659" lon="8.6866229"><ele>178.57142857142858</ele><time>2026-04-26T14:54:01.557Z</time></trkpt><trkpt lat="45.6497123" lon="8.6865503"><ele>179.28571428571428</ele><time>2026-04-26T14:54:03.558Z</time></trkpt><trkpt lat="45.6497567" lon="8.6864751"><ele>180.0</ele><time>2026-04-26T14:54:05.557Z</time></trkpt><trkpt lat="45.6498082" lon="8.6864067"><ele>180.0</ele><time>2026-04-26T14:54:08.558Z</time></trkpt><trkpt lat="45.6498688" lon="8.6863792"><ele>180.0</ele><time>2026-04-26T14:54:11.557Z</time></trkpt><trkpt lat="45.649949" lon="8.6864044"><ele>180.0</ele><time>2026-04-26T14:54:14.558Z</time></trkpt><trkpt lat="45.6500213" lon="8.6864562"><ele>180.0</ele><time>2026-04-26T14:54:16.557Z</time></trkpt><trkpt lat="45.6500913" lon="8.6865105"><ele>180.0</ele><time>2026-04-26T14:54:18.558Z</time></trkpt><trkpt lat="45.6501648" lon="8.6865652"><ele>180.0</ele><time>2026-04-26T14:54:20.558Z</time></trkpt><trkpt lat="45.6502328" lon="8.6866229"><ele>179.83333333333334</ele><time>2026-04-26T14:54:22.557Z</time></trkpt><trkpt lat="45.6503017" lon="8.6866823"><ele>179.66666666666666</ele><time>2026-04-26T14:54:24.559Z</time></trkpt><trkpt lat="45.6503715" lon="8.6867318"><ele>179.5</ele><time>2026-04-26T14:54:26.557Z</time></trkpt><trkpt lat="45.6504429" lon="8.6867731"><ele>179.33333333333331</ele><time>2026-04-26T14:54:28.557Z</time></trkpt><trkpt lat="45.6505098" lon="8.6868207"><ele>179.16666666666666</ele><time>2026-04-26T14:54:30.557Z</time></trkpt><trkpt lat="45.6505766" lon="8.6868629"><ele>179.0</ele><time>2026-04-26T14:54:32.558Z</time></trkpt><trkpt lat="45.650637" lon="8.6869056"><ele>179.2857142857143</ele><time>2026-04-26T14:54:34.558Z</time></trkpt><trkpt lat="45.6506917" lon="8.6869579"><ele>179.57142857142858</ele><time>2026-04-26T14:54:36.557Z</time></trkpt><trkpt lat="45.6507488" lon="8.6870012"><ele>179.85714285714286</ele><time>2026-04-26T14:54:38.559Z</time></trkpt><trkpt lat="45.6508069" lon="8.6870414"><ele>180.14285714285717</ele><time>2026-04-26T14:54:40.557Z</time></trkpt><trkpt lat="45.6508911" lon="8.6871011"><ele>180.42857142857142</ele><time>2026-04-26T14:54:43.558Z</time></trkpt><trkpt lat="45.6509494" lon="8.687137"><ele>180.71428571428572</ele><time>2026-04-26T14:54:45.557Z</time></trkpt><trkpt lat="45.6510325" lon="8.6872014"><ele>181.0</ele><time>2026-04-26T14:54:48.557Z</time></trkpt><trkpt lat="45.6511112" lon="8.6872674"><ele>181.0</ele><time>2026-04-26T14:54:51.558Z</time></trkpt><trkpt lat="45.6511933" lon="8.68733"><ele>181.0</ele><time>2026-04-26T14:54:54.557Z</time></trkpt><trkpt lat="45.6512484" lon="8.6873841"><ele>181.0</ele><time>2026-04-26T14:54:56.557Z</time></trkpt><trkpt lat="45.6513055" lon="8.6874347"><ele>181.0</ele><time>2026-04-26T14:54:58.557Z</time></trkpt><trkpt lat="45.651381" lon="8.6875011"><ele>181.0</ele><time>2026-04-26T14:55:01.557Z</time></trkpt><trkpt lat="45.65146" lon="8.6875491"><ele>181.0</ele><time>2026-04-26T14:55:04.557Z</time></trkpt><trkpt lat="45.6515467" lon="8.6875566"><ele>181.0</ele><time>2026-04-26T14:55:07.557Z</time></trkpt><trkpt lat="45.651628" lon="8.6875305"><ele>181.0</ele><time>2026-04-26T14:55:10.557Z</time></trkpt><trkpt lat="45.6516879" lon="8.6874445"><ele>181.0</ele><time>2026-04-26T14:55:13.558Z</time></trkpt><trkpt lat="45.6517564" lon="8.6873796"><ele>181.0</ele><time>2026-04-26T14:55:16.557Z</time></trkpt><trkpt lat="45.6518247" lon="8.6873224"><ele>181.0</ele><time>2026-04-26T14:55:19.557Z</time></trkpt><trkpt lat="45.6518942" lon="8.6872648"><ele>181.0</ele><time>2026-04-26T14:55:22.559Z</time></trkpt><trkpt lat="45.6519652" lon="8.6872083"><ele>181.33333333333334</ele><time>2026-04-26T14:55:25.559Z</time></trkpt><trkpt lat="45.6520385" lon="8.6871491"><ele>181.66666666666669</ele><time>2026-04-26T14:55:28.557Z</time></trkpt><trkpt lat="45.6521093" lon="8.6871063"><ele>182.0</ele><time>2026-04-26T14:55:31.557Z</time></trkpt><trkpt lat="45.6521756" lon="8.6870567"><ele>182.33333333333334</ele><time>2026-04-26T14:55:34.558Z</time></trkpt><trkpt lat="45.6522392" lon="8.6870081"><ele>182.66666666666666</ele><time>2026-04-26T14:55:37.558Z</time></trkpt><trkpt lat="45.6522989" lon="8.6869476"><ele>183.0</ele><time>2026-04-26T14:55:40.557Z</time></trkpt><trkpt lat="45.6523658" lon="8.686891"><ele>183.0</ele><time>2026-04-26T14:55:43.557Z</time></trkpt><trkpt lat="45.6524352" lon="8.6868481"><ele>183.0</ele><time>2026-04-26T14:55:46.557Z</time></trkpt><trkpt lat="45.6525046" lon="8.6868083"><ele>183.0</ele><time>2026-04-26T14:55:49.557Z</time></trkpt><trkpt lat="45.6525748" lon="8.6867666"><ele>183.0</ele><time>2026-04-26T14:55:52.557Z</time></trkpt><trkpt lat="45.6526424" lon="8.6867286"><ele>183.0</ele><time>2026-04-26T14:55:55.557Z</time></trkpt><trkpt lat="45.6527093" lon="8.6866913"><ele>183.0</ele><time>2026-04-26T14:55:58.557Z</time></trkpt><trkpt lat="45.6527789" lon="8.6866593"><ele>183.0</ele><time>2026-04-26T14:56:01.558Z</time></trkpt><trkpt lat="45.6528471" lon="8.6866222"><ele>184.0</ele><time>2026-04-26T14:56:04.557Z</time></trkpt><trkpt lat="45.652919" lon="8.6865888"><ele>185.0</ele><time>2026-04-26T14:56:07.557Z</time></trkpt><trkpt lat="45.6529784" lon="8.6865574"><ele>186.0</ele><time>2026-04-26T14:56:10.558Z</time></trkpt><trkpt lat="45.6530436" lon="8.6865153"><ele>187.0</ele><time>2026-04-26T14:56:14.557Z</time></trkpt><trkpt lat="45.6531254" lon="8.6864711"><ele>188.0</ele><time>2026-04-26T14:56:18.558Z</time></trkpt><trkpt lat="45.6532064" lon="8.6864377"><ele>189.0</ele><time>2026-04-26T14:56:21.557Z</time></trkpt><trkpt lat="45.6532867" lon="8.6863857"><ele>189.0</ele><time>2026-04-26T14:56:24.558Z</time></trkpt><trkpt lat="45.6533724" lon="8.6863535"><ele>189.0</ele><time>2026-04-26T14:56:27.558Z</time></trkpt><trkpt lat="45.6534473" lon="8.6862953"><ele>189.0</ele><time>2026-04-26T14:56:30.557Z</time></trkpt><trkpt lat="45.6535267" lon="8.6862443"><ele>189.0</ele><time>2026-04-26T14:56:33.557Z</time></trkpt><trkpt lat="45.6536053" lon="8.6861831"><ele>189.0</ele><time>2026-04-26T14:56:36.558Z</time></trkpt><trkpt lat="45.6536863" lon="8.6861269"><ele>189.0</ele><time>2026-04-26T14:56:39.557Z</time></trkpt><trkpt lat="45.6537656" lon="8.6860697"><ele>188.83333333333334</ele><time>2026-04-26T14:56:42.557Z</time></trkpt><trkpt lat="45.6538471" lon="8.6860054"><ele>188.66666666666666</ele><time>2026-04-26T14:56:45.557Z</time></trkpt><trkpt lat="45.653931" lon="8.6859437"><ele>188.5</ele><time>2026-04-26T14:56:48.557Z</time></trkpt><trkpt lat="45.6540152" lon="8.6858876"><ele>188.33333333333331</ele><time>2026-04-26T14:56:51.558Z</time></trkpt><trkpt lat="45.6540795" lon="8.6858625"><ele>188.16666666666666</ele><time>2026-04-26T14:56:53.557Z</time></trkpt><trkpt lat="45.6541457" lon="8.6858816"><ele>188.0</ele><time>2026-04-26T14:56:55.557Z</time></trkpt><trkpt lat="45.654197" lon="8.6859414"><ele>188.0</ele><time>2026-04-26T14:56:57.557Z</time></trkpt><trkpt lat="45.6542322" lon="8.6860607"><ele>188.0</ele><time>2026-04-26T14:57:00.558Z</time></trkpt><trkpt lat="45.6542714" lon="8.6861791"><ele>188.0</ele><time>2026-04-26T14:57:03.557Z</time></trkpt><trkpt lat="45.6543028" lon="8.6863053"><ele>188.0</ele><time>2026-04-26T14:57:06.557Z</time></trkpt><trkpt lat="45.6543234" lon="8.6863961"><ele>188.0</ele><time>2026-04-26T14:57:08.558Z</time></trkpt><trkpt lat="45.6543461" lon="8.6864899"><ele>188.0</ele><time>2026-04-26T14:57:10.557Z</time></trkpt><trkpt lat="45.65437" lon="8.6865836"><ele>188.5</ele><time>2026-04-26T14:57:12.557Z</time></trkpt><trkpt lat="45.6544061" lon="8.6866763"><ele>189.0</ele><time>2026-04-26T14:57:14.558Z</time></trkpt><trkpt lat="45.6544478" lon="8.6867687"><ele>189.5</ele><time>2026-04-26T14:57:16.557Z</time></trkpt><trkpt lat="45.6545" lon="8.6868532"><ele>190.0</ele><time>2026-04-26T14:57:18.558Z</time></trkpt><trkpt lat="45.6545551" lon="8.6869319"><ele>190.5</ele><time>2026-04-26T14:57:20.558Z</time></trkpt><trkpt lat="45.65461" lon="8.6870086"><ele>191.0</ele><time>2026-04-26T14:57:22.557Z</time></trkpt><trkpt lat="45.6546638" lon="8.6870846"><ele>192.16666666666666</ele><time>2026-04-26T14:57:24.557Z</time></trkpt><trkpt lat="45.6547065" lon="8.6871676"><ele>193.33333333333331</ele><time>2026-04-26T14:57:26.557Z</time></trkpt><trkpt lat="45.6547348" lon="8.687261"><ele>194.5</ele><time>2026-04-26T14:57:28.557Z</time></trkpt><trkpt lat="45.6547637" lon="8.6873765"><ele>195.66666666666666</ele><time>2026-04-26T14:57:31.558Z</time></trkpt><trkpt lat="45.6548092" lon="8.6874817"><ele>196.83333333333334</ele><time>2026-04-26T14:57:35.557Z</time></trkpt><trkpt lat="45.6548465" lon="8.6875769"><ele>198.0</ele><time>2026-04-26T14:57:38.557Z</time></trkpt><trkpt lat="45.6548935" lon="8.6876906"><ele>198.66666666666666</ele><time>2026-04-26T14:57:41.557Z</time></trkpt><trkpt lat="45.654939" lon="8.6878023"><ele>199.33333333333331</ele><time>2026-04-26T14:57:44.557Z</time></trkpt><trkpt lat="45.6549735" lon="8.6878969"><ele>200.0</ele><time>2026-04-26T14:57:47.557Z</time></trkpt><trkpt lat="45.6549895" lon="8.6879962"><ele>200.66666666666666</ele><time>2026-04-26T14:57:52.558Z</time></trkpt><trkpt lat="45.6550165" lon="8.6880996"><ele>201.33333333333331</ele><time>2026-04-26T14:57:56.557Z</time></trkpt><trkpt lat="45.6550546" lon="8.6881979"><ele>202.0</ele><time>2026-04-26T14:58:00.557Z</time></trkpt><trkpt lat="45.6550864" lon="8.6882912"><ele>202.0</ele><time>2026-04-26T14:58:04.558Z</time></trkpt><trkpt lat="45.6551199" lon="8.6883938"><ele>202.0</ele><time>2026-04-26T14:58:08.558Z</time></trkpt><trkpt lat="45.6551585" lon="8.6884855"><ele>202.0</ele><time>2026-04-26T14:58:13.557Z</time></trkpt><trkpt lat="45.6551829" lon="8.6885691"><ele>202.0</ele><time>2026-04-26T14:58:18.557Z</time></trkpt><trkpt lat="45.655224" lon="8.6886489"><ele>202.0</ele><time>2026-04-26T14:58:23.558Z</time></trkpt><trkpt lat="45.6552733" lon="8.6887065"><ele>202.0</ele><time>2026-04-26T14:58:27.558Z</time></trkpt><trkpt lat="45.6553226" lon="8.688776"><ele>202.0</ele><time>2026-04-26T14:58:31.557Z</time></trkpt><trkpt lat="45.655377" lon="8.6888544"><ele>201.99999999999997</ele><time>2026-04-26T14:58:36.557Z</time></trkpt><trkpt lat="45.6554345" lon="8.6889417"><ele>202.0</ele><time>2026-04-26T14:58:40.558Z</time></trkpt><trkpt lat="45.6554863" lon="8.6890169"><ele>202.0</ele><time>2026-04-26T14:58:43.558Z</time></trkpt><trkpt lat="45.6555345" lon="8.6891052"><ele>202.0</ele><time>2026-04-26T14:58:47.557Z</time></trkpt><trkpt lat="45.6555839" lon="8.6891948"><ele>201.99999999999997</ele><time>2026-04-26T14:58:50.557Z</time></trkpt><trkpt lat="45.6556489" lon="8.68926"><ele>202.0</ele><time>2026-04-26T14:58:53.557Z</time></trkpt><trkpt lat="45.6556949" lon="8.6893396"><ele>203.14285714285714</ele><time>2026-04-26T14:58:57.557Z</time></trkpt><trkpt lat="45.6557516" lon="8.6894265"><ele>204.28571428571428</ele><time>2026-04-26T14:59:01.557Z</time></trkpt><trkpt lat="45.6558064" lon="8.6894849"><ele>205.42857142857144</ele><time>2026-04-26T14:59:04.558Z</time></trkpt><trkpt lat="45.6558394" lon="8.6895637"><ele>206.57142857142856</ele><time>2026-04-26T14:59:09.557Z</time></trkpt><trkpt lat="45.6558829" lon="8.689637"><ele>207.71428571428572</ele><time>2026-04-26T14:59:13.557Z</time></trkpt><trkpt lat="45.6559341" lon="8.6897127"><ele>208.85714285714286</ele><time>2026-04-26T14:59:17.558Z</time></trkpt><trkpt lat="45.6559885" lon="8.6897869"><ele>210.0</ele><time>2026-04-26T14:59:21.557Z</time></trkpt><trkpt lat="45.656038" lon="8.6898573"><ele>210.0</ele><time>2026-04-26T14:59:25.558Z</time></trkpt><trkpt lat="45.6560864" lon="8.6899158"><ele>210.0</ele><time>2026-04-26T14:59:28.557Z</time></trkpt><trkpt lat="45.656137" lon="8.6899795"><ele>210.0</ele><time>2026-04-26T14:59:32.557Z</time></trkpt><trkpt lat="45.6561863" lon="8.6900508"><ele>210.0</ele><time>2026-04-26T14:59:35.557Z</time></trkpt><trkpt lat="45.6562308" lon="8.6901243"><ele>210.0</ele><time>2026-04-26T14:59:38.556Z</time></trkpt><trkpt lat="45.6562827" lon="8.6901897"><ele>210.0</ele><time>2026-04-26T14:59:41.557Z</time></trkpt><trkpt lat="45.6563342" lon="8.690262"><ele>210.0</ele><time>2026-04-26T14:59:45.556Z</time></trkpt><trkpt lat="45.6563945" lon="8.6903124"><ele>210.5</ele><time>2026-04-26T14:59:48.556Z</time></trkpt><trkpt lat="45.6564585" lon="8.6903864"><ele>211.0</ele><time>2026-04-26T14:59:51.556Z</time></trkpt><trkpt lat="45.65652" lon="8.6904201"><ele>211.5</ele><time>2026-04-26T14:59:56.556Z</time></trkpt><trkpt lat="45.6565724" lon="8.6904752"><ele>212.0</ele><time>2026-04-26T15:00:01.556Z</time></trkpt><trkpt lat="45.6566291" lon="8.6905601"><ele>212.5</ele><time>2026-04-26T15:00:04.556Z</time></trkpt><trkpt lat="45.6566908" lon="8.6906415"><ele>213.0</ele><time>2026-04-26T15:00:07.557Z</time></trkpt><trkpt lat="45.656753" lon="8.6907133"><ele>212.99999999999997</ele><time>2026-04-26T15:00:10.556Z</time></trkpt><trkpt lat="45.6568214" lon="8.6907766"><ele>213.0</ele><time>2026-04-26T15:00:13.557Z</time></trkpt><trkpt lat="45.6568858" lon="8.6908318"><ele>213.0</ele><time>2026-04-26T15:00:16.556Z</time></trkpt><trkpt lat="45.6569526" lon="8.6908745"><ele>213.0</ele><time>2026-04-26T15:00:19.556Z</time></trkpt><trkpt lat="45.6570205" lon="8.6909224"><ele>213.0</ele><time>2026-04-26T15:00:22.556Z</time></trkpt><trkpt lat="45.657075" lon="8.6909676"><ele>212.99999999999997</ele><time>2026-04-26T15:00:27.556Z</time></trkpt><trkpt lat="45.6571408" lon="8.6910252"><ele>213.0</ele><time>2026-04-26T15:00:31.556Z</time></trkpt><trkpt lat="45.657201" lon="8.6910745"><ele>213.14285714285714</ele><time>2026-04-26T15:00:34.556Z</time></trkpt><trkpt lat="45.6572712" lon="8.6911297"><ele>213.28571428571428</ele><time>2026-04-26T15:00:37.556Z</time></trkpt><trkpt lat="45.6573318" lon="8.6912042"><ele>213.42857142857144</ele><time>2026-04-26T15:00:40.556Z</time></trkpt><trkpt lat="45.6573939" lon="8.6912576"><ele>213.57142857142856</ele><time>2026-04-26T15:00:43.556Z</time></trkpt><trkpt lat="45.6574514" lon="8.6913189"><ele>213.71428571428572</ele><time>2026-04-26T15:00:46.556Z</time></trkpt><trkpt lat="45.6575155" lon="8.6913618"><ele>213.85714285714286</ele><time>2026-04-26T15:00:49.556Z</time></trkpt><trkpt lat="45.6575776" lon="8.6914198"><ele>214.0</ele><time>2026-04-26T15:00:52.556Z</time></trkpt><trkpt lat="45.6575423" lon="8.6915205"><ele>214.00000000000003</ele><time>2026-04-26T15:00:59.557Z</time></trkpt><trkpt lat="45.6575876" lon="8.6916028"><ele>214.0</ele><time>2026-04-26T15:01:01.556Z</time></trkpt><trkpt lat="45.6575532" lon="8.6914941"><ele>214.0</ele><time>2026-04-26T15:01:44.556Z</time></trkpt><trkpt lat="45.6575709" lon="8.6913792"><ele>214.0</ele><time>2026-04-26T15:02:28.556Z</time></trkpt><trkpt lat="45.6576242" lon="8.6914354"><ele>214.0</ele><time>2026-04-26T15:02:32.558Z</time></trkpt><trkpt lat="45.6576886" lon="8.6914813"><ele>214.00000000000003</ele><time>2026-04-26T15:02:36.556Z</time></trkpt><trkpt lat="45.6577459" lon="8.6915265"><ele>214.0</ele><time>2026-04-26T15:02:39.556Z</time></trkpt><trkpt lat="45.6577933" lon="8.6915941"><ele>213.71428571428572</ele><time>2026-04-26T15:02:42.557Z</time></trkpt><trkpt lat="45.6578573" lon="8.6916608"><ele>213.42857142857144</ele><time>2026-04-26T15:02:46.556Z</time></trkpt><trkpt lat="45.6579143" lon="8.6917283"><ele>213.14285714285717</ele><time>2026-04-26T15:02:50.556Z</time></trkpt><trkpt lat="45.6579776" lon="8.6917646"><ele>212.85714285714286</ele><time>2026-04-26T15:02:53.557Z</time></trkpt><trkpt lat="45.6580351" lon="8.6918064"><ele>212.57142857142856</ele><time>2026-04-26T15:02:56.556Z</time></trkpt><trkpt lat="45.6580894" lon="8.6918689"><ele>212.2857142857143</ele><time>2026-04-26T15:02:59.558Z</time></trkpt><trkpt lat="45.658149" lon="8.6919134"><ele>212.0</ele><time>2026-04-26T15:03:02.556Z</time></trkpt><trkpt lat="45.6582187" lon="8.6919609"><ele>213.0</ele><time>2026-04-26T15:03:06.556Z</time></trkpt><trkpt lat="45.6582724" lon="8.6920091"><ele>214.0</ele><time>2026-04-26T15:03:09.556Z</time></trkpt><trkpt lat="45.6583402" lon="8.6920557"><ele>215.0</ele><time>2026-04-26T15:03:13.558Z</time></trkpt><trkpt lat="45.6583939" lon="8.6921044"><ele>216.0</ele><time>2026-04-26T15:03:16.557Z</time></trkpt><trkpt lat="45.6584601" lon="8.6921622"><ele>217.0</ele><time>2026-04-26T15:03:20.557Z</time></trkpt><trkpt lat="45.658523" lon="8.6922221"><ele>218.0</ele><time>2026-04-26T15:03:24.556Z</time></trkpt><trkpt lat="45.658587" lon="8.6922846"><ele>219.0</ele><time>2026-04-26T15:03:28.556Z</time></trkpt><trkpt lat="45.6586491" lon="8.6923448"><ele>219.0</ele><time>2026-04-26T15:03:32.556Z</time></trkpt><trkpt lat="45.6587184" lon="8.6923828"><ele>219.0</ele><time>2026-04-26T15:03:36.557Z</time></trkpt><trkpt lat="45.658778" lon="8.6924235"><ele>219.0</ele><time>2026-04-26T15:03:40.557Z</time></trkpt><trkpt lat="45.6588364" lon="8.6924922"><ele>219.0</ele><time>2026-04-26T15:03:44.556Z</time></trkpt><trkpt lat="45.6589007" lon="8.692545"><ele>219.0</ele><time>2026-04-26T15:03:48.556Z</time></trkpt><trkpt lat="45.658962" lon="8.6925993"><ele>219.0</ele><time>2026-04-26T15:04:01.556Z</time></trkpt><trkpt lat="45.6590204" lon="8.6926675"><ele>219.0</ele><time>2026-04-26T15:04:06.557Z</time></trkpt><trkpt lat="45.6590857" lon="8.6927199"><ele>220.28571428571428</ele><time>2026-04-26T15:04:11.556Z</time></trkpt><trkpt lat="45.6591511" lon="8.6927602"><ele>221.57142857142856</ele><time>2026-04-26T15:04:16.558Z</time></trkpt><trkpt lat="45.6592107" lon="8.692798"><ele>222.85714285714283</ele><time>2026-04-26T15:04:21.556Z</time></trkpt><trkpt lat="45.6592717" lon="8.6928494"><ele>224.14285714285714</ele><time>2026-04-26T15:04:26.556Z</time></trkpt><trkpt lat="45.6593371" lon="8.6928935"><ele>225.4285714285714</ele><time>2026-04-26T15:04:31.557Z</time></trkpt><trkpt lat="45.6594004" lon="8.6929561"><ele>226.7142857142857</ele><time>2026-04-26T15:04:37.556Z</time></trkpt><trkpt lat="45.6594517" lon="8.6930111"><ele>228.0</ele><time>2026-04-26T15:04:42.556Z</time></trkpt><trkpt lat="45.6595106" lon="8.693059"><ele>228.0</ele><time>2026-04-26T15:04:47.556Z</time></trkpt><trkpt lat="45.6595674" lon="8.6931212"><ele>227.99999999999997</ele><time>2026-04-26T15:04:53.556Z</time></trkpt><trkpt lat="45.6596228" lon="8.6931703"><ele>228.0</ele><time>2026-04-26T15:04:58.557Z</time></trkpt><trkpt lat="45.6596897" lon="8.6932182"><ele>228.0</ele><time>2026-04-26T15:05:03.555Z</time></trkpt><trkpt lat="45.6597501" lon="8.6932682"><ele>227.99999999999997</ele><time>2026-04-26T15:05:08.555Z</time></trkpt><trkpt lat="45.6598079" lon="8.6933159"><ele>228.0</ele><time>2026-04-26T15:05:14.555Z</time></trkpt><trkpt lat="45.6598637" lon="8.6933604"><ele>228.0</ele><time>2026-04-26T15:05:18.555Z</time></trkpt><trkpt lat="45.6599265" lon="8.6934129"><ele>228.0</ele><time>2026-04-26T15:05:24.555Z</time></trkpt><trkpt lat="45.6599931" lon="8.6934548"><ele>227.99999999999997</ele><time>2026-04-26T15:05:30.555Z</time></trkpt><trkpt lat="45.6600525" lon="8.6934931"><ele>228.0</ele><time>2026-04-26T15:05:36.555Z</time></trkpt><trkpt lat="45.6601113" lon="8.6935493"><ele>228.0</ele><time>2026-04-26T15:05:42.555Z</time></trkpt><trkpt lat="45.6601691" lon="8.6935975"><ele>227.99999999999997</ele><time>2026-04-26T15:05:47.556Z</time></trkpt><trkpt lat="45.660232" lon="8.6936385"><ele>228.0</ele><time>2026-04-26T15:05:53.556Z</time></trkpt><trkpt lat="45.6602957" lon="8.6937012"><ele>228.0</ele><time>2026-04-26T15:05:58.556Z</time></trkpt><trkpt lat="45.6603607" lon="8.6937432"><ele>228.85714285714283</ele><time>2026-04-26T15:06:03.556Z</time></trkpt><trkpt lat="45.6604204" lon="8.6937974"><ele>229.7142857142857</ele><time>2026-04-26T15:06:09.555Z</time></trkpt><trkpt lat="45.6604906" lon="8.6938464"><ele>230.57142857142856</ele><time>2026-04-26T15:06:16.555Z</time></trkpt><trkpt lat="45.660537" lon="8.6939082"><ele>231.42857142857144</ele><time>2026-04-26T15:06:21.556Z</time></trkpt><trkpt lat="45.6605989" lon="8.6939539"><ele>232.2857142857143</ele><time>2026-04-26T15:06:25.555Z</time></trkpt><trkpt lat="45.6606533" lon="8.694006"><ele>233.14285714285717</ele><time>2026-04-26T15:06:29.556Z</time></trkpt><trkpt lat="45.6607107" lon="8.6940594"><ele>234.0</ele><time>2026-04-26T15:06:33.555Z</time></trkpt><trkpt lat="45.6607623" lon="8.6941251"><ele>234.0</ele><time>2026-04-26T15:06:37.556Z</time></trkpt><trkpt lat="45.660813" lon="8.6941817"><ele>234.00000000000003</ele><time>2026-04-26T15:06:43.556Z</time></trkpt><trkpt lat="45.66088" lon="8.6942332"><ele>234.0</ele><time>2026-04-26T15:06:48.556Z</time></trkpt><trkpt lat="45.6609331" lon="8.6942918"><ele>234.0</ele><time>2026-04-26T15:06:52.555Z</time></trkpt><trkpt lat="45.6609837" lon="8.6943531"><ele>234.00000000000003</ele><time>2026-04-26T15:06:55.555Z</time></trkpt><trkpt lat="45.6610346" lon="8.6944109"><ele>234.0</ele><time>2026-04-26T15:06:58.555Z</time></trkpt><trkpt lat="45.6610898" lon="8.6944614"><ele>234.0</ele><time>2026-04-26T15:07:04.556Z</time></trkpt><trkpt lat="45.6611568" lon="8.6944586"><ele>235.57142857142858</ele><time>2026-04-26T15:07:11.555Z</time></trkpt><trkpt lat="45.6612314" lon="8.6945206"><ele>237.14285714285717</ele><time>2026-04-26T15:07:17.555Z</time></trkpt><trkpt lat="45.6612949" lon="8.694575"><ele>238.71428571428572</ele><time>2026-04-26T15:07:24.555Z</time></trkpt><trkpt lat="45.6613547" lon="8.6946224"><ele>240.28571428571428</ele><time>2026-04-26T15:07:31.555Z</time></trkpt><trkpt lat="45.6614069" lon="8.6946771"><ele>241.85714285714286</ele><time>2026-04-26T15:07:36.556Z</time></trkpt><trkpt lat="45.6614685" lon="8.6947296"><ele>243.42857142857144</ele><time>2026-04-26T15:07:41.556Z</time></trkpt><trkpt lat="45.6615191" lon="8.6947847"><ele>245.0</ele><time>2026-04-26T15:07:44.555Z</time></trkpt><trkpt lat="45.6615798" lon="8.6948371"><ele>245.0</ele><time>2026-04-26T15:07:48.556Z</time></trkpt><trkpt lat="45.6616425" lon="8.6948968"><ele>245.0</ele><time>2026-04-26T15:07:53.557Z</time></trkpt><trkpt lat="45.6616978" lon="8.694951"><ele>245.0</ele><time>2026-04-26T15:07:59.555Z</time></trkpt><trkpt lat="45.6617464" lon="8.695009"><ele>245.0</ele><time>2026-04-26T15:08:07.555Z</time></trkpt><trkpt lat="45.6618131" lon="8.6950532"><ele>245.0</ele><time>2026-04-26T15:08:13.556Z</time></trkpt><trkpt lat="45.6618786" lon="8.6950905"><ele>245.0</ele><time>2026-04-26T15:08:19.555Z</time></trkpt><trkpt lat="45.6619434" lon="8.6951391"><ele>245.0</ele><time>2026-04-26T15:08:24.555Z</time></trkpt><trkpt lat="45.661994" lon="8.6951949"><ele>245.0</ele><time>2026-04-26T15:08:28.556Z</time></trkpt><trkpt lat="45.6620442" lon="8.6952524"><ele>245.0</ele><time>2026-04-26T15:08:31.555Z</time></trkpt><trkpt lat="45.6621036" lon="8.6953201"><ele>245.0</ele><time>2026-04-26T15:08:35.555Z</time></trkpt><trkpt lat="45.6621621" lon="8.6953686"><ele>245.0</ele><time>2026-04-26T15:08:38.556Z</time></trkpt><trkpt lat="45.6622181" lon="8.6954131"><ele>245.0</ele><time>2026-04-26T15:08:41.556Z</time></trkpt><trkpt lat="45.6622928" lon="8.6954485"><ele>245.0</ele><time>2026-04-26T15:08:45.556Z</time></trkpt><trkpt lat="45.6623585" lon="8.6954423"><ele>245.0</ele><time>2026-04-26T15:08:49.555Z</time></trkpt><trkpt lat="45.6624194" lon="8.6954781"><ele>245.00000000000003</ele><time>2026-04-26T15:08:53.556Z</time></trkpt><trkpt lat="45.6624885" lon="8.6955184"><ele>245.0</ele><time>2026-04-26T15:08:57.555Z</time></trkpt><trkpt lat="45.6625608" lon="8.6955546"><ele>245.0</ele><time>2026-04-26T15:09:01.555Z</time></trkpt><trkpt lat="45.6626334" lon="8.6955845"><ele>245.0</ele><time>2026-04-26T15:09:05.556Z</time></trkpt><trkpt lat="45.6627126" lon="8.6956068"><ele>245.00000000000003</ele><time>2026-04-26T15:09:09.555Z</time></trkpt><trkpt lat="45.662785" lon="8.6956342"><ele>245.0</ele><time>2026-04-26T15:09:12.555Z</time></trkpt><trkpt lat="45.6628563" lon="8.695667"><ele>245.33333333333334</ele><time>2026-04-26T15:09:15.555Z</time></trkpt><trkpt lat="45.6629266" lon="8.6956964"><ele>245.66666666666669</ele><time>2026-04-26T15:09:18.555Z</time></trkpt><trkpt lat="45.6630071" lon="8.6957219"><ele>246.0</ele><time>2026-04-26T15:09:21.555Z</time></trkpt><trkpt lat="45.6630896" lon="8.695753"><ele>246.33333333333331</ele><time>2026-04-26T15:09:24.555Z</time></trkpt><trkpt lat="45.6631692" lon="8.6957915"><ele>246.66666666666666</ele><time>2026-04-26T15:09:27.555Z</time></trkpt><trkpt lat="45.6632569" lon="8.6958227"><ele>247.0</ele><time>2026-04-26T15:09:30.555Z</time></trkpt><trkpt lat="45.6633405" lon="8.6958504"><ele>246.99999999999997</ele><time>2026-04-26T15:09:33.555Z</time></trkpt><trkpt lat="45.6634226" lon="8.6958745"><ele>247.0</ele><time>2026-04-26T15:09:36.555Z</time></trkpt><trkpt lat="45.663513" lon="8.6959133"><ele>247.0</ele><time>2026-04-26T15:09:39.556Z</time></trkpt><trkpt lat="45.6635984" lon="8.6959577"><ele>247.0</ele><time>2026-04-26T15:09:42.555Z</time></trkpt><trkpt lat="45.6636597" lon="8.6959798"><ele>246.99999999999997</ele><time>2026-04-26T15:09:44.555Z</time></trkpt><trkpt lat="45.6637312" lon="8.6960098"><ele>247.0</ele><time>2026-04-26T15:09:47.556Z</time></trkpt><trkpt lat="45.6638002" lon="8.6960202"><ele>246.85714285714286</ele><time>2026-04-26T15:09:50.555Z</time></trkpt><trkpt lat="45.6638641" lon="8.6960634"><ele>246.71428571428572</ele><time>2026-04-26T15:09:53.557Z</time></trkpt><trkpt lat="45.6639339" lon="8.6960979"><ele>246.57142857142858</ele><time>2026-04-26T15:09:56.555Z</time></trkpt><trkpt lat="45.6639879" lon="8.6961478"><ele>246.42857142857144</ele><time>2026-04-26T15:09:58.555Z</time></trkpt><trkpt lat="45.6640656" lon="8.696196"><ele>246.28571428571428</ele><time>2026-04-26T15:10:00.555Z</time></trkpt><trkpt lat="45.6641251" lon="8.6962502"><ele>246.14285714285717</ele><time>2026-04-26T15:10:02.556Z</time></trkpt><trkpt lat="45.6642069" lon="8.6962408"><ele>246.00000000000003</ele><time>2026-04-26T15:10:04.556Z</time></trkpt><trkpt lat="45.6642078" lon="8.696136"><ele>246.0</ele><time>2026-04-26T15:10:05.555Z</time></trkpt><trkpt lat="45.6641368" lon="8.6960891"><ele>246.0</ele><time>2026-04-26T15:10:07.555Z</time></trkpt><trkpt lat="45.6640449" lon="8.6960838"><ele>246.0</ele><time>2026-04-26T15:10:10.555Z</time></trkpt><trkpt lat="45.6639861" lon="8.6960251"><ele>246.0</ele><time>2026-04-26T15:10:13.555Z</time></trkpt><trkpt lat="45.663999" lon="8.6959058"><ele>246.0</ele><time>2026-04-26T15:10:19.555Z</time></trkpt><trkpt lat="45.6640155" lon="8.6960003"><ele>246.0</ele><time>2026-04-26T15:10:50.556Z</time></trkpt><trkpt lat="45.6639981" lon="8.6958862"><ele>246.0</ele><time>2026-04-26T15:11:05.554Z</time></trkpt><trkpt lat="45.6639958" lon="8.6957784"><ele>246.0</ele><time>2026-04-26T15:11:08.554Z</time></trkpt><trkpt lat="45.6639686" lon="8.6956481"><ele>246.0</ele><time>2026-04-26T15:11:11.556Z</time></trkpt><trkpt lat="45.6639585" lon="8.6955534"><ele>246.0</ele><time>2026-04-26T15:11:14.555Z</time></trkpt><trkpt lat="45.663959" lon="8.6954308"><ele>246.0</ele><time>2026-04-26T15:11:17.554Z</time></trkpt><trkpt lat="45.6639638" lon="8.6953183"><ele>246.0</ele><time>2026-04-26T15:11:19.556Z</time></trkpt><trkpt lat="45.6639545" lon="8.6952239"><ele>246.0</ele><time>2026-04-26T15:11:21.554Z</time></trkpt><trkpt lat="45.6639343" lon="8.6951273"><ele>246.0</ele><time>2026-04-26T15:11:23.555Z</time></trkpt><trkpt lat="45.6639331" lon="8.6950265"><ele>246.0</ele><time>2026-04-26T15:11:25.554Z</time></trkpt><trkpt lat="45.6639347" lon="8.6949338"><ele>246.0</ele><time>2026-04-26T15:11:27.554Z</time></trkpt><trkpt lat="45.6639313" lon="8.6947514"><ele>246.0</ele><time>2026-04-26T15:11:38.555Z</time></trkpt><trkpt lat="45.6639213" lon="8.6946291"><ele>246.0</ele><time>2026-04-26T15:11:41.555Z</time></trkpt><trkpt lat="45.6639168" lon="8.6945134"><ele>245.5</ele><time>2026-04-26T15:11:44.555Z</time></trkpt><trkpt lat="45.6639241" lon="8.6943849"><ele>245.0</ele><time>2026-04-26T15:11:47.554Z</time></trkpt><trkpt lat="45.6639238" lon="8.694259"><ele>244.5</ele><time>2026-04-26T15:11:50.554Z</time></trkpt><trkpt lat="45.6639401" lon="8.6941423"><ele>244.0</ele><time>2026-04-26T15:11:53.554Z</time></trkpt><trkpt lat="45.6640006" lon="8.6940719"><ele>243.5</ele><time>2026-04-26T15:11:57.554Z</time></trkpt><trkpt lat="45.6640802" lon="8.6940616"><ele>243.0</ele><time>2026-04-26T15:12:00.556Z</time></trkpt><trkpt lat="45.6641511" lon="8.6940105"><ele>243.0</ele><time>2026-04-26T15:12:03.554Z</time></trkpt><trkpt lat="45.6642196" lon="8.6939682"><ele>243.0</ele><time>2026-04-26T15:12:06.555Z</time></trkpt><trkpt lat="45.6642993" lon="8.6939348"><ele>243.0</ele><time>2026-04-26T15:12:10.555Z</time></trkpt><trkpt lat="45.6643677" lon="8.6939076"><ele>243.0</ele><time>2026-04-26T15:12:13.555Z</time></trkpt><trkpt lat="45.6644397" lon="8.6938949"><ele>243.0</ele><time>2026-04-26T15:12:15.554Z</time></trkpt><trkpt lat="45.6645102" lon="8.6938813"><ele>243.0</ele><time>2026-04-26T15:12:17.555Z</time></trkpt><trkpt lat="45.6645787" lon="8.6938629"><ele>243.0</ele><time>2026-04-26T15:12:19.554Z</time></trkpt><trkpt lat="45.6646305" lon="8.6937988"><ele>243.0</ele><time>2026-04-26T15:12:22.554Z</time></trkpt><trkpt lat="45.6647083" lon="8.6937963"><ele>243.0</ele><time>2026-04-26T15:12:31.555Z</time></trkpt><trkpt lat="45.6647803" lon="8.693781"><ele>243.0</ele><time>2026-04-26T15:12:35.555Z</time></trkpt><trkpt lat="45.6648485" lon="8.6937439"><ele>243.0</ele><time>2026-04-26T15:12:38.554Z</time></trkpt><trkpt lat="45.6649076" lon="8.6936932"><ele>243.0</ele><time>2026-04-26T15:12:41.554Z</time></trkpt><trkpt lat="45.6649912" lon="8.6936125"><ele>243.0</ele><time>2026-04-26T15:12:44.555Z</time></trkpt><trkpt lat="45.6650447" lon="8.6935464"><ele>243.0</ele><time>2026-04-26T15:12:46.554Z</time></trkpt><trkpt lat="45.6651104" lon="8.6934858"><ele>243.0</ele><time>2026-04-26T15:12:49.555Z</time></trkpt><trkpt lat="45.6651744" lon="8.6934418"><ele>243.0</ele><time>2026-04-26T15:12:52.555Z</time></trkpt><trkpt lat="45.6652315" lon="8.6933901"><ele>243.0</ele><time>2026-04-26T15:12:55.554Z</time></trkpt><trkpt lat="45.6652927" lon="8.6933421"><ele>243.0</ele><time>2026-04-26T15:12:58.554Z</time></trkpt><trkpt lat="45.6653573" lon="8.6933021"><ele>243.0</ele><time>2026-04-26T15:13:01.554Z</time></trkpt><trkpt lat="45.6654217" lon="8.6932494"><ele>243.0</ele><time>2026-04-26T15:13:04.555Z</time></trkpt><trkpt lat="45.665495" lon="8.6931774"><ele>243.83333333333334</ele><time>2026-04-26T15:13:07.554Z</time></trkpt><trkpt lat="45.6655488" lon="8.6931266"><ele>244.66666666666669</ele><time>2026-04-26T15:13:09.554Z</time></trkpt><trkpt lat="45.6656212" lon="8.6930668"><ele>245.5</ele><time>2026-04-26T15:13:12.555Z</time></trkpt><trkpt lat="45.6656927" lon="8.6930098"><ele>246.33333333333334</ele><time>2026-04-26T15:13:15.555Z</time></trkpt><trkpt lat="45.6657585" lon="8.6929425"><ele>247.16666666666669</ele><time>2026-04-26T15:13:18.555Z</time></trkpt><trkpt lat="45.6658252" lon="8.6928787"><ele>248.0</ele><time>2026-04-26T15:13:21.555Z</time></trkpt><trkpt lat="45.6658814" lon="8.6928204"><ele>247.66666666666669</ele><time>2026-04-26T15:13:23.555Z</time></trkpt><trkpt lat="45.6659382" lon="8.6927429"><ele>247.33333333333334</ele><time>2026-04-26T15:13:25.554Z</time></trkpt><trkpt lat="45.6660061" lon="8.6926823"><ele>247.0</ele><time>2026-04-26T15:13:27.554Z</time></trkpt><trkpt lat="45.6660792" lon="8.6926199"><ele>246.66666666666669</ele><time>2026-04-26T15:13:29.554Z</time></trkpt><trkpt lat="45.6661407" lon="8.692568"><ele>246.33333333333334</ele><time>2026-04-26T15:13:31.554Z</time></trkpt><trkpt lat="45.6662037" lon="8.6925106"><ele>246.0</ele><time>2026-04-26T15:13:33.555Z</time></trkpt><trkpt lat="45.6662701" lon="8.6924545"><ele>246.00000000000003</ele><time>2026-04-26T15:13:35.554Z</time></trkpt><trkpt lat="45.6663355" lon="8.692432"><ele>246.0</ele><time>2026-04-26T15:13:37.554Z</time></trkpt><trkpt lat="45.6663938" lon="8.6923861"><ele>246.00000000000003</ele><time>2026-04-26T15:13:39.554Z</time></trkpt><trkpt lat="45.6664504" lon="8.6923448"><ele>246.00000000000003</ele><time>2026-04-26T15:13:41.554Z</time></trkpt><trkpt lat="45.6665298" lon="8.6922965"><ele>246.0</ele><time>2026-04-26T15:13:44.554Z</time></trkpt><trkpt lat="45.6665886" lon="8.6922474"><ele>246.00000000000003</ele><time>2026-04-26T15:13:46.554Z</time></trkpt><trkpt lat="45.6666673" lon="8.6921842"><ele>246.00000000000003</ele><time>2026-04-26T15:13:49.555Z</time></trkpt><trkpt lat="45.6667485" lon="8.6921275"><ele>246.0</ele><time>2026-04-26T15:13:52.554Z</time></trkpt><trkpt lat="45.6668176" lon="8.6920889"><ele>246.0</ele><time>2026-04-26T15:13:55.554Z</time></trkpt><trkpt lat="45.6668991" lon="8.6920171"><ele>246.0</ele><time>2026-04-26T15:13:58.554Z</time></trkpt><trkpt lat="45.6669816" lon="8.6919679"><ele>246.0</ele><time>2026-04-26T15:14:01.554Z</time></trkpt><trkpt lat="45.6670493" lon="8.6919136"><ele>246.0</ele><time>2026-04-26T15:14:04.555Z</time></trkpt><trkpt lat="45.6671173" lon="8.6918565"><ele>246.0</ele><time>2026-04-26T15:14:07.554Z</time></trkpt><trkpt lat="45.6671844" lon="8.6918289"><ele>245.28571428571433</ele><time>2026-04-26T15:14:10.554Z</time></trkpt><trkpt lat="45.667252" lon="8.6917907"><ele>244.57142857142858</ele><time>2026-04-26T15:14:13.554Z</time></trkpt><trkpt lat="45.6673195" lon="8.6917302"><ele>243.8571428571429</ele><time>2026-04-26T15:14:15.554Z</time></trkpt><trkpt lat="45.6673865" lon="8.6917023"><ele>243.14285714285717</ele><time>2026-04-26T15:14:18.554Z</time></trkpt><trkpt lat="45.6674465" lon="8.6916384"><ele>242.42857142857144</ele><time>2026-04-26T15:14:42.554Z</time></trkpt><trkpt lat="45.6674251" lon="8.6915419"><ele>241.71428571428572</ele><time>2026-04-26T15:14:45.554Z</time></trkpt><trkpt lat="45.66741" lon="8.6914463"><ele>241.0</ele><time>2026-04-26T15:14:48.555Z</time></trkpt><trkpt lat="45.6673928" lon="8.6913494"><ele>240.99999999999997</ele><time>2026-04-26T15:14:51.554Z</time></trkpt><trkpt lat="45.6673682" lon="8.6912467"><ele>241.0</ele><time>2026-04-26T15:14:54.554Z</time></trkpt><trkpt lat="45.6673417" lon="8.6911398"><ele>241.0</ele><time>2026-04-26T15:14:57.554Z</time></trkpt><trkpt lat="45.6673158" lon="8.6910371"><ele>241.0</ele><time>2026-04-26T15:15:00.554Z</time></trkpt><trkpt lat="45.6672925" lon="8.6909441"><ele>240.99999999999997</ele><time>2026-04-26T15:15:03.554Z</time></trkpt><trkpt lat="45.6672665" lon="8.6908383"><ele>241.0</ele><time>2026-04-26T15:15:07.554Z</time></trkpt><trkpt lat="45.6672409" lon="8.6907274"><ele>240.99999999999997</ele><time>2026-04-26T15:15:10.555Z</time></trkpt><trkpt lat="45.6672086" lon="8.6906039"><ele>241.0</ele><time>2026-04-26T15:15:13.554Z</time></trkpt><trkpt lat="45.6672237" lon="8.6904947"><ele>241.0</ele><time>2026-04-26T15:15:15.554Z</time></trkpt><trkpt lat="45.6672783" lon="8.6904124"><ele>241.0</ele><time>2026-04-26T15:15:17.554Z</time></trkpt><trkpt lat="45.6673371" lon="8.6903657"><ele>240.99999999999997</ele><time>2026-04-26T15:15:19.554Z</time></trkpt><trkpt lat="45.6673969" lon="8.6903043"><ele>241.0</ele><time>2026-04-26T15:15:22.555Z</time></trkpt><trkpt lat="45.667454" lon="8.6902649"><ele>241.71428571428572</ele><time>2026-04-26T15:15:24.554Z</time></trkpt><trkpt lat="45.6675126" lon="8.6902275"><ele>242.42857142857144</ele><time>2026-04-26T15:15:26.554Z</time></trkpt><trkpt lat="45.667573" lon="8.6901971"><ele>243.14285714285717</ele><time>2026-04-26T15:15:28.553Z</time></trkpt><trkpt lat="45.6676478" lon="8.6901416"><ele>243.8571428571429</ele><time>2026-04-26T15:15:31.553Z</time></trkpt><trkpt lat="45.6677041" lon="8.690077"><ele>244.57142857142858</ele><time>2026-04-26T15:15:33.554Z</time></trkpt><trkpt lat="45.6677588" lon="8.6900216"><ele>245.28571428571433</ele><time>2026-04-26T15:15:35.554Z</time></trkpt><trkpt lat="45.6678207" lon="8.6899742"><ele>246.00000000000003</ele><time>2026-04-26T15:15:37.554Z</time></trkpt><trkpt lat="45.6678848" lon="8.6899297"><ele>246.14285714285717</ele><time>2026-04-26T15:15:39.553Z</time></trkpt><trkpt lat="45.6679486" lon="8.6898996"><ele>246.28571428571428</ele><time>2026-04-26T15:15:41.553Z</time></trkpt><trkpt lat="45.6680065" lon="8.689854"><ele>246.42857142857144</ele><time>2026-04-26T15:15:43.553Z</time></trkpt><trkpt lat="45.6680628" lon="8.6898113"><ele>246.57142857142858</ele><time>2026-04-26T15:15:45.553Z</time></trkpt><trkpt lat="45.6681367" lon="8.689738"><ele>246.71428571428572</ele><time>2026-04-26T15:15:48.553Z</time></trkpt><trkpt lat="45.6682183" lon="8.6896725"><ele>246.85714285714286</ele><time>2026-04-26T15:15:51.553Z</time></trkpt><trkpt lat="45.6682757" lon="8.6896228"><ele>247.0</ele><time>2026-04-26T15:15:53.553Z</time></trkpt><trkpt lat="45.6683375" lon="8.6895749"><ele>246.99999999999997</ele><time>2026-04-26T15:15:55.553Z</time></trkpt><trkpt lat="45.6683995" lon="8.6895358"><ele>247.0</ele><time>2026-04-26T15:15:57.553Z</time></trkpt><trkpt lat="45.6684756" lon="8.689462"><ele>247.0</ele><time>2026-04-26T15:16:00.553Z</time></trkpt><trkpt lat="45.6685301" lon="8.6893996"><ele>247.0</ele><time>2026-04-26T15:16:02.553Z</time></trkpt><trkpt lat="45.6686101" lon="8.6893377"><ele>246.99999999999997</ele><time>2026-04-26T15:16:05.553Z</time></trkpt><trkpt lat="45.6686946" lon="8.6893386"><ele>247.0</ele><time>2026-04-26T15:16:08.553Z</time></trkpt><trkpt lat="45.6687403" lon="8.6894163"><ele>247.33333333333331</ele><time>2026-04-26T15:16:10.553Z</time></trkpt><trkpt lat="45.668798" lon="8.6894626"><ele>247.66666666666666</ele><time>2026-04-26T15:16:13.554Z</time></trkpt><trkpt lat="45.6688526" lon="8.6894009"><ele>248.0</ele><time>2026-04-26T15:16:16.554Z</time></trkpt><trkpt lat="45.6689069" lon="8.6893383"><ele>248.33333333333331</ele><time>2026-04-26T15:16:19.553Z</time></trkpt><trkpt lat="45.6689654" lon="8.6892774"><ele>248.66666666666666</ele><time>2026-04-26T15:16:22.554Z</time></trkpt><trkpt lat="45.6690444" lon="8.6892256"><ele>249.0</ele><time>2026-04-26T15:16:25.553Z</time></trkpt><trkpt lat="45.6691208" lon="8.6891721"><ele>249.33333333333334</ele><time>2026-04-26T15:16:28.553Z</time></trkpt><trkpt lat="45.669198" lon="8.6891285"><ele>249.66666666666669</ele><time>2026-04-26T15:16:31.553Z</time></trkpt><trkpt lat="45.6692597" lon="8.6890526"><ele>250.0</ele><time>2026-04-26T15:16:34.553Z</time></trkpt><trkpt lat="45.6693127" lon="8.6889894"><ele>250.33333333333334</ele><time>2026-04-26T15:16:37.553Z</time></trkpt><trkpt lat="45.6693795" lon="8.688984"><ele>250.66666666666669</ele><time>2026-04-26T15:16:40.554Z</time></trkpt><trkpt lat="45.6694483" lon="8.6889411"><ele>251.0</ele><time>2026-04-26T15:16:44.553Z</time></trkpt><trkpt lat="45.6695247" lon="8.6889118"><ele>251.71428571428567</ele><time>2026-04-26T15:16:48.553Z</time></trkpt><trkpt lat="45.669583" lon="8.6889927"><ele>252.42857142857142</ele><time>2026-04-26T15:16:52.555Z</time></trkpt><trkpt lat="45.6696153" lon="8.6890909"><ele>253.1428571428571</ele><time>2026-04-26T15:16:55.554Z</time></trkpt><trkpt lat="45.6696598" lon="8.6891882"><ele>253.85714285714283</ele><time>2026-04-26T15:16:58.553Z</time></trkpt><trkpt lat="45.6696859" lon="8.6892858"><ele>254.57142857142856</ele><time>2026-04-26T15:17:01.553Z</time></trkpt><trkpt lat="45.6697155" lon="8.6893772"><ele>255.28571428571428</ele><time>2026-04-26T15:17:04.554Z</time></trkpt><trkpt lat="45.6697391" lon="8.6894616"><ele>256.0</ele><time>2026-04-26T15:17:07.553Z</time></trkpt><trkpt lat="45.6698024" lon="8.6895288"><ele>256.0</ele><time>2026-04-26T15:17:10.554Z</time></trkpt><trkpt lat="45.6698656" lon="8.6895129"><ele>255.99999999999997</ele><time>2026-04-26T15:17:22.553Z</time></trkpt><trkpt lat="45.6699294" lon="8.6894998"><ele>256.0</ele><time>2026-04-26T15:17:26.553Z</time></trkpt><trkpt lat="45.6699819" lon="8.6894484"><ele>256.0</ele><time>2026-04-26T15:17:33.553Z</time></trkpt><trkpt lat="45.6700365" lon="8.6893997"><ele>255.99999999999997</ele><time>2026-04-26T15:17:42.553Z</time></trkpt><trkpt lat="45.6700946" lon="8.6893596"><ele>256.0</ele><time>2026-04-26T15:17:52.555Z</time></trkpt><trkpt lat="45.67016" lon="8.6893293"><ele>256.0</ele><time>2026-04-26T15:19:09.553Z</time></trkpt><trkpt lat="45.6702068" lon="8.6892608"><ele>256.1428571428571</ele><time>2026-04-26T15:19:19.553Z</time></trkpt><trkpt lat="45.6702684" lon="8.6892962"><ele>256.2857142857143</ele><time>2026-04-26T15:19:30.553Z</time></trkpt><trkpt lat="45.6703294" lon="8.689271"><ele>256.42857142857144</ele><time>2026-04-26T15:19:50.552Z</time></trkpt><trkpt lat="45.6703808" lon="8.6893385"><ele>256.57142857142856</ele><time>2026-04-26T15:20:01.552Z</time></trkpt><trkpt lat="45.6704341" lon="8.6893937"><ele>256.7142857142857</ele><time>2026-04-26T15:20:12.552Z</time></trkpt><trkpt lat="45.6704887" lon="8.6894478"><ele>256.85714285714283</ele><time>2026-04-26T15:20:21.552Z</time></trkpt><trkpt lat="45.6705564" lon="8.6894668"><ele>257.0</ele><time>2026-04-26T15:20:32.544Z</time></trkpt><trkpt lat="45.6706104" lon="8.6895194"><ele>257.57142857142856</ele><time>2026-04-26T15:20:43.552Z</time></trkpt><trkpt lat="45.6706656" lon="8.6894666"><ele>258.14285714285717</ele><time>2026-04-26T15:21:08.551Z</time></trkpt><trkpt lat="45.6707345" lon="8.68944"><ele>258.7142857142857</ele><time>2026-04-26T15:21:12.554Z</time></trkpt><trkpt lat="45.670799" lon="8.6894367"><ele>259.2857142857143</ele><time>2026-04-26T15:21:15.552Z</time></trkpt><trkpt lat="45.6708667" lon="8.6894301"><ele>259.85714285714283</ele><time>2026-04-26T15:21:18.551Z</time></trkpt><trkpt lat="45.6709478" lon="8.6894306"><ele>260.42857142857144</ele><time>2026-04-26T15:21:22.549Z</time></trkpt><trkpt lat="45.6710115" lon="8.6894402"><ele>261.0</ele><time>2026-04-26T15:21:26.548Z</time></trkpt><trkpt lat="45.6710763" lon="8.6894308"><ele>261.1666666666667</ele><time>2026-04-26T15:21:29.553Z</time></trkpt><trkpt lat="45.6711438" lon="8.689438"><ele>261.3333333333333</ele><time>2026-04-26T15:21:32.557Z</time></trkpt><trkpt lat="45.6712073" lon="8.6894393"><ele>261.5</ele><time>2026-04-26T15:21:36.558Z</time></trkpt><trkpt lat="45.6712791" lon="8.6894261"><ele>261.66666666666663</ele><time>2026-04-26T15:21:41.557Z</time></trkpt><trkpt lat="45.671354" lon="8.6894055"><ele>261.8333333333333</ele><time>2026-04-26T15:21:45.553Z</time></trkpt><trkpt lat="45.6714911" lon="8.689376"><ele>262.0</ele><time>2026-04-26T15:21:47.555Z</time></trkpt><trkpt lat="45.6715574" lon="8.6893611"><ele>262.42857142857144</ele><time>2026-04-26T15:21:50.556Z</time></trkpt><trkpt lat="45.6716236" lon="8.6893522"><ele>262.8571428571429</ele><time>2026-04-26T15:21:53.549Z</time></trkpt><trkpt lat="45.6716974" lon="8.6893336"><ele>263.2857142857143</ele><time>2026-04-26T15:21:57.55Z</time></trkpt><trkpt lat="45.6717685" lon="8.689305"><ele>263.7142857142857</ele><time>2026-04-26T15:22:01.55Z</time></trkpt><trkpt lat="45.6718396" lon="8.6892869"><ele>264.1428571428571</ele><time>2026-04-26T15:22:05.547Z</time></trkpt><trkpt lat="45.6719227" lon="8.689277"><ele>264.57142857142856</ele><time>2026-04-26T15:22:09.547Z</time></trkpt><trkpt lat="45.6719921" lon="8.6892546"><ele>265.0</ele><time>2026-04-26T15:22:12.558Z</time></trkpt><trkpt lat="45.6720655" lon="8.6892393"><ele>264.99999999999994</ele><time>2026-04-26T15:22:15.549Z</time></trkpt><trkpt lat="45.6721404" lon="8.6892295"><ele>265.0</ele><time>2026-04-26T15:22:18.553Z</time></trkpt><trkpt lat="45.6722135" lon="8.6892291"><ele>265.0</ele><time>2026-04-26T15:22:21.555Z</time></trkpt><trkpt lat="45.6722957" lon="8.6892209"><ele>265.0</ele><time>2026-04-26T15:22:25.556Z</time></trkpt><trkpt lat="45.6723637" lon="8.6892116"><ele>265.0</ele><time>2026-04-26T15:22:28.556Z</time></trkpt><trkpt lat="45.6724323" lon="8.6891973"><ele>264.99999999999994</ele><time>2026-04-26T15:22:31.546Z</time></trkpt><trkpt lat="45.6725013" lon="8.6891892"><ele>265.0</ele><time>2026-04-26T15:22:34.551Z</time></trkpt><trkpt lat="45.6725646" lon="8.6891689"><ele>264.99999999999994</ele><time>2026-04-26T15:22:38.557Z</time></trkpt><trkpt lat="45.6726392" lon="8.689153"><ele>265.0</ele><time>2026-04-26T15:22:42.556Z</time></trkpt><trkpt lat="45.6727023" lon="8.6891542"><ele>265.0</ele><time>2026-04-26T15:22:45.557Z</time></trkpt><trkpt lat="45.672786" lon="8.6891388"><ele>265.0</ele><time>2026-04-26T15:22:49.556Z</time></trkpt><trkpt lat="45.672848" lon="8.6891601"><ele>265.0</ele><time>2026-04-26T15:22:52.547Z</time></trkpt><trkpt lat="45.6729169" lon="8.6891932"><ele>264.99999999999994</ele><time>2026-04-26T15:22:56.552Z</time></trkpt><trkpt lat="45.6729845" lon="8.6891646"><ele>265.0</ele><time>2026-04-26T15:23:01.559Z</time></trkpt><trkpt lat="45.673053" lon="8.6891569"><ele>264.71428571428567</ele><time>2026-04-26T15:23:06.552Z</time></trkpt><trkpt lat="45.6731007" lon="8.6892259"><ele>264.42857142857144</ele><time>2026-04-26T15:23:20.551Z</time></trkpt><trkpt lat="45.673089" lon="8.6893226"><ele>264.1428571428571</ele><time>2026-04-26T15:23:44.555Z</time></trkpt><trkpt lat="45.673103" lon="8.6894266"><ele>263.85714285714283</ele><time>2026-04-26T15:24:01.554Z</time></trkpt><trkpt lat="45.6731359" lon="8.6895104"><ele>263.57142857142856</ele><time>2026-04-26T15:24:06.546Z</time></trkpt><trkpt lat="45.6731883" lon="8.6895657"><ele>263.2857142857143</ele><time>2026-04-26T15:24:12.557Z</time></trkpt><trkpt lat="45.6732386" lon="8.6896318"><ele>263.0</ele><time>2026-04-26T15:24:19.546Z</time></trkpt><trkpt lat="45.6732413" lon="8.6895347"><ele>263.0</ele><time>2026-04-26T15:24:40.554Z</time></trkpt><trkpt lat="45.6732115" lon="8.6894424"><ele>263.0</ele><time>2026-04-26T15:24:47.559Z</time></trkpt><trkpt lat="45.6732161" lon="8.6893493"><ele>263.0</ele><time>2026-04-26T15:24:56.556Z</time></trkpt><trkpt lat="45.6732029" lon="8.6894376"><ele>263.0</ele><time>2026-04-26T15:25:24.557Z</time></trkpt><trkpt lat="45.6731315" lon="8.6894553"><ele>263.0</ele><time>2026-04-26T15:25:30.566Z</time></trkpt><trkpt lat="45.6730665" lon="8.689436"><ele>263.0</ele><time>2026-04-26T15:25:38.555Z</time></trkpt><trkpt lat="45.6730504" lon="8.6893443"><ele>263.0</ele><time>2026-04-26T15:25:50.558Z</time></trkpt><trkpt lat="45.6730701" lon="8.6892532"><ele>263.0</ele><time>2026-04-26T15:26:01.552Z</time></trkpt><trkpt lat="45.6730651" lon="8.6893432"><ele>263.0</ele><time>2026-04-26T15:26:21.581Z</time></trkpt><trkpt lat="45.6730942" lon="8.6894275"><ele>263.0</ele><time>2026-04-26T15:26:32.552Z</time></trkpt><trkpt lat="45.6731265" lon="8.6895167"><ele>263.0</ele><time>2026-04-26T15:26:35.552Z</time></trkpt><trkpt lat="45.6731698" lon="8.6895923"><ele>263.0</ele><time>2026-04-26T15:26:38.552Z</time></trkpt><trkpt lat="45.673212" lon="8.689692"><ele>263.0</ele><time>2026-04-26T15:26:42.552Z</time></trkpt><trkpt lat="45.6732382" lon="8.6897863"><ele>263.0</ele><time>2026-04-26T15:26:46.552Z</time></trkpt><trkpt lat="45.6732725" lon="8.6898801"><ele>263.0</ele><time>2026-04-26T15:26:49.552Z</time></trkpt><trkpt lat="45.6732987" lon="8.6899877"><ele>263.0</ele><time>2026-04-26T15:26:52.552Z</time></trkpt><trkpt lat="45.6733039" lon="8.6901179"><ele>263.0</ele><time>2026-04-26T15:26:55.552Z</time></trkpt><trkpt lat="45.673296" lon="8.6902094"><ele>263.0</ele><time>2026-04-26T15:26:57.553Z</time></trkpt><trkpt lat="45.6732964" lon="8.6903016"><ele>263.0</ele><time>2026-04-26T15:26:59.553Z</time></trkpt><trkpt lat="45.6733016" lon="8.6904014"><ele>263.0</ele><time>2026-04-26T15:27:01.552Z</time></trkpt><trkpt lat="45.6732975" lon="8.6905208"><ele>262.85714285714283</ele><time>2026-04-26T15:27:04.552Z</time></trkpt><trkpt lat="45.6732754" lon="8.6906194"><ele>262.71428571428567</ele><time>2026-04-26T15:27:07.552Z</time></trkpt><trkpt lat="45.6732312" lon="8.6906838"><ele>262.57142857142856</ele><time>2026-04-26T15:27:10.552Z</time></trkpt><trkpt lat="45.6731803" lon="8.6907444"><ele>262.42857142857144</ele><time>2026-04-26T15:27:13.552Z</time></trkpt><trkpt lat="45.6731293" lon="8.6908191"><ele>262.28571428571433</ele><time>2026-04-26T15:27:16.552Z</time></trkpt><trkpt lat="45.673086" lon="8.6908939"><ele>262.14285714285717</ele><time>2026-04-26T15:27:19.552Z</time></trkpt><trkpt lat="45.6730698" lon="8.6909905"><ele>262.0</ele><time>2026-04-26T15:27:22.552Z</time></trkpt><trkpt lat="45.6730565" lon="8.6910928"><ele>261.5</ele><time>2026-04-26T15:27:25.553Z</time></trkpt><trkpt lat="45.6730536" lon="8.6911933"><ele>261.0</ele><time>2026-04-26T15:27:28.553Z</time></trkpt><trkpt lat="45.6730602" lon="8.6913066"><ele>260.5</ele><time>2026-04-26T15:27:32.552Z</time></trkpt><trkpt lat="45.6730594" lon="8.6914281"><ele>260.0</ele><time>2026-04-26T15:27:35.553Z</time></trkpt><trkpt lat="45.67305" lon="8.6915405"><ele>259.5</ele><time>2026-04-26T15:27:38.552Z</time></trkpt><trkpt lat="45.6730535" lon="8.6916541"><ele>259.0</ele><time>2026-04-26T15:28:12.552Z</time></trkpt><trkpt lat="45.6730665" lon="8.6917709"><ele>259.0</ele><time>2026-04-26T15:28:16.552Z</time></trkpt><trkpt lat="45.6730839" lon="8.6918829"><ele>259.0</ele><time>2026-04-26T15:28:19.553Z</time></trkpt><trkpt lat="45.6731151" lon="8.6919996"><ele>259.0</ele><time>2026-04-26T15:28:22.552Z</time></trkpt><trkpt lat="45.6731397" lon="8.6920977"><ele>259.0</ele><time>2026-04-26T15:28:24.552Z</time></trkpt><trkpt lat="45.6731695" lon="8.6921955"><ele>259.0</ele><time>2026-04-26T15:28:26.552Z</time></trkpt><trkpt lat="45.6732009" lon="8.6923005"><ele>259.0</ele><time>2026-04-26T15:28:28.552Z</time></trkpt><trkpt lat="45.6732356" lon="8.692411"><ele>258.8</ele><time>2026-04-26T15:28:30.552Z</time></trkpt><trkpt lat="45.6732757" lon="8.6925249"><ele>258.59999999999997</ele><time>2026-04-26T15:28:32.553Z</time></trkpt><trkpt lat="45.673314" lon="8.6926401"><ele>258.4</ele><time>2026-04-26T15:28:34.552Z</time></trkpt><trkpt lat="45.6733471" lon="8.692775"><ele>258.2</ele><time>2026-04-26T15:28:36.552Z</time></trkpt><trkpt lat="45.6733703" lon="8.692914"><ele>258.0</ele><time>2026-04-26T15:28:38.552Z</time></trkpt><trkpt lat="45.673389" lon="8.6930597"><ele>257.8</ele><time>2026-04-26T15:28:40.552Z</time></trkpt><trkpt lat="45.6733743" lon="8.6932015"><ele>257.6</ele><time>2026-04-26T15:28:42.553Z</time></trkpt><trkpt lat="45.6733519" lon="8.6933369"><ele>257.4</ele><time>2026-04-26T15:28:44.552Z</time></trkpt><trkpt lat="45.6733217" lon="8.6934661"><ele>257.2</ele><time>2026-04-26T15:28:46.552Z</time></trkpt><trkpt lat="45.6732947" lon="8.6935904"><ele>257.0</ele><time>2026-04-26T15:28:48.552Z</time></trkpt><trkpt lat="45.673259" lon="8.693709"><ele>256.7142857142857</ele><time>2026-04-26T15:28:50.552Z</time></trkpt><trkpt lat="45.6732253" lon="8.6938008"><ele>256.42857142857144</ele><time>2026-04-26T15:28:52.553Z</time></trkpt><trkpt lat="45.6731977" lon="8.6938904"><ele>256.14285714285717</ele><time>2026-04-26T15:28:54.552Z</time></trkpt><trkpt lat="45.6731689" lon="8.6939709"><ele>255.85714285714286</ele><time>2026-04-26T15:28:56.552Z</time></trkpt><trkpt lat="45.6731338" lon="8.694076"><ele>255.5714285714286</ele><time>2026-04-26T15:28:59.552Z</time></trkpt><trkpt lat="45.6731024" lon="8.6941693"><ele>255.2857142857143</ele><time>2026-04-26T15:29:02.552Z</time></trkpt><trkpt lat="45.6730852" lon="8.6942577"><ele>255.0</ele><time>2026-04-26T15:29:07.552Z</time></trkpt><trkpt lat="45.6731457" lon="8.6943246"><ele>255.0</ele><time>2026-04-26T15:29:11.553Z</time></trkpt><trkpt lat="45.6732096" lon="8.6943759"><ele>255.0</ele><time>2026-04-26T15:29:14.552Z</time></trkpt><trkpt lat="45.6732851" lon="8.694447"><ele>255.0</ele><time>2026-04-26T15:29:17.552Z</time></trkpt><trkpt lat="45.6733571" lon="8.6945211"><ele>255.0</ele><time>2026-04-26T15:29:20.552Z</time></trkpt><trkpt lat="45.6734086" lon="8.6945817"><ele>255.0</ele><time>2026-04-26T15:29:22.552Z</time></trkpt><trkpt lat="45.673456" lon="8.6946454"><ele>255.0</ele><time>2026-04-26T15:29:24.552Z</time></trkpt><trkpt lat="45.6735032" lon="8.6947562"><ele>254.83333333333334</ele><time>2026-04-26T15:29:27.553Z</time></trkpt><trkpt lat="45.6735499" lon="8.6948661"><ele>254.66666666666669</ele><time>2026-04-26T15:29:30.552Z</time></trkpt><trkpt lat="45.673581" lon="8.6949464"><ele>254.5</ele><time>2026-04-26T15:29:32.553Z</time></trkpt><trkpt lat="45.6736158" lon="8.6950496"><ele>254.33333333333334</ele><time>2026-04-26T15:29:35.552Z</time></trkpt><trkpt lat="45.6736464" lon="8.695156"><ele>254.16666666666669</ele><time>2026-04-26T15:29:38.552Z</time></trkpt><trkpt lat="45.6736622" lon="8.6952592"><ele>254.0</ele><time>2026-04-26T15:29:41.553Z</time></trkpt><trkpt lat="45.6736793" lon="8.6953743"><ele>255.14285714285717</ele><time>2026-04-26T15:29:44.552Z</time></trkpt><trkpt lat="45.6736916" lon="8.6954833"><ele>256.2857142857143</ele><time>2026-04-26T15:29:47.552Z</time></trkpt><trkpt lat="45.6736938" lon="8.6955752"><ele>257.42857142857144</ele><time>2026-04-26T15:29:50.552Z</time></trkpt><trkpt lat="45.6736972" lon="8.6956698"><ele>258.57142857142856</ele><time>2026-04-26T15:29:53.552Z</time></trkpt><trkpt lat="45.6737102" lon="8.6957592"><ele>259.7142857142857</ele><time>2026-04-26T15:29:56.552Z</time></trkpt><trkpt lat="45.67373" lon="8.6958694"><ele>260.8571428571429</ele><time>2026-04-26T15:30:00.552Z</time></trkpt><trkpt lat="45.6737468" lon="8.6959755"><ele>262.0</ele><time>2026-04-26T15:30:04.553Z</time></trkpt><trkpt lat="45.6737656" lon="8.6960794"><ele>261.8333333333333</ele><time>2026-04-26T15:30:08.552Z</time></trkpt><trkpt lat="45.6738074" lon="8.6961776"><ele>261.66666666666663</ele><time>2026-04-26T15:30:12.552Z</time></trkpt><trkpt lat="45.6738429" lon="8.6962624"><ele>261.5</ele><time>2026-04-26T15:30:15.553Z</time></trkpt><trkpt lat="45.6738852" lon="8.6963425"><ele>261.3333333333333</ele><time>2026-04-26T15:30:18.553Z</time></trkpt><trkpt lat="45.6739332" lon="8.6964289"><ele>261.1666666666667</ele><time>2026-04-26T15:30:21.553Z</time></trkpt><trkpt lat="45.6739802" lon="8.6965211"><ele>261.0</ele><time>2026-04-26T15:30:24.552Z</time></trkpt><trkpt lat="45.674027" lon="8.6966093"><ele>261.0</ele><time>2026-04-26T15:30:27.552Z</time></trkpt><trkpt lat="45.6740718" lon="8.6966805"><ele>261.0</ele><time>2026-04-26T15:30:30.553Z</time></trkpt><trkpt lat="45.6741097" lon="8.6967572"><ele>261.0</ele><time>2026-04-26T15:30:33.553Z</time></trkpt><trkpt lat="45.6741574" lon="8.6968399"><ele>261.0</ele><time>2026-04-26T15:30:36.552Z</time></trkpt><trkpt lat="45.6742107" lon="8.6969102"><ele>261.0</ele><time>2026-04-26T15:30:39.553Z</time></trkpt><trkpt lat="45.6742574" lon="8.6969709"><ele>261.0</ele><time>2026-04-26T15:30:45.552Z</time></trkpt><trkpt lat="45.6741936" lon="8.6969521"><ele>261.0</ele><time>2026-04-26T15:30:48.552Z</time></trkpt><trkpt lat="45.6741509" lon="8.6970377"><ele>260.8333333333333</ele><time>2026-04-26T15:30:51.552Z</time></trkpt><trkpt lat="45.6741369" lon="8.6971651"><ele>260.6666666666667</ele><time>2026-04-26T15:30:54.552Z</time></trkpt><trkpt lat="45.6741102" lon="8.6972546"><ele>260.5</ele><time>2026-04-26T15:30:56.552Z</time></trkpt><trkpt lat="45.6740735" lon="8.6973701"><ele>260.33333333333337</ele><time>2026-04-26T15:30:59.553Z</time></trkpt><trkpt lat="45.6740476" lon="8.6974732"><ele>260.1666666666667</ele><time>2026-04-26T15:31:02.552Z</time></trkpt><trkpt lat="45.6740079" lon="8.6975669"><ele>260.0</ele><time>2026-04-26T15:31:06.552Z</time></trkpt><trkpt lat="45.6740532" lon="8.6974763"><ele>260.0</ele><time>2026-04-26T15:31:14.552Z</time></trkpt><trkpt lat="45.6740818" lon="8.6973535"><ele>260.0</ele><time>2026-04-26T15:31:17.552Z</time></trkpt><trkpt lat="45.6741174" lon="8.6972403"><ele>260.0</ele><time>2026-04-26T15:31:20.552Z</time></trkpt><trkpt lat="45.6741486" lon="8.6971215"><ele>260.0</ele><time>2026-04-26T15:31:23.552Z</time></trkpt><trkpt lat="45.6741651" lon="8.6970088"><ele>260.0</ele><time>2026-04-26T15:31:26.552Z</time></trkpt><trkpt lat="45.6741473" lon="8.6969002"><ele>260.0</ele><time>2026-04-26T15:31:29.552Z</time></trkpt><trkpt lat="45.6740929" lon="8.6967975"><ele>260.1666666666667</ele><time>2026-04-26T15:31:32.552Z</time></trkpt><trkpt lat="45.6740485" lon="8.696729"><ele>260.33333333333337</ele><time>2026-04-26T15:31:34.552Z</time></trkpt><trkpt lat="45.6740051" lon="8.696643"><ele>260.5</ele><time>2026-04-26T15:31:36.552Z</time></trkpt><trkpt lat="45.6739593" lon="8.6965469"><ele>260.6666666666667</ele><time>2026-04-26T15:31:38.552Z</time></trkpt><trkpt lat="45.6739109" lon="8.696441"><ele>260.8333333333333</ele><time>2026-04-26T15:31:40.552Z</time></trkpt><trkpt lat="45.673856" lon="8.6963327"><ele>261.0</ele><time>2026-04-26T15:31:42.552Z</time></trkpt><trkpt lat="45.6738005" lon="8.6962224"><ele>261.0</ele><time>2026-04-26T15:31:44.552Z</time></trkpt><trkpt lat="45.6737524" lon="8.6961013"><ele>261.0</ele><time>2026-04-26T15:31:46.552Z</time></trkpt><trkpt lat="45.6737292" lon="8.6959601"><ele>261.0</ele><time>2026-04-26T15:31:48.552Z</time></trkpt><trkpt lat="45.6737141" lon="8.695809"><ele>261.0</ele><time>2026-04-26T15:31:50.553Z</time></trkpt><trkpt lat="45.6736983" lon="8.695648"><ele>261.0</ele><time>2026-04-26T15:31:52.553Z</time></trkpt><trkpt lat="45.6736728" lon="8.69548"><ele>261.14285714285717</ele><time>2026-04-26T15:31:54.552Z</time></trkpt><trkpt lat="45.6736565" lon="8.6953888"><ele>261.2857142857143</ele><time>2026-04-26T15:31:55.552Z</time></trkpt><trkpt lat="45.6736393" lon="8.6952898"><ele>261.42857142857144</ele><time>2026-04-26T15:31:56.552Z</time></trkpt><trkpt lat="45.673617" lon="8.6951889"><ele>261.57142857142856</ele><time>2026-04-26T15:31:57.552Z</time></trkpt><trkpt lat="45.6735889" lon="8.695078"><ele>261.7142857142857</ele><time>2026-04-26T15:31:58.552Z</time></trkpt><trkpt lat="45.6735605" lon="8.6949719"><ele>261.8571428571429</ele><time>2026-04-26T15:31:59.552Z</time></trkpt><trkpt lat="45.6735322" lon="8.6948749"><ele>262.0</ele><time>2026-04-26T15:32:00.552Z</time></trkpt><trkpt lat="45.6734978" lon="8.6947815"><ele>260.6</ele><time>2026-04-26T15:32:01.552Z</time></trkpt><trkpt lat="45.6734618" lon="8.6946957"><ele>259.2</ele><time>2026-04-26T15:32:02.552Z</time></trkpt><trkpt lat="45.6734256" lon="8.6946184"><ele>257.8</ele><time>2026-04-26T15:32:03.552Z</time></trkpt><trkpt lat="45.6733468" lon="8.6944913"><ele>256.4</ele><time>2026-04-26T15:32:05.552Z</time></trkpt><trkpt lat="45.6732616" lon="8.6943953"><ele>255.0</ele><time>2026-04-26T15:32:07.552Z</time></trkpt><trkpt lat="45.6731879" lon="8.6943103"><ele>255.0</ele><time>2026-04-26T15:32:09.552Z</time></trkpt><trkpt lat="45.6731306" lon="8.6942223"><ele>255.0</ele><time>2026-04-26T15:32:11.553Z</time></trkpt><trkpt lat="45.6731134" lon="8.6941148"><ele>255.0</ele><time>2026-04-26T15:32:13.552Z</time></trkpt><trkpt lat="45.6731499" lon="8.6940071"><ele>255.0</ele><time>2026-04-26T15:32:15.552Z</time></trkpt><trkpt lat="45.6731859" lon="8.6938867"><ele>255.0</ele><time>2026-04-26T15:32:17.552Z</time></trkpt><trkpt lat="45.6732262" lon="8.6937716"><ele>255.0</ele><time>2026-04-26T15:32:19.552Z</time></trkpt><trkpt lat="45.6732653" lon="8.6936493"><ele>255.33333333333334</ele><time>2026-04-26T15:32:21.552Z</time></trkpt><trkpt lat="45.6732919" lon="8.6935222"><ele>255.66666666666669</ele><time>2026-04-26T15:32:23.552Z</time></trkpt><trkpt lat="45.6733131" lon="8.6933959"><ele>256.0</ele><time>2026-04-26T15:32:25.552Z</time></trkpt><trkpt lat="45.6733414" lon="8.6932769"><ele>256.33333333333337</ele><time>2026-04-26T15:32:27.552Z</time></trkpt><trkpt lat="45.6733612" lon="8.6931547"><ele>256.6666666666667</ele><time>2026-04-26T15:32:29.552Z</time></trkpt><trkpt lat="45.6733702" lon="8.6930332"><ele>257.0</ele><time>2026-04-26T15:32:31.552Z</time></trkpt><trkpt lat="45.6733672" lon="8.6929158"><ele>257.0</ele><time>2026-04-26T15:32:33.552Z</time></trkpt><trkpt lat="45.6733507" lon="8.6927986"><ele>257.0</ele><time>2026-04-26T15:32:35.553Z</time></trkpt><trkpt lat="45.6733257" lon="8.6926925"><ele>257.0</ele><time>2026-04-26T15:32:37.552Z</time></trkpt><trkpt lat="45.6732942" lon="8.6925997"><ele>257.0</ele><time>2026-04-26T15:32:39.552Z</time></trkpt><trkpt lat="45.6732751" lon="8.6925085"><ele>257.0</ele><time>2026-04-26T15:32:41.552Z</time></trkpt><trkpt lat="45.6732493" lon="8.6924209"><ele>257.0</ele><time>2026-04-26T15:32:43.553Z</time></trkpt><trkpt lat="45.6732153" lon="8.6923009"><ele>257.1666666666667</ele><time>2026-04-26T15:32:46.552Z</time></trkpt><trkpt lat="45.6731817" lon="8.6921858"><ele>257.33333333333337</ele><time>2026-04-26T15:32:49.553Z</time></trkpt><trkpt lat="45.6731454" lon="8.6920693"><ele>257.5</ele><time>2026-04-26T15:32:52.552Z</time></trkpt><trkpt lat="45.6731026" lon="8.6919609"><ele>257.6666666666667</ele><time>2026-04-26T15:32:55.553Z</time></trkpt><trkpt lat="45.6730789" lon="8.6918488"><ele>257.8333333333333</ele><time>2026-04-26T15:32:58.552Z</time></trkpt><trkpt lat="45.6730629" lon="8.6917483"><ele>258.0</ele><time>2026-04-26T15:33:01.552Z</time></trkpt><trkpt lat="45.6730475" lon="8.6916553"><ele>258.1666666666667</ele><time>2026-04-26T15:33:04.552Z</time></trkpt><trkpt lat="45.6730288" lon="8.6915591"><ele>258.3333333333333</ele><time>2026-04-26T15:33:06.552Z</time></trkpt><trkpt lat="45.6729928" lon="8.6914499"><ele>258.5</ele><time>2026-04-26T15:33:09.552Z</time></trkpt><trkpt lat="45.6729767" lon="8.691346"><ele>258.66666666666663</ele><time>2026-04-26T15:33:12.552Z</time></trkpt><trkpt lat="45.6729639" lon="8.6912143"><ele>258.8333333333333</ele><time>2026-04-26T15:33:15.552Z</time></trkpt><trkpt lat="45.6729997" lon="8.6910937"><ele>259.0</ele><time>2026-04-26T15:33:18.552Z</time></trkpt><trkpt lat="45.6730361" lon="8.6909844"><ele>259.42857142857144</ele><time>2026-04-26T15:33:21.552Z</time></trkpt><trkpt lat="45.6730771" lon="8.6908787"><ele>259.8571428571429</ele><time>2026-04-26T15:33:24.553Z</time></trkpt><trkpt lat="45.6731224" lon="8.6908013"><ele>260.2857142857143</ele><time>2026-04-26T15:33:27.552Z</time></trkpt><trkpt lat="45.6731717" lon="8.6907367"><ele>260.7142857142857</ele><time>2026-04-26T15:33:30.552Z</time></trkpt><trkpt lat="45.6732102" lon="8.6906568"><ele>261.14285714285717</ele><time>2026-04-26T15:33:33.552Z</time></trkpt><trkpt lat="45.6732318" lon="8.6905574"><ele>261.57142857142856</ele><time>2026-04-26T15:33:36.553Z</time></trkpt><trkpt lat="45.6732632" lon="8.6904453"><ele>262.0</ele><time>2026-04-26T15:33:40.552Z</time></trkpt><trkpt lat="45.6732652" lon="8.6903517"><ele>262.14285714285717</ele><time>2026-04-26T15:33:42.552Z</time></trkpt><trkpt lat="45.6732698" lon="8.6902467"><ele>262.28571428571433</ele><time>2026-04-26T15:33:45.552Z</time></trkpt><trkpt lat="45.6732466" lon="8.6901539"><ele>262.42857142857144</ele><time>2026-04-26T15:33:48.552Z</time></trkpt><trkpt lat="45.6732302" lon="8.6900416"><ele>262.57142857142856</ele><time>2026-04-26T15:33:53.553Z</time></trkpt><trkpt lat="45.6732277" lon="8.6899288"><ele>262.71428571428567</ele><time>2026-04-26T15:33:57.552Z</time></trkpt><trkpt lat="45.6732148" lon="8.6898302"><ele>262.85714285714283</ele><time>2026-04-26T15:34:00.552Z</time></trkpt><trkpt lat="45.6731987" lon="8.6897254"><ele>263.0</ele><time>2026-04-26T15:34:03.552Z</time></trkpt><trkpt lat="45.6731967" lon="8.6895974"><ele>263.0</ele><time>2026-04-26T15:34:06.552Z</time></trkpt><trkpt lat="45.6732049" lon="8.6895053"><ele>263.0</ele><time>2026-04-26T15:34:09.552Z</time></trkpt><trkpt lat="45.6732495" lon="8.6894085"><ele>263.0</ele><time>2026-04-26T15:34:13.552Z</time></trkpt><trkpt lat="45.6733045" lon="8.6893285"><ele>263.0</ele><time>2026-04-26T15:34:18.552Z</time></trkpt><trkpt lat="45.6733746" lon="8.6892957"><ele>263.0</ele><time>2026-04-26T15:34:21.552Z</time></trkpt><trkpt lat="45.6734483" lon="8.6892939"><ele>263.0</ele><time>2026-04-26T15:34:23.552Z</time></trkpt><trkpt lat="45.6735217" lon="8.6893067"><ele>263.0</ele><time>2026-04-26T15:34:25.552Z</time></trkpt><trkpt lat="45.6736059" lon="8.6892881"><ele>262.0</ele><time>2026-04-26T15:34:27.552Z</time></trkpt><trkpt lat="45.6737257" lon="8.6892859"><ele>261.0</ele><time>2026-04-26T15:34:29.552Z</time></trkpt><trkpt lat="45.6737931" lon="8.6892871"><ele>260.0</ele><time>2026-04-26T15:34:30.552Z</time></trkpt><trkpt lat="45.6738806" lon="8.6892686"><ele>259.0</ele><time>2026-04-26T15:34:32.552Z</time></trkpt><trkpt lat="45.6739493" lon="8.6892654"><ele>258.0</ele><time>2026-04-26T15:34:33.552Z</time></trkpt><trkpt lat="45.6740158" lon="8.6892473"><ele>257.0</ele><time>2026-04-26T15:34:34.552Z</time></trkpt><trkpt lat="45.6740985" lon="8.6892482"><ele>257.0</ele><time>2026-04-26T15:34:36.552Z</time></trkpt><trkpt lat="45.6741708" lon="8.6892122"><ele>257.0</ele><time>2026-04-26T15:34:38.552Z</time></trkpt><trkpt lat="45.6742513" lon="8.6891767"><ele>257.0</ele><time>2026-04-26T15:34:40.552Z</time></trkpt><trkpt lat="45.6743296" lon="8.6891654"><ele>257.0</ele><time>2026-04-26T15:34:42.552Z</time></trkpt><trkpt lat="45.6744129" lon="8.6891466"><ele>257.0</ele><time>2026-04-26T15:34:44.552Z</time></trkpt><trkpt lat="45.6745097" lon="8.689165"><ele>257.0</ele><time>2026-04-26T15:34:48.552Z</time></trkpt><trkpt lat="45.674594" lon="8.6891797"><ele>256.6666666666667</ele><time>2026-04-26T15:34:50.553Z</time></trkpt><trkpt lat="45.6746697" lon="8.6892068"><ele>256.33333333333337</ele><time>2026-04-26T15:34:54.552Z</time></trkpt><trkpt lat="45.674727" lon="8.6891635"><ele>256.0</ele><time>2026-04-26T15:35:00.552Z</time></trkpt><trkpt lat="45.6747802" lon="8.6890845"><ele>255.66666666666669</ele><time>2026-04-26T15:35:04.552Z</time></trkpt><trkpt lat="45.6748442" lon="8.6889996"><ele>255.33333333333334</ele><time>2026-04-26T15:35:08.552Z</time></trkpt><trkpt lat="45.6749161" lon="8.6889724"><ele>255.0</ele><time>2026-04-26T15:35:11.553Z</time></trkpt><trkpt lat="45.6749858" lon="8.6889505"><ele>255.0</ele><time>2026-04-26T15:35:14.552Z</time></trkpt><trkpt lat="45.6750565" lon="8.6889402"><ele>255.00000000000003</ele><time>2026-04-26T15:35:17.552Z</time></trkpt><trkpt lat="45.6751235" lon="8.6889454"><ele>255.0</ele><time>2026-04-26T15:35:20.552Z</time></trkpt><trkpt lat="45.6751843" lon="8.6889"><ele>255.0</ele><time>2026-04-26T15:35:24.552Z</time></trkpt><trkpt lat="45.6752502" lon="8.6888699"><ele>255.00000000000003</ele><time>2026-04-26T15:35:27.553Z</time></trkpt><trkpt lat="45.6753171" lon="8.6888483"><ele>255.0</ele><time>2026-04-26T15:35:30.552Z</time></trkpt><trkpt lat="45.6753816" lon="8.6888415"><ele>255.0</ele><time>2026-04-26T15:35:33.552Z</time></trkpt><trkpt lat="45.6754506" lon="8.6888099"><ele>255.83333333333334</ele><time>2026-04-26T15:35:36.552Z</time></trkpt><trkpt lat="45.6755399" lon="8.688778"><ele>256.6666666666667</ele><time>2026-04-26T15:35:39.552Z</time></trkpt><trkpt lat="45.675603" lon="8.6887538"><ele>257.5</ele><time>2026-04-26T15:35:41.552Z</time></trkpt><trkpt lat="45.6756846" lon="8.6887376"><ele>258.33333333333337</ele><time>2026-04-26T15:35:44.552Z</time></trkpt><trkpt lat="45.6757591" lon="8.6887048"><ele>259.1666666666667</ele><time>2026-04-26T15:35:47.552Z</time></trkpt><trkpt lat="45.6758331" lon="8.6886656"><ele>260.0</ele><time>2026-04-26T15:35:50.552Z</time></trkpt><trkpt lat="45.6759014" lon="8.688654"><ele>260.00000000000006</ele><time>2026-04-26T15:35:53.552Z</time></trkpt><trkpt lat="45.6759714" lon="8.6886271"><ele>260.0</ele><time>2026-04-26T15:35:57.552Z</time></trkpt><trkpt lat="45.6760351" lon="8.6885932"><ele>260.0</ele><time>2026-04-26T15:36:00.552Z</time></trkpt><trkpt lat="45.6761075" lon="8.6885603"><ele>260.0</ele><time>2026-04-26T15:36:03.552Z</time></trkpt><trkpt lat="45.6761624" lon="8.688495"><ele>260.0</ele><time>2026-04-26T15:36:07.552Z</time></trkpt><trkpt lat="45.6761161" lon="8.6883923"><ele>260.00000000000006</ele><time>2026-04-26T15:36:11.552Z</time></trkpt><trkpt lat="45.6760744" lon="8.6883046"><ele>260.0</ele><time>2026-04-26T15:36:14.552Z</time></trkpt><trkpt lat="45.6760399" lon="8.6882139"><ele>260.28571428571433</ele><time>2026-04-26T15:36:17.552Z</time></trkpt><trkpt lat="45.6759987" lon="8.6881285"><ele>260.57142857142856</ele><time>2026-04-26T15:36:21.552Z</time></trkpt><trkpt lat="45.6759194" lon="8.6881281"><ele>260.8571428571429</ele><time>2026-04-26T15:36:52.553Z</time></trkpt><trkpt lat="45.675836" lon="8.6881953"><ele>261.14285714285717</ele><time>2026-04-26T15:36:55.552Z</time></trkpt><trkpt lat="45.6757777" lon="8.6882403"><ele>261.42857142857144</ele><time>2026-04-26T15:36:57.552Z</time></trkpt><trkpt lat="45.6757124" lon="8.6882703"><ele>261.7142857142857</ele><time>2026-04-26T15:36:59.552Z</time></trkpt><trkpt lat="45.6756495" lon="8.6882955"><ele>262.0</ele><time>2026-04-26T15:37:01.552Z</time></trkpt><trkpt lat="45.6755791" lon="8.6883001"><ele>262.0</ele><time>2026-04-26T15:37:03.552Z</time></trkpt><trkpt lat="45.6755106" lon="8.6883296"><ele>262.0</ele><time>2026-04-26T15:37:05.552Z</time></trkpt><trkpt lat="45.6754512" lon="8.688435"><ele>262.0</ele><time>2026-04-26T15:37:08.552Z</time></trkpt><trkpt lat="45.6754048" lon="8.6885374"><ele>262.0</ele><time>2026-04-26T15:37:10.552Z</time></trkpt><trkpt lat="45.6753584" lon="8.6886271"><ele>262.0</ele><time>2026-04-26T15:37:12.553Z</time></trkpt><trkpt lat="45.6752957" lon="8.6887074"><ele>262.0</ele><time>2026-04-26T15:37:15.552Z</time></trkpt><trkpt lat="45.6752255" lon="8.688774"><ele>261.0</ele><time>2026-04-26T15:37:18.552Z</time></trkpt><trkpt lat="45.6751638" lon="8.6888099"><ele>260.0</ele><time>2026-04-26T15:37:21.552Z</time></trkpt><trkpt lat="45.675087" lon="8.6888429"><ele>259.0</ele><time>2026-04-26T15:37:25.552Z</time></trkpt><trkpt lat="45.6750352" lon="8.6887836"><ele>258.0</ele><time>2026-04-26T15:37:29.552Z</time></trkpt><trkpt lat="45.6749719" lon="8.6887684"><ele>257.0</ele><time>2026-04-26T15:37:57.553Z</time></trkpt><trkpt lat="45.6750228" lon="8.6887046"><ele>256.0</ele><time>2026-04-26T15:38:43.562Z</time></trkpt><trkpt lat="45.6750349" lon="8.6887974"><ele>255.0</ele><time>2026-04-26T15:39:12.553Z</time></trkpt><trkpt lat="45.6750679" lon="8.6888984"><ele>255.0</ele><time>2026-04-26T15:39:17.552Z</time></trkpt><trkpt lat="45.6751587" lon="8.6887852"><ele>255.0</ele><time>2026-04-26T15:39:19.552Z</time></trkpt><trkpt lat="45.6752298" lon="8.6887377"><ele>255.0</ele><time>2026-04-26T15:39:21.553Z</time></trkpt><trkpt lat="45.675289" lon="8.6886818"><ele>255.0</ele><time>2026-04-26T15:39:23.553Z</time></trkpt><trkpt lat="45.6753382" lon="8.6886007"><ele>255.0</ele><time>2026-04-26T15:39:25.553Z</time></trkpt><trkpt lat="45.6753959" lon="8.6885457"><ele>255.0</ele><time>2026-04-26T15:39:27.509Z</time></trkpt><trkpt lat="45.6754298" lon="8.6884218"><ele>256.1666666666667</ele><time>2026-04-26T15:39:29.552Z</time></trkpt><trkpt lat="45.67546" lon="8.6883126"><ele>257.3333333333333</ele><time>2026-04-26T15:39:31.552Z</time></trkpt><trkpt lat="45.6754996" lon="8.6882411"><ele>258.5</ele><time>2026-04-26T15:39:33.633Z</time></trkpt><trkpt lat="45.67559" lon="8.688201"><ele>259.66666666666663</ele><time>2026-04-26T15:39:36.552Z</time></trkpt><trkpt lat="45.6756586" lon="8.6881987"><ele>260.8333333333333</ele><time>2026-04-26T15:39:38.552Z</time></trkpt><trkpt lat="45.6757486" lon="8.68818"><ele>262.0</ele><time>2026-04-26T15:39:41.552Z</time></trkpt><trkpt lat="45.6758432" lon="8.6881506"><ele>262.0</ele><time>2026-04-26T15:39:44.552Z</time></trkpt><trkpt lat="45.6759247" lon="8.6881126"><ele>262.0</ele><time>2026-04-26T15:39:47.552Z</time></trkpt><trkpt lat="45.6760001" lon="8.6880587"><ele>262.0</ele><time>2026-04-26T15:39:50.552Z</time></trkpt><trkpt lat="45.6760491" lon="8.6881251"><ele>262.0</ele><time>2026-04-26T15:39:54.552Z</time></trkpt><trkpt lat="45.6760822" lon="8.6882076"><ele>262.0</ele><time>2026-04-26T15:39:57.552Z</time></trkpt><trkpt lat="45.6761217" lon="8.68829"><ele>262.0</ele><time>2026-04-26T15:40:00.552Z</time></trkpt><trkpt lat="45.6761646" lon="8.6883607"><ele>262.0</ele><time>2026-04-26T15:40:49.552Z</time></trkpt><trkpt lat="45.6761915" lon="8.6884701"><ele>262.8</ele><time>2026-04-26T15:40:52.552Z</time></trkpt><trkpt lat="45.6762223" lon="8.6885979"><ele>263.6</ele><time>2026-04-26T15:40:55.552Z</time></trkpt><trkpt lat="45.6762484" lon="8.6887286"><ele>264.40000000000003</ele><time>2026-04-26T15:40:58.552Z</time></trkpt><trkpt lat="45.6762805" lon="8.6888256"><ele>265.2</ele><time>2026-04-26T15:41:00.552Z</time></trkpt><trkpt lat="45.6763124" lon="8.6889408"><ele>266.0</ele><time>2026-04-26T15:41:02.552Z</time></trkpt><trkpt lat="45.6763593" lon="8.6890665"><ele>266.0</ele><time>2026-04-26T15:41:04.552Z</time></trkpt><trkpt lat="45.6764042" lon="8.6891852"><ele>266.0</ele><time>2026-04-26T15:41:06.552Z</time></trkpt><trkpt lat="45.6764562" lon="8.6892977"><ele>266.0</ele><time>2026-04-26T15:41:08.552Z</time></trkpt><trkpt lat="45.676504" lon="8.6894119"><ele>266.0</ele><time>2026-04-26T15:41:10.552Z</time></trkpt><trkpt lat="45.6765491" lon="8.6895253"><ele>266.0</ele><time>2026-04-26T15:41:12.552Z</time></trkpt><trkpt lat="45.6765902" lon="8.6896404"><ele>265.83333333333337</ele><time>2026-04-26T15:41:14.552Z</time></trkpt><trkpt lat="45.6766285" lon="8.6897568"><ele>265.6666666666667</ele><time>2026-04-26T15:41:16.552Z</time></trkpt><trkpt lat="45.6766659" lon="8.6898701"><ele>265.5</ele><time>2026-04-26T15:41:18.552Z</time></trkpt><trkpt lat="45.6767031" lon="8.6899808"><ele>265.3333333333333</ele><time>2026-04-26T15:41:20.552Z</time></trkpt><trkpt lat="45.6767377" lon="8.6900887"><ele>265.16666666666663</ele><time>2026-04-26T15:41:22.552Z</time></trkpt><trkpt lat="45.6767617" lon="8.6901987"><ele>265.0</ele><time>2026-04-26T15:41:24.552Z</time></trkpt><trkpt lat="45.6767872" lon="8.690307"><ele>264.8333333333333</ele><time>2026-04-26T15:41:26.552Z</time></trkpt><trkpt lat="45.6768125" lon="8.6904204"><ele>264.66666666666663</ele><time>2026-04-26T15:41:28.552Z</time></trkpt><trkpt lat="45.6768359" lon="8.6905324"><ele>264.5</ele><time>2026-04-26T15:41:30.552Z</time></trkpt><trkpt lat="45.6768636" lon="8.6906378"><ele>264.3333333333333</ele><time>2026-04-26T15:41:32.552Z</time></trkpt><trkpt lat="45.6768877" lon="8.690742"><ele>264.1666666666667</ele><time>2026-04-26T15:41:34.552Z</time></trkpt><trkpt lat="45.6769081" lon="8.6908463"><ele>264.0</ele><time>2026-04-26T15:41:36.553Z</time></trkpt><trkpt lat="45.6769288" lon="8.6909526"><ele>263.8333333333333</ele><time>2026-04-26T15:41:38.552Z</time></trkpt><trkpt lat="45.676949" lon="8.6910522"><ele>263.6666666666667</ele><time>2026-04-26T15:41:40.552Z</time></trkpt><trkpt lat="45.6769701" lon="8.6911542"><ele>263.5</ele><time>2026-04-26T15:41:42.552Z</time></trkpt><trkpt lat="45.6769974" lon="8.6912636"><ele>263.33333333333337</ele><time>2026-04-26T15:41:44.552Z</time></trkpt><trkpt lat="45.6770241" lon="8.6913735"><ele>263.1666666666667</ele><time>2026-04-26T15:41:46.552Z</time></trkpt><trkpt lat="45.6770489" lon="8.6914844"><ele>263.0</ele><time>2026-04-26T15:41:48.553Z</time></trkpt><trkpt lat="45.6770769" lon="8.6915922"><ele>263.0</ele><time>2026-04-26T15:41:50.552Z</time></trkpt><trkpt lat="45.6770972" lon="8.6917007"><ele>263.0</ele><time>2026-04-26T15:41:52.553Z</time></trkpt><trkpt lat="45.6771244" lon="8.6918053"><ele>263.0</ele><time>2026-04-26T15:41:54.552Z</time></trkpt><trkpt lat="45.6771568" lon="8.6919048"><ele>263.0</ele><time>2026-04-26T15:41:56.552Z</time></trkpt><trkpt lat="45.6771911" lon="8.6920054"><ele>263.0</ele><time>2026-04-26T15:41:58.552Z</time></trkpt><trkpt lat="45.6772223" lon="8.6921092"><ele>263.0</ele><time>2026-04-26T15:42:00.552Z</time></trkpt><trkpt lat="45.6772558" lon="8.692211"><ele>263.1428571428571</ele><time>2026-04-26T15:42:02.553Z</time></trkpt><trkpt lat="45.6772897" lon="8.6923124"><ele>263.2857142857143</ele><time>2026-04-26T15:42:04.552Z</time></trkpt><trkpt lat="45.677324" lon="8.692406"><ele>263.42857142857144</ele><time>2026-04-26T15:42:06.552Z</time></trkpt><trkpt lat="45.6773579" lon="8.6924909"><ele>263.57142857142856</ele><time>2026-04-26T15:42:08.552Z</time></trkpt><trkpt lat="45.6774095" lon="8.6925787"><ele>263.7142857142857</ele><time>2026-04-26T15:42:10.552Z</time></trkpt><trkpt lat="45.677456" lon="8.6926531"><ele>263.85714285714283</ele><time>2026-04-26T15:42:12.553Z</time></trkpt><trkpt lat="45.6775038" lon="8.6927373"><ele>264.0</ele><time>2026-04-26T15:42:14.552Z</time></trkpt><trkpt lat="45.677547" lon="8.6928332"><ele>264.0</ele><time>2026-04-26T15:42:16.552Z</time></trkpt><trkpt lat="45.6775931" lon="8.6929393"><ele>264.0</ele><time>2026-04-26T15:42:18.552Z</time></trkpt><trkpt lat="45.677637" lon="8.6930444"><ele>264.0</ele><time>2026-04-26T15:42:20.553Z</time></trkpt><trkpt lat="45.6776781" lon="8.6931592"><ele>264.0</ele><time>2026-04-26T15:42:22.552Z</time></trkpt><trkpt lat="45.677716" lon="8.6932778"><ele>264.0</ele><time>2026-04-26T15:42:24.552Z</time></trkpt><trkpt lat="45.6777563" lon="8.6933989"><ele>264.0</ele><time>2026-04-26T15:42:26.552Z</time></trkpt><trkpt lat="45.6777934" lon="8.6935261"><ele>264.59999999999997</ele><time>2026-04-26T15:42:28.553Z</time></trkpt><trkpt lat="45.6778296" lon="8.6936552"><ele>265.2</ele><time>2026-04-26T15:42:30.552Z</time></trkpt><trkpt lat="45.6778668" lon="8.6937843"><ele>265.79999999999995</ele><time>2026-04-26T15:42:32.552Z</time></trkpt><trkpt lat="45.6779006" lon="8.6939131"><ele>266.4</ele><time>2026-04-26T15:42:34.552Z</time></trkpt><trkpt lat="45.6779307" lon="8.6940365"><ele>267.0</ele><time>2026-04-26T15:42:36.552Z</time></trkpt><trkpt lat="45.6779564" lon="8.6941519"><ele>267.0</ele><time>2026-04-26T15:42:38.552Z</time></trkpt><trkpt lat="45.6779852" lon="8.6942653"><ele>267.0</ele><time>2026-04-26T15:42:40.553Z</time></trkpt><trkpt lat="45.6780128" lon="8.6943823"><ele>267.0</ele><time>2026-04-26T15:42:42.552Z</time></trkpt><trkpt lat="45.678044" lon="8.6944974"><ele>267.0</ele><time>2026-04-26T15:42:44.552Z</time></trkpt><trkpt lat="45.6780738" lon="8.6946107"><ele>267.0</ele><time>2026-04-26T15:42:46.553Z</time></trkpt><trkpt lat="45.6781016" lon="8.694722"><ele>267.0</ele><time>2026-04-26T15:42:48.552Z</time></trkpt><trkpt lat="45.6781264" lon="8.6948337"><ele>266.8333333333333</ele><time>2026-04-26T15:42:50.552Z</time></trkpt><trkpt lat="45.6781509" lon="8.6949475"><ele>266.6666666666667</ele><time>2026-04-26T15:42:52.553Z</time></trkpt><trkpt lat="45.6781647" lon="8.6950678"><ele>266.5</ele><time>2026-04-26T15:42:54.552Z</time></trkpt><trkpt lat="45.6781904" lon="8.6951804"><ele>266.33333333333337</ele><time>2026-04-26T15:42:56.553Z</time></trkpt><trkpt lat="45.6782152" lon="8.6952868"><ele>266.1666666666667</ele><time>2026-04-26T15:42:58.552Z</time></trkpt><trkpt lat="45.678237" lon="8.6953943"><ele>266.0</ele><time>2026-04-26T15:43:00.552Z</time></trkpt><trkpt lat="45.6782624" lon="8.6954966"><ele>265.83333333333337</ele><time>2026-04-26T15:43:02.552Z</time></trkpt><trkpt lat="45.6782903" lon="8.6955952"><ele>265.6666666666667</ele><time>2026-04-26T15:43:04.552Z</time></trkpt><trkpt lat="45.6783121" lon="8.6956998"><ele>265.5</ele><time>2026-04-26T15:43:06.552Z</time></trkpt><trkpt lat="45.6783385" lon="8.6957981"><ele>265.3333333333333</ele><time>2026-04-26T15:43:08.552Z</time></trkpt><trkpt lat="45.6783637" lon="8.6958998"><ele>265.16666666666663</ele><time>2026-04-26T15:43:10.553Z</time></trkpt><trkpt lat="45.6783869" lon="8.6960035"><ele>265.0</ele><time>2026-04-26T15:43:12.552Z</time></trkpt><trkpt lat="45.6784101" lon="8.6961049"><ele>265.3333333333333</ele><time>2026-04-26T15:43:14.553Z</time></trkpt><trkpt lat="45.6784266" lon="8.6962172"><ele>265.66666666666663</ele><time>2026-04-26T15:43:16.552Z</time></trkpt><trkpt lat="45.6784543" lon="8.6963277"><ele>266.0</ele><time>2026-04-26T15:43:18.552Z</time></trkpt><trkpt lat="45.6784871" lon="8.6964335"><ele>266.3333333333333</ele><time>2026-04-26T15:43:20.552Z</time></trkpt><trkpt lat="45.6785241" lon="8.6965308"><ele>266.6666666666667</ele><time>2026-04-26T15:43:22.552Z</time></trkpt><trkpt lat="45.6785522" lon="8.69664"><ele>267.0</ele><time>2026-04-26T15:43:24.552Z</time></trkpt><trkpt lat="45.6785779" lon="8.6967514"><ele>267.1666666666667</ele><time>2026-04-26T15:43:26.552Z</time></trkpt><trkpt lat="45.6786102" lon="8.6968582"><ele>267.3333333333333</ele><time>2026-04-26T15:43:28.552Z</time></trkpt><trkpt lat="45.6786435" lon="8.6969626"><ele>267.5</ele><time>2026-04-26T15:43:30.552Z</time></trkpt><trkpt lat="45.6786738" lon="8.6970677"><ele>267.66666666666663</ele><time>2026-04-26T15:43:32.552Z</time></trkpt><trkpt lat="45.6786978" lon="8.6971723"><ele>267.8333333333333</ele><time>2026-04-26T15:43:34.552Z</time></trkpt><trkpt lat="45.6787206" lon="8.6972752"><ele>268.0</ele><time>2026-04-26T15:43:36.552Z</time></trkpt><trkpt lat="45.6787417" lon="8.6973751"><ele>268.0</ele><time>2026-04-26T15:43:38.552Z</time></trkpt><trkpt lat="45.6787733" lon="8.6974674"><ele>268.0</ele><time>2026-04-26T15:43:40.553Z</time></trkpt><trkpt lat="45.6788106" lon="8.6975601"><ele>268.0</ele><time>2026-04-26T15:43:42.552Z</time></trkpt><trkpt lat="45.6788288" lon="8.6976579"><ele>268.0</ele><time>2026-04-26T15:43:44.552Z</time></trkpt><trkpt lat="45.678854" lon="8.6977533"><ele>268.0</ele><time>2026-04-26T15:43:46.553Z</time></trkpt><trkpt lat="45.6788729" lon="8.6978495"><ele>268.0</ele><time>2026-04-26T15:43:48.552Z</time></trkpt><trkpt lat="45.6788976" lon="8.6979455"><ele>268.0</ele><time>2026-04-26T15:43:50.552Z</time></trkpt><trkpt lat="45.6789216" lon="8.6980425"><ele>267.7142857142857</ele><time>2026-04-26T15:43:52.552Z</time></trkpt><trkpt lat="45.6789454" lon="8.6981396"><ele>267.42857142857144</ele><time>2026-04-26T15:43:54.552Z</time></trkpt><trkpt lat="45.6789734" lon="8.6982334"><ele>267.1428571428571</ele><time>2026-04-26T15:43:56.552Z</time></trkpt><trkpt lat="45.6789974" lon="8.6983263"><ele>266.8571428571429</ele><time>2026-04-26T15:43:58.552Z</time></trkpt><trkpt lat="45.6790259" lon="8.6984163"><ele>266.57142857142856</ele><time>2026-04-26T15:44:00.552Z</time></trkpt><trkpt lat="45.6790576" lon="8.6985039"><ele>266.2857142857143</ele><time>2026-04-26T15:44:02.552Z</time></trkpt><trkpt lat="45.6790957" lon="8.6985949"><ele>266.0</ele><time>2026-04-26T15:44:04.553Z</time></trkpt><trkpt lat="45.6791353" lon="8.6986766"><ele>266.57142857142856</ele><time>2026-04-26T15:44:06.552Z</time></trkpt><trkpt lat="45.6791907" lon="8.6987371"><ele>267.1428571428571</ele><time>2026-04-26T15:44:08.552Z</time></trkpt><trkpt lat="45.6792436" lon="8.6987998"><ele>267.7142857142857</ele><time>2026-04-26T15:44:10.552Z</time></trkpt><trkpt lat="45.6792893" lon="8.6988757"><ele>268.2857142857143</ele><time>2026-04-26T15:44:12.552Z</time></trkpt><trkpt lat="45.6793364" lon="8.6989536"><ele>268.85714285714283</ele><time>2026-04-26T15:44:14.552Z</time></trkpt><trkpt lat="45.6793914" lon="8.6990259"><ele>269.42857142857144</ele><time>2026-04-26T15:44:16.553Z</time></trkpt><trkpt lat="45.6794422" lon="8.6991012"><ele>270.0</ele><time>2026-04-26T15:44:18.552Z</time></trkpt><trkpt lat="45.679489" lon="8.6991828"><ele>270.0</ele><time>2026-04-26T15:44:20.552Z</time></trkpt><trkpt lat="45.6795399" lon="8.6992617"><ele>270.0</ele><time>2026-04-26T15:44:22.552Z</time></trkpt><trkpt lat="45.6795846" lon="8.6993448"><ele>270.0</ele><time>2026-04-26T15:44:24.552Z</time></trkpt><trkpt lat="45.6796338" lon="8.6994221"><ele>270.0</ele><time>2026-04-26T15:44:26.553Z</time></trkpt><trkpt lat="45.6796719" lon="8.6994942"><ele>270.0</ele><time>2026-04-26T15:44:28.552Z</time></trkpt><trkpt lat="45.6797132" lon="8.6995701"><ele>270.0</ele><time>2026-04-26T15:44:30.552Z</time></trkpt><trkpt lat="45.6797621" lon="8.6996476"><ele>270.0</ele><time>2026-04-26T15:44:32.552Z</time></trkpt><trkpt lat="45.6798077" lon="8.6997277"><ele>269.85714285714283</ele><time>2026-04-26T15:44:34.552Z</time></trkpt><trkpt lat="45.6798544" lon="8.6998023"><ele>269.71428571428567</ele><time>2026-04-26T15:44:36.552Z</time></trkpt><trkpt lat="45.6798947" lon="8.6999249"><ele>269.57142857142856</ele><time>2026-04-26T15:44:39.552Z</time></trkpt><trkpt lat="45.6799258" lon="8.7000113"><ele>269.42857142857144</ele><time>2026-04-26T15:44:41.553Z</time></trkpt><trkpt lat="45.6799597" lon="8.7000894"><ele>269.28571428571433</ele><time>2026-04-26T15:44:43.552Z</time></trkpt><trkpt lat="45.6799974" lon="8.7001669"><ele>269.14285714285717</ele><time>2026-04-26T15:44:45.552Z</time></trkpt><trkpt lat="45.6800382" lon="8.7002486"><ele>269.0</ele><time>2026-04-26T15:44:47.553Z</time></trkpt><trkpt lat="45.6800835" lon="8.700321"><ele>268.8571428571429</ele><time>2026-04-26T15:44:49.552Z</time></trkpt><trkpt lat="45.6801286" lon="8.700394"><ele>268.7142857142857</ele><time>2026-04-26T15:44:51.552Z</time></trkpt><trkpt lat="45.680173" lon="8.7004739"><ele>268.57142857142856</ele><time>2026-04-26T15:44:53.553Z</time></trkpt><trkpt lat="45.6802145" lon="8.7005461"><ele>268.42857142857144</ele><time>2026-04-26T15:44:55.552Z</time></trkpt><trkpt lat="45.6802729" lon="8.7006512"><ele>268.2857142857143</ele><time>2026-04-26T15:44:58.552Z</time></trkpt><trkpt lat="45.6803133" lon="8.7007276"><ele>268.14285714285717</ele><time>2026-04-26T15:45:00.552Z</time></trkpt><trkpt lat="45.6803547" lon="8.7008049"><ele>268.0</ele><time>2026-04-26T15:45:02.552Z</time></trkpt><trkpt lat="45.6803916" lon="8.7008802"><ele>268.2857142857143</ele><time>2026-04-26T15:45:04.552Z</time></trkpt><trkpt lat="45.6804532" lon="8.7009831"><ele>268.57142857142856</ele><time>2026-04-26T15:45:07.553Z</time></trkpt><trkpt lat="45.6804909" lon="8.7010594"><ele>268.85714285714283</ele><time>2026-04-26T15:45:09.553Z</time></trkpt><trkpt lat="45.68053" lon="8.7011387"><ele>269.1428571428571</ele><time>2026-04-26T15:45:11.552Z</time></trkpt><trkpt lat="45.6805746" lon="8.7012125"><ele>269.4285714285714</ele><time>2026-04-26T15:45:13.552Z</time></trkpt><trkpt lat="45.6806278" lon="8.7012839"><ele>269.7142857142857</ele><time>2026-04-26T15:45:15.553Z</time></trkpt><trkpt lat="45.6806824" lon="8.7013593"><ele>270.0</ele><time>2026-04-26T15:45:17.552Z</time></trkpt><trkpt lat="45.6807339" lon="8.7014394"><ele>270.0</ele><time>2026-04-26T15:45:19.552Z</time></trkpt><trkpt lat="45.6807812" lon="8.7015072"><ele>270.0</ele><time>2026-04-26T15:45:21.552Z</time></trkpt><trkpt lat="45.6808264" lon="8.701574"><ele>270.0</ele><time>2026-04-26T15:45:23.552Z</time></trkpt><trkpt lat="45.6808714" lon="8.7016514"><ele>270.0</ele><time>2026-04-26T15:45:25.552Z</time></trkpt><trkpt lat="45.6809176" lon="8.7017219"><ele>270.0</ele><time>2026-04-26T15:45:27.552Z</time></trkpt><trkpt lat="45.6809802" lon="8.7018191"><ele>270.0</ele><time>2026-04-26T15:45:30.552Z</time></trkpt><trkpt lat="45.6810417" lon="8.701909"><ele>270.1666666666667</ele><time>2026-04-26T15:45:33.553Z</time></trkpt><trkpt lat="45.6811015" lon="8.702002"><ele>270.3333333333333</ele><time>2026-04-26T15:45:36.552Z</time></trkpt><trkpt lat="45.6811634" lon="8.7020922"><ele>270.5</ele><time>2026-04-26T15:45:39.552Z</time></trkpt><trkpt lat="45.6812178" lon="8.7021896"><ele>270.66666666666663</ele><time>2026-04-26T15:45:42.552Z</time></trkpt><trkpt lat="45.6812772" lon="8.7022766"><ele>270.8333333333333</ele><time>2026-04-26T15:45:45.552Z</time></trkpt><trkpt lat="45.6813396" lon="8.702366"><ele>271.0</ele><time>2026-04-26T15:45:48.552Z</time></trkpt><trkpt lat="45.6813996" lon="8.7024225"><ele>271.0</ele><time>2026-04-26T15:45:51.552Z</time></trkpt><trkpt lat="45.6814777" lon="8.7024879"><ele>271.0</ele><time>2026-04-26T15:46:01.553Z</time></trkpt><trkpt lat="45.6815288" lon="8.7025435"><ele>271.0</ele><time>2026-04-26T15:46:04.552Z</time></trkpt><trkpt lat="45.681589" lon="8.7026031"><ele>271.0</ele><time>2026-04-26T15:46:07.553Z</time></trkpt><trkpt lat="45.6816526" lon="8.7026588"><ele>271.0</ele><time>2026-04-26T15:46:10.552Z</time></trkpt><trkpt lat="45.6817003" lon="8.7027202"><ele>271.0</ele><time>2026-04-26T15:46:13.552Z</time></trkpt><trkpt lat="45.6817476" lon="8.7027933"><ele>271.0</ele><time>2026-04-26T15:46:16.552Z</time></trkpt><trkpt lat="45.6817881" lon="8.7028758"><ele>272.0</ele><time>2026-04-26T15:46:20.552Z</time></trkpt></trkseg></trk></gpx>